﻿<?xml version="1.0" encoding="utf-8"?><gpx creator="Garmin Desktop App" version="1.1" xsi:schemaLocation="http://www.topografix.com/GPX/1/1 http://www.topografix.com/GPX/1/1/gpx.xsd http://www.garmin.com/xmlschemas/WaypointExtension/v1 http://www8.garmin.com/xmlschemas/WaypointExtensionv1.xsd http://www.garmin.com/xmlschemas/TrackPointExtension/v1 http://www.garmin.com/xmlschemas/TrackPointExtensionv1.xsd http://www.garmin.com/xmlschemas/GpxExtensions/v3 http://www8.garmin.com/xmlschemas/GpxExtensionsv3.xsd http://www.garmin.com/xmlschemas/ActivityExtension/v1 http://www8.garmin.com/xmlschemas/ActivityExtensionv1.xsd http://www.garmin.com/xmlschemas/AdventuresExtensions/v1 http://www8.garmin.com/xmlschemas/AdventuresExtensionv1.xsd http://www.garmin.com/xmlschemas/PressureExtension/v1 http://www.garmin.com/xmlschemas/PressureExtensionv1.xsd http://www.garmin.com/xmlschemas/TripExtensions/v1 http://www.garmin.com/xmlschemas/TripExtensionsv1.xsd http://www.garmin.com/xmlschemas/TripMetaDataExtensions/v1 http://www.garmin.com/xmlschemas/TripMetaDataExtensionsv1.xsd http://www.garmin.com/xmlschemas/ViaPointTransportationModeExtensions/v1 http://www.garmin.com/xmlschemas/ViaPointTransportationModeExtensionsv1.xsd http://www.garmin.com/xmlschemas/CreationTimeExtension/v1 http://www.garmin.com/xmlschemas/CreationTimeExtensionsv1.xsd http://www.garmin.com/xmlschemas/AccelerationExtension/v1 http://www.garmin.com/xmlschemas/AccelerationExtensionv1.xsd http://www.garmin.com/xmlschemas/PowerExtension/v1 http://www.garmin.com/xmlschemas/PowerExtensionv1.xsd http://www.garmin.com/xmlschemas/VideoExtension/v1 http://www.garmin.com/xmlschemas/VideoExtensionv1.xsd" xmlns="http://www.topografix.com/GPX/1/1" xmlns:xsi="http://www.w3.org/2001/XMLSchema-instance" xmlns:wptx1="http://www.garmin.com/xmlschemas/WaypointExtension/v1" xmlns:gpxtrx="http://www.garmin.com/xmlschemas/GpxExtensions/v3" xmlns:gpxtpx="http://www.garmin.com/xmlschemas/TrackPointExtension/v1" xmlns:gpxx="http://www.garmin.com/xmlschemas/GpxExtensions/v3" xmlns:trp="http://www.garmin.com/xmlschemas/TripExtensions/v1" xmlns:adv="http://www.garmin.com/xmlschemas/AdventuresExtensions/v1" xmlns:prs="http://www.garmin.com/xmlschemas/PressureExtension/v1" xmlns:tmd="http://www.garmin.com/xmlschemas/TripMetaDataExtensions/v1" xmlns:vptm="http://www.garmin.com/xmlschemas/ViaPointTransportationModeExtensions/v1" xmlns:ctx="http://www.garmin.com/xmlschemas/CreationTimeExtension/v1" xmlns:gpxacc="http://www.garmin.com/xmlschemas/AccelerationExtension/v1" xmlns:gpxpx="http://www.garmin.com/xmlschemas/PowerExtension/v1" xmlns:vidx1="http://www.garmin.com/xmlschemas/VideoExtension/v1">

  <metadata>
    <link href="http://www.garmin.com">
      <text>Garmin International</text>
    </link>
    <time>2016-01-11T14:00:14Z</time>
    <bounds maxlat="45.951366797089577" maxlon="9.547222489491105" minlat="45.932704154402018" minlon="9.523506732657552" />
  </metadata>

  <trk>
    <name>cima-piazzo-monte-sodadura2016-01-10</name>
    <extensions>
      <gpxx:TrackExtension>
        <gpxx:DisplayColor>Yellow</gpxx:DisplayColor>
      </gpxx:TrackExtension>
      <gpxtrkx:TrackStatsExtension xmlns:gpxtrkx="http://www.garmin.com/xmlschemas/TrackStatsExtension/v1">
        <gpxtrkx:Distance>12186</gpxtrkx:Distance>
        <gpxtrkx:TotalElapsedTime>21583</gpxtrkx:TotalElapsedTime>
        <gpxtrkx:MovingTime>13261</gpxtrkx:MovingTime>
        <gpxtrkx:StoppedTime>7365</gpxtrkx:StoppedTime>
        <gpxtrkx:MovingSpeed>1</gpxtrkx:MovingSpeed>
        <gpxtrkx:MaxSpeed>2</gpxtrkx:MaxSpeed>
        <gpxtrkx:MaxElevation>2063</gpxtrkx:MaxElevation>
        <gpxtrkx:MinElevation>1624</gpxtrkx:MinElevation>
        <gpxtrkx:Ascent>696</gpxtrkx:Ascent>
        <gpxtrkx:Descent>701</gpxtrkx:Descent>
        <gpxtrkx:AvgAscentRate>0</gpxtrkx:AvgAscentRate>
        <gpxtrkx:MaxAscentRate>0</gpxtrkx:MaxAscentRate>
        <gpxtrkx:AvgDescentRate>0</gpxtrkx:AvgDescentRate>
        <gpxtrkx:MaxDescentRate>-1</gpxtrkx:MaxDescentRate>
      </gpxtrkx:TrackStatsExtension>
    </extensions>
    <trkseg>
      <trkpt lat="45.933214863762259" lon="9.524240819737315">
        <ele>1649.28</ele>
        <time>2016-01-10T08:03:12Z</time>
      </trkpt>
      <trkpt lat="45.933226346969604" lon="9.524246687069535">
        <ele>1647.8399999999999</ele>
        <time>2016-01-10T08:03:30Z</time>
      </trkpt>
      <trkpt lat="45.93321830034256" lon="9.524233192205429">
        <ele>1648.3199999999999</ele>
        <time>2016-01-10T08:03:48Z</time>
      </trkpt>
      <trkpt lat="45.933231795206666" lon="9.524227911606431">
        <ele>1648.3199999999999</ele>
        <time>2016-01-10T08:04:04Z</time>
      </trkpt>
      <trkpt lat="45.933228693902493" lon="9.524250961840153">
        <ele>1648.3199999999999</ele>
        <time>2016-01-10T08:04:20Z</time>
      </trkpt>
      <trkpt lat="45.933234561234713" lon="9.524278705939651">
        <ele>1648.3199999999999</ele>
        <time>2016-01-10T08:04:30Z</time>
      </trkpt>
      <trkpt lat="45.933245373889804" lon="9.524324219673872">
        <ele>1648.8</ele>
        <time>2016-01-10T08:04:41Z</time>
      </trkpt>
      <trkpt lat="45.933239422738552" lon="9.5243573281914">
        <ele>1648.8</ele>
        <time>2016-01-10T08:04:49Z</time>
      </trkpt>
      <trkpt lat="45.933236740529537" lon="9.524314748123288">
        <ele>1648.8</ele>
        <time>2016-01-10T08:05:03Z</time>
      </trkpt>
      <trkpt lat="45.933191981166601" lon="9.524068739265204">
        <ele>1648.3199999999999</ele>
        <time>2016-01-10T08:05:19Z</time>
      </trkpt>
      <trkpt lat="45.933170942589641" lon="9.524116851389408">
        <ele>1647.8399999999999</ele>
        <time>2016-01-10T08:05:35Z</time>
      </trkpt>
      <trkpt lat="45.932894758880138" lon="9.524185080081224">
        <ele>1647.8399999999999</ele>
        <time>2016-01-10T08:05:47Z</time>
      </trkpt>
      <trkpt lat="45.933062648400664" lon="9.523506732657552">
        <ele>1647.8399999999999</ele>
        <time>2016-01-10T08:05:59Z</time>
      </trkpt>
      <trkpt lat="45.933100702241063" lon="9.523662552237511">
        <ele>1647.8399999999999</ele>
        <time>2016-01-10T08:06:18Z</time>
      </trkpt>
      <trkpt lat="45.933154346421361" lon="9.523793812841177">
        <ele>1647.8399999999999</ele>
        <time>2016-01-10T08:06:36Z</time>
      </trkpt>
      <trkpt lat="45.933112017810345" lon="9.523908896371722">
        <ele>1648.3199999999999</ele>
        <time>2016-01-10T08:06:55Z</time>
      </trkpt>
      <trkpt lat="45.933123417198658" lon="9.52402456663549">
        <ele>1648.3199999999999</ele>
        <time>2016-01-10T08:07:07Z</time>
      </trkpt>
      <trkpt lat="45.93318996950984" lon="9.524219445884228">
        <ele>1648.8</ele>
        <time>2016-01-10T08:07:18Z</time>
      </trkpt>
      <trkpt lat="45.933212097734213" lon="9.524202598258853">
        <ele>1648.8</ele>
        <time>2016-01-10T08:07:26Z</time>
      </trkpt>
      <trkpt lat="45.933207739144564" lon="9.524206537753344">
        <ele>1649.28</ele>
        <time>2016-01-10T08:07:28Z</time>
      </trkpt>
      <trkpt lat="45.933227520436049" lon="9.524333272129297">
        <ele>1648.8</ele>
        <time>2016-01-10T08:07:35Z</time>
      </trkpt>
      <trkpt lat="45.933229196816683" lon="9.524553632363677">
        <ele>1649.28</ele>
        <time>2016-01-10T08:07:48Z</time>
      </trkpt>
      <trkpt lat="45.933250319212675" lon="9.52467106282711">
        <ele>1649.28</ele>
        <time>2016-01-10T08:07:58Z</time>
      </trkpt>
      <trkpt lat="45.933271190151572" lon="9.524730071425438">
        <ele>1649.28</ele>
        <time>2016-01-10T08:08:06Z</time>
      </trkpt>
      <trkpt lat="45.933306058868766" lon="9.524860745295882">
        <ele>1650.24</ele>
        <time>2016-01-10T08:08:16Z</time>
      </trkpt>
      <trkpt lat="45.933329192921519" lon="9.524956298992038">
        <ele>1649.76</ele>
        <time>2016-01-10T08:08:25Z</time>
      </trkpt>
      <trkpt lat="45.933362636715174" lon="9.525071131065488">
        <ele>1650.72</ele>
        <time>2016-01-10T08:08:36Z</time>
      </trkpt>
      <trkpt lat="45.933385351672769" lon="9.525140365585685">
        <ele>1651.2</ele>
        <time>2016-01-10T08:08:42Z</time>
      </trkpt>
      <trkpt lat="45.933437068015337" lon="9.525271207094193">
        <ele>1652.1600000000001</ele>
        <time>2016-01-10T08:08:54Z</time>
      </trkpt>
      <trkpt lat="45.933484341949224" lon="9.525422332808375">
        <ele>1653.1199999999999</ele>
        <time>2016-01-10T08:09:06Z</time>
      </trkpt>
      <trkpt lat="45.933504207059741" lon="9.525493662804365">
        <ele>1653.1199999999999</ele>
        <time>2016-01-10T08:09:11Z</time>
      </trkpt>
      <trkpt lat="45.933491550385952" lon="9.525545546784997">
        <ele>1651.2</ele>
        <time>2016-01-10T08:09:14Z</time>
      </trkpt>
      <trkpt lat="45.933487610891461" lon="9.525549234822393">
        <ele>1653.1199999999999</ele>
        <time>2016-01-10T08:09:17Z</time>
      </trkpt>
      <trkpt lat="45.933496663346887" lon="9.525576559826732">
        <ele>1652.6400000000001</ele>
        <time>2016-01-10T08:09:23Z</time>
      </trkpt>
      <trkpt lat="45.933560784906149" lon="9.525742018595338">
        <ele>1653.5999999999999</ele>
        <time>2016-01-10T08:09:34Z</time>
      </trkpt>
      <trkpt lat="45.933592300862074" lon="9.525830363854766">
        <ele>1653.5999999999999</ele>
        <time>2016-01-10T08:09:44Z</time>
      </trkpt>
      <trkpt lat="45.933612501248717" lon="9.525841679424048">
        <ele>1653.5999999999999</ele>
        <time>2016-01-10T08:09:57Z</time>
      </trkpt>
      <trkpt lat="45.933627085760236" lon="9.525867328047752">
        <ele>1653.1199999999999</ele>
        <time>2016-01-10T08:10:08Z</time>
      </trkpt>
      <trkpt lat="45.933646196499467" lon="9.525879314169288">
        <ele>1652.6400000000001</ele>
        <time>2016-01-10T08:10:11Z</time>
      </trkpt>
      <trkpt lat="45.933686178177595" lon="9.525892054662108">
        <ele>1652.6400000000001</ele>
        <time>2016-01-10T08:10:16Z</time>
      </trkpt>
      <trkpt lat="45.933744851499796" lon="9.525988278910518">
        <ele>1652.1600000000001</ele>
        <time>2016-01-10T08:10:23Z</time>
      </trkpt>
      <trkpt lat="45.933788772672415" lon="9.526063380762935">
        <ele>1652.1600000000001</ele>
        <time>2016-01-10T08:10:29Z</time>
      </trkpt>
      <trkpt lat="45.933827832341194" lon="9.52623906545341">
        <ele>1652.6400000000001</ele>
        <time>2016-01-10T08:10:41Z</time>
      </trkpt>
      <trkpt lat="45.933829760178924" lon="9.526254991069436">
        <ele>1652.6400000000001</ele>
        <time>2016-01-10T08:10:42Z</time>
      </trkpt>
      <trkpt lat="45.933871753513813" lon="9.526446098461747">
        <ele>1653.1199999999999</ele>
        <time>2016-01-10T08:10:55Z</time>
      </trkpt>
      <trkpt lat="45.93390729278326" lon="9.526585908606648">
        <ele>1653.5999999999999</ele>
        <time>2016-01-10T08:11:05Z</time>
      </trkpt>
      <trkpt lat="45.933911232277751" lon="9.526598313823342">
        <ele>1653.5999999999999</ele>
        <time>2016-01-10T08:11:06Z</time>
      </trkpt>
      <trkpt lat="45.933927493169904" lon="9.526734938845038">
        <ele>1653.5999999999999</ele>
        <time>2016-01-10T08:11:17Z</time>
      </trkpt>
      <trkpt lat="45.933934114873409" lon="9.526897547766566">
        <ele>1652.1600000000001</ele>
        <time>2016-01-10T08:11:28Z</time>
      </trkpt>
      <trkpt lat="45.933965379372239" lon="9.527069963514805">
        <ele>1651.6800000000001</ele>
        <time>2016-01-10T08:11:41Z</time>
      </trkpt>
      <trkpt lat="45.933982478454709" lon="9.52721287496388">
        <ele>1651.6800000000001</ele>
        <time>2016-01-10T08:11:51Z</time>
      </trkpt>
      <trkpt lat="45.933981137350202" lon="9.527282193303108">
        <ele>1651.6800000000001</ele>
        <time>2016-01-10T08:11:57Z</time>
      </trkpt>
      <trkpt lat="45.933962110430002" lon="9.527431558817625">
        <ele>1652.1600000000001</ele>
        <time>2016-01-10T08:12:12Z</time>
      </trkpt>
      <trkpt lat="45.933969905599952" lon="9.527459051460028">
        <ele>1652.6400000000001</ele>
        <time>2016-01-10T08:12:17Z</time>
      </trkpt>
      <trkpt lat="45.93399035744369" lon="9.527549324557185">
        <ele>1652.6400000000001</ele>
        <time>2016-01-10T08:12:28Z</time>
      </trkpt>
      <trkpt lat="45.934026315808296" lon="9.52755250968039">
        <ele>1653.1199999999999</ele>
        <time>2016-01-10T08:12:40Z</time>
      </trkpt>
      <trkpt lat="45.934027740731835" lon="9.527526022866368">
        <ele>1652.6400000000001</ele>
        <time>2016-01-10T08:12:50Z</time>
      </trkpt>
      <trkpt lat="45.934029752388597" lon="9.527444215491414">
        <ele>1652.6400000000001</ele>
        <time>2016-01-10T08:13:11Z</time>
      </trkpt>
      <trkpt lat="45.93402648344636" lon="9.527412280440331">
        <ele>1655.05</ele>
        <time>2016-01-10T08:13:23Z</time>
      </trkpt>
      <trkpt lat="45.934016173705459" lon="9.527582600712776">
        <ele>1653.1199999999999</ele>
        <time>2016-01-10T08:13:42Z</time>
      </trkpt>
      <trkpt lat="45.934022041037679" lon="9.527567513287067">
        <ele>1653.5999999999999</ele>
        <time>2016-01-10T08:14:04Z</time>
      </trkpt>
      <trkpt lat="45.934023214504123" lon="9.527545385062695">
        <ele>1649.76</ele>
        <time>2016-01-10T08:30:20Z</time>
      </trkpt>
      <trkpt lat="45.934022795408964" lon="9.527539182454348">
        <ele>1650.24</ele>
        <time>2016-01-10T08:30:21Z</time>
      </trkpt>
      <trkpt lat="45.934044420719147" lon="9.527554521337152">
        <ele>1649.76</ele>
        <time>2016-01-10T08:30:31Z</time>
      </trkpt>
      <trkpt lat="45.934047270566225" lon="9.527537757530808">
        <ele>1649.76</ele>
        <time>2016-01-10T08:30:47Z</time>
      </trkpt>
      <trkpt lat="45.93404752202332" lon="9.52753490768373">
        <ele>1649.28</ele>
        <time>2016-01-10T08:31:00Z</time>
      </trkpt>
      <trkpt lat="45.934039391577244" lon="9.527539433911443">
        <ele>1649.76</ele>
        <time>2016-01-10T08:31:14Z</time>
      </trkpt>
      <trkpt lat="45.93403872102499" lon="9.52755494043231">
        <ele>1649.76</ele>
        <time>2016-01-10T08:31:35Z</time>
      </trkpt>
      <trkpt lat="45.934034530073404" lon="9.527545720338821">
        <ele>1648.8</ele>
        <time>2016-01-10T08:31:50Z</time>
      </trkpt>
      <trkpt lat="45.93399228528142" lon="9.527535326778889">
        <ele>1649.28</ele>
        <time>2016-01-10T08:32:00Z</time>
      </trkpt>
      <trkpt lat="45.933971246704459" lon="9.527431474998593">
        <ele>1649.28</ele>
        <time>2016-01-10T08:32:11Z</time>
      </trkpt>
      <trkpt lat="45.933962697163224" lon="9.527431391179562">
        <ele>1649.28</ele>
        <time>2016-01-10T08:32:26Z</time>
      </trkpt>
      <trkpt lat="45.933945681899786" lon="9.527461733669043">
        <ele>1648.8</ele>
        <time>2016-01-10T08:32:31Z</time>
      </trkpt>
      <trkpt lat="45.933923805132508" lon="9.527577152475715">
        <ele>1647.3599999999999</ele>
        <time>2016-01-10T08:32:39Z</time>
      </trkpt>
      <trkpt lat="45.933933947235346" lon="9.527601208537817">
        <ele>1646.4000000000001</ele>
        <time>2016-01-10T08:32:48Z</time>
      </trkpt>
      <trkpt lat="45.933935036882758" lon="9.527698857709765">
        <ele>1644.95</ele>
        <time>2016-01-10T08:32:57Z</time>
      </trkpt>
      <trkpt lat="45.933929085731506" lon="9.527834979817271">
        <ele>1643.03</ele>
        <time>2016-01-10T08:33:07Z</time>
      </trkpt>
      <trkpt lat="45.933871837332845" lon="9.527993146330118">
        <ele>1640.6300000000001</ele>
        <time>2016-01-10T08:33:18Z</time>
      </trkpt>
      <trkpt lat="45.933867814019322" lon="9.528005383908749">
        <ele>1640.6300000000001</ele>
        <time>2016-01-10T08:33:19Z</time>
      </trkpt>
      <trkpt lat="45.933863706886768" lon="9.528029188513756">
        <ele>1639.6700000000001</ele>
        <time>2016-01-10T08:33:21Z</time>
      </trkpt>
      <trkpt lat="45.933796316385269" lon="9.528136141598225">
        <ele>1638.22</ele>
        <time>2016-01-10T08:33:31Z</time>
      </trkpt>
      <trkpt lat="45.933742336928844" lon="9.5281788893044">
        <ele>1636.78</ele>
        <time>2016-01-10T08:33:41Z</time>
      </trkpt>
      <trkpt lat="45.93375138938427" lon="9.528170088306069">
        <ele>1637.74</ele>
        <time>2016-01-10T08:33:50Z</time>
      </trkpt>
      <trkpt lat="45.933726076036692" lon="9.528207555413246">
        <ele>1636.78</ele>
        <time>2016-01-10T08:34:01Z</time>
      </trkpt>
      <trkpt lat="45.933658182621002" lon="9.528298079967499">
        <ele>1634.8599999999999</ele>
        <time>2016-01-10T08:34:11Z</time>
      </trkpt>
      <trkpt lat="45.933573022484779" lon="9.528425987809897">
        <ele>1633.9000000000001</ele>
        <time>2016-01-10T08:34:22Z</time>
      </trkpt>
      <trkpt lat="45.933509487658739" lon="9.528615502640605">
        <ele>1633.4200000000001</ele>
        <time>2016-01-10T08:34:36Z</time>
      </trkpt>
      <trkpt lat="45.933474954217672" lon="9.528823373839259">
        <ele>1631.98</ele>
        <time>2016-01-10T08:34:48Z</time>
      </trkpt>
      <trkpt lat="45.933432038873434" lon="9.52900031581521">
        <ele>1629.5699999999999</ele>
        <time>2016-01-10T08:34:59Z</time>
      </trkpt>
      <trkpt lat="45.933393398299813" lon="9.529146915301681">
        <ele>1629.0899999999999</ele>
        <time>2016-01-10T08:35:09Z</time>
      </trkpt>
      <trkpt lat="45.933387782424688" lon="9.529159404337406">
        <ele>1628.6099999999999</ele>
        <time>2016-01-10T08:35:13Z</time>
      </trkpt>
      <trkpt lat="45.933351907879114" lon="9.529248923063278">
        <ele>1627.6500000000001</ele>
        <time>2016-01-10T08:35:19Z</time>
      </trkpt>
      <trkpt lat="45.933223748579621" lon="9.52943223528564">
        <ele>1626.21</ele>
        <time>2016-01-10T08:35:33Z</time>
      </trkpt>
      <trkpt lat="45.933181922882795" lon="9.529500044882298">
        <ele>1625.73</ele>
        <time>2016-01-10T08:35:39Z</time>
      </trkpt>
      <trkpt lat="45.933166751638055" lon="9.529553689062595">
        <ele>1625.73</ele>
        <time>2016-01-10T08:35:49Z</time>
      </trkpt>
      <trkpt lat="45.933117466047406" lon="9.529646560549736">
        <ele>1625.25</ele>
        <time>2016-01-10T08:35:58Z</time>
      </trkpt>
      <trkpt lat="45.933044794946909" lon="9.529777737334371">
        <ele>1624.77</ele>
        <time>2016-01-10T08:36:09Z</time>
      </trkpt>
      <trkpt lat="45.932960137724876" lon="9.529899945482612">
        <ele>1624.77</ele>
        <time>2016-01-10T08:36:20Z</time>
      </trkpt>
      <trkpt lat="45.932891992852092" lon="9.530070433393121">
        <ele>1624.28</ele>
        <time>2016-01-10T08:36:32Z</time>
      </trkpt>
      <trkpt lat="45.932868355885148" lon="9.530136231333017">
        <ele>1624.28</ele>
        <time>2016-01-10T08:36:37Z</time>
      </trkpt>
      <trkpt lat="45.932869194075465" lon="9.530179062858224">
        <ele>1624.28</ele>
        <time>2016-01-10T08:36:40Z</time>
      </trkpt>
      <trkpt lat="45.932859303429723" lon="9.530309569090605">
        <ele>1625.25</ele>
        <time>2016-01-10T08:36:50Z</time>
      </trkpt>
      <trkpt lat="45.932847484946251" lon="9.530391125008464">
        <ele>1626.21</ele>
        <time>2016-01-10T08:36:57Z</time>
      </trkpt>
      <trkpt lat="45.932843713089824" lon="9.530415097251535">
        <ele>1626.21</ele>
        <time>2016-01-10T08:36:59Z</time>
      </trkpt>
      <trkpt lat="45.932846730574965" lon="9.530550884082913">
        <ele>1627.1700000000001</ele>
        <time>2016-01-10T08:37:09Z</time>
      </trkpt>
      <trkpt lat="45.932854441925883" lon="9.530652640387416">
        <ele>1627.6500000000001</ele>
        <time>2016-01-10T08:37:18Z</time>
      </trkpt>
      <trkpt lat="45.932855531573296" lon="9.530744254589081">
        <ele>1628.1300000000001</ele>
        <time>2016-01-10T08:37:26Z</time>
      </trkpt>
      <trkpt lat="45.932848071679473" lon="9.530813489109278">
        <ele>1628.1300000000001</ele>
        <time>2016-01-10T08:37:32Z</time>
      </trkpt>
      <trkpt lat="45.932855699211359" lon="9.530933937057853">
        <ele>1629.5699999999999</ele>
        <time>2016-01-10T08:37:42Z</time>
      </trkpt>
      <trkpt lat="45.932869529351592" lon="9.531053462997079">
        <ele>1630.05</ele>
        <time>2016-01-10T08:37:52Z</time>
      </trkpt>
      <trkpt lat="45.932888640090823" lon="9.531121691688895">
        <ele>1630.53</ele>
        <time>2016-01-10T08:38:02Z</time>
      </trkpt>
      <trkpt lat="45.932922335341573" lon="9.53123920597136">
        <ele>1631.01</ele>
        <time>2016-01-10T08:38:11Z</time>
      </trkpt>
      <trkpt lat="45.932949325069785" lon="9.531347919255495">
        <ele>1632.46</ele>
        <time>2016-01-10T08:38:22Z</time>
      </trkpt>
      <trkpt lat="45.932956533506513" lon="9.531365688890219">
        <ele>1632.46</ele>
        <time>2016-01-10T08:38:24Z</time>
      </trkpt>
      <trkpt lat="45.932984529063106" lon="9.531444059684873">
        <ele>1633.4200000000001</ele>
        <time>2016-01-10T08:38:33Z</time>
      </trkpt>
      <trkpt lat="45.933068348094821" lon="9.531555119901896">
        <ele>1634.3800000000001</ele>
        <time>2016-01-10T08:38:45Z</time>
      </trkpt>
      <trkpt lat="45.933159962296486" lon="9.531670119613409">
        <ele>1634.8599999999999</ele>
        <time>2016-01-10T08:38:56Z</time>
      </trkpt>
      <trkpt lat="45.93326230533421" lon="9.531759722158313">
        <ele>1635.8199999999999</ele>
        <time>2016-01-10T08:39:09Z</time>
      </trkpt>
      <trkpt lat="45.933355428278446" lon="9.53180062584579">
        <ele>1635.8199999999999</ele>
        <time>2016-01-10T08:39:20Z</time>
      </trkpt>
      <trkpt lat="45.933414604514837" lon="9.531839601695538">
        <ele>1636.3</ele>
        <time>2016-01-10T08:39:29Z</time>
      </trkpt>
      <trkpt lat="45.933521306142211" lon="9.531955188140273">
        <ele>1635.8199999999999</ele>
        <time>2016-01-10T08:39:40Z</time>
      </trkpt>
      <trkpt lat="45.933638736605644" lon="9.532080916687846">
        <ele>1635.8199999999999</ele>
        <time>2016-01-10T08:39:53Z</time>
      </trkpt>
      <trkpt lat="45.93369472771883" lon="9.532184349372983">
        <ele>1635.8199999999999</ele>
        <time>2016-01-10T08:40:03Z</time>
      </trkpt>
      <trkpt lat="45.933696823194623" lon="9.53219348564744">
        <ele>1636.3</ele>
        <time>2016-01-10T08:40:04Z</time>
      </trkpt>
      <trkpt lat="45.933783743530512" lon="9.532265905290842">
        <ele>1636.3</ele>
        <time>2016-01-10T08:40:15Z</time>
      </trkpt>
      <trkpt lat="45.933867143467069" lon="9.532351987436414">
        <ele>1637.26</ele>
        <time>2016-01-10T08:40:27Z</time>
      </trkpt>
      <trkpt lat="45.933927576988935" lon="9.532456593587995">
        <ele>1638.7</ele>
        <time>2016-01-10T08:40:38Z</time>
      </trkpt>
      <trkpt lat="45.933978203684092" lon="9.532533790916205">
        <ele>1640.1500000000001</ele>
        <time>2016-01-10T08:40:49Z</time>
      </trkpt>
      <trkpt lat="45.934044336900115" lon="9.53259808011353">
        <ele>1642.0699999999999</ele>
        <time>2016-01-10T08:41:00Z</time>
      </trkpt>
      <trkpt lat="45.934106027707458" lon="9.532682402059436">
        <ele>1642.55</ele>
        <time>2016-01-10T08:41:11Z</time>
      </trkpt>
      <trkpt lat="45.934127736836672" lon="9.532716935500503">
        <ele>1642.55</ele>
        <time>2016-01-10T08:41:20Z</time>
      </trkpt>
      <trkpt lat="45.934198731556535" lon="9.532844088971615">
        <ele>1643.99</ele>
        <time>2016-01-10T08:41:32Z</time>
      </trkpt>
      <trkpt lat="45.934240305796266" lon="9.532998064532876">
        <ele>1645.4300000000001</ele>
        <time>2016-01-10T08:41:45Z</time>
      </trkpt>
      <trkpt lat="45.934271989390254" lon="9.533134857192636">
        <ele>1647.3599999999999</ele>
        <time>2016-01-10T08:41:58Z</time>
      </trkpt>
      <trkpt lat="45.934310965240002" lon="9.533246671780944">
        <ele>1649.28</ele>
        <time>2016-01-10T08:42:10Z</time>
      </trkpt>
      <trkpt lat="45.934371566399932" lon="9.533358402550221">
        <ele>1651.2</ele>
        <time>2016-01-10T08:42:22Z</time>
      </trkpt>
      <trkpt lat="45.934432167559862" lon="9.53340869396925">
        <ele>1652.1600000000001</ele>
        <time>2016-01-10T08:42:32Z</time>
      </trkpt>
      <trkpt lat="45.934497881680727" lon="9.533474240452051">
        <ele>1654.5699999999999</ele>
        <time>2016-01-10T08:42:43Z</time>
      </trkpt>
      <trkpt lat="45.934546999633312" lon="9.533542050048709">
        <ele>1656.49</ele>
        <time>2016-01-10T08:42:54Z</time>
      </trkpt>
      <trkpt lat="45.934619084000587" lon="9.533617403358221">
        <ele>1658.8900000000001</ele>
        <time>2016-01-10T08:43:06Z</time>
      </trkpt>
      <trkpt lat="45.934680858626962" lon="9.533694516867399">
        <ele>1661.3</ele>
        <time>2016-01-10T08:43:19Z</time>
      </trkpt>
      <trkpt lat="45.934735760092735" lon="9.533751178532839">
        <ele>1663.7</ele>
        <time>2016-01-10T08:43:31Z</time>
      </trkpt>
      <trkpt lat="45.934778675436974" lon="9.533784203231335">
        <ele>1667.0599999999999</ele>
        <time>2016-01-10T08:43:39Z</time>
      </trkpt>
      <trkpt lat="45.934840952977538" lon="9.533853689208627">
        <ele>1668.02</ele>
        <time>2016-01-10T08:43:51Z</time>
      </trkpt>
      <trkpt lat="45.934899291023612" lon="9.533922588452697">
        <ele>1669.47</ele>
        <time>2016-01-10T08:44:03Z</time>
      </trkpt>
      <trkpt lat="45.934978919103742" lon="9.534008419141173">
        <ele>1670.9100000000001</ele>
        <time>2016-01-10T08:44:15Z</time>
      </trkpt>
      <trkpt lat="45.935039101168513" lon="9.534109588712454">
        <ele>1672.3499999999999</ele>
        <time>2016-01-10T08:44:26Z</time>
      </trkpt>
      <trkpt lat="45.935092242434621" lon="9.534211428835988">
        <ele>1673.3099999999999</ele>
        <time>2016-01-10T08:44:38Z</time>
      </trkpt>
      <trkpt lat="45.935155609622598" lon="9.534284435212612">
        <ele>1674.75</ele>
        <time>2016-01-10T08:44:49Z</time>
      </trkpt>
      <trkpt lat="45.935217216610909" lon="9.534362470731139">
        <ele>1675.72</ele>
        <time>2016-01-10T08:44:59Z</time>
      </trkpt>
      <trkpt lat="45.935260970145464" lon="9.534409241750836">
        <ele>1677.1600000000001</ele>
        <time>2016-01-10T08:45:10Z</time>
      </trkpt>
      <trkpt lat="45.935327522456646" lon="9.53441041521728">
        <ele>1678.5999999999999</ele>
        <time>2016-01-10T08:45:20Z</time>
      </trkpt>
      <trkpt lat="45.935339843854308" lon="9.534403039142489">
        <ele>1679.0799999999999</ele>
        <time>2016-01-10T08:45:30Z</time>
      </trkpt>
      <trkpt lat="45.935344789177179" lon="9.534418294206262">
        <ele>1679.5599999999999</ele>
        <time>2016-01-10T08:45:42Z</time>
      </trkpt>
      <trkpt lat="45.935355350375175" lon="9.534405050799251">
        <ele>1679.5599999999999</ele>
        <time>2016-01-10T08:45:59Z</time>
      </trkpt>
      <trkpt lat="45.93535216525197" lon="9.534406224265695">
        <ele>1679.5599999999999</ele>
        <time>2016-01-10T08:46:17Z</time>
      </trkpt>
      <trkpt lat="45.935350656509399" lon="9.534399686381221">
        <ele>1680.04</ele>
        <time>2016-01-10T08:46:29Z</time>
      </trkpt>
      <trkpt lat="45.935351746156812" lon="9.53440748155117">
        <ele>1679.0799999999999</ele>
        <time>2016-01-10T08:46:44Z</time>
      </trkpt>
      <trkpt lat="45.935361552983522" lon="9.534401781857014">
        <ele>1679.0799999999999</ele>
        <time>2016-01-10T08:46:55Z</time>
      </trkpt>
      <trkpt lat="45.935442103073001" lon="9.53437227755785">
        <ele>1681.48</ele>
        <time>2016-01-10T08:47:05Z</time>
      </trkpt>
      <trkpt lat="45.935504212975502" lon="9.534333636984229">
        <ele>1682.4400000000001</ele>
        <time>2016-01-10T08:47:14Z</time>
      </trkpt>
      <trkpt lat="45.935585014522076" lon="9.534305306151509">
        <ele>1685.3299999999999</ele>
        <time>2016-01-10T08:47:27Z</time>
      </trkpt>
      <trkpt lat="45.935636814683676" lon="9.53432290814817">
        <ele>1686.77</ele>
        <time>2016-01-10T08:47:36Z</time>
      </trkpt>
      <trkpt lat="45.935668246820569" lon="9.534345120191574">
        <ele>1687.73</ele>
        <time>2016-01-10T08:47:44Z</time>
      </trkpt>
      <trkpt lat="45.935712670907378" lon="9.534359117969871">
        <ele>1689.1700000000001</ele>
        <time>2016-01-10T08:47:53Z</time>
      </trkpt>
      <trkpt lat="45.935784839093685" lon="9.534375630319119">
        <ele>1692.54</ele>
        <time>2016-01-10T08:48:07Z</time>
      </trkpt>
      <trkpt lat="45.93582465313375" lon="9.534419216215611">
        <ele>1694.46</ele>
        <time>2016-01-10T08:48:18Z</time>
      </trkpt>
      <trkpt lat="45.935859521850944" lon="9.534457521513104">
        <ele>1696.3800000000001</ele>
        <time>2016-01-10T08:48:27Z</time>
      </trkpt>
      <trkpt lat="45.935869915410876" lon="9.534546872600913">
        <ele>1698.3099999999999</ele>
        <time>2016-01-10T08:48:37Z</time>
      </trkpt>
      <trkpt lat="45.935920374467969" lon="9.534594817087054">
        <ele>1700.23</ele>
        <time>2016-01-10T08:48:49Z</time>
      </trkpt>
      <trkpt lat="45.935926828533411" lon="9.534618286415935">
        <ele>1701.1900000000001</ele>
        <time>2016-01-10T08:49:00Z</time>
      </trkpt>
      <trkpt lat="45.935936132445931" lon="9.534622896462679">
        <ele>1701.1900000000001</ele>
        <time>2016-01-10T08:49:15Z</time>
      </trkpt>
      <trkpt lat="45.935955075547099" lon="9.534634547308087">
        <ele>1701.6700000000001</ele>
        <time>2016-01-10T08:49:28Z</time>
      </trkpt>
      <trkpt lat="45.936001343652606" lon="9.534682491794229">
        <ele>1703.5899999999999</ele>
        <time>2016-01-10T08:49:37Z</time>
      </trkpt>
      <trkpt lat="45.936074098572135" lon="9.534739824011922">
        <ele>1705.52</ele>
        <time>2016-01-10T08:49:51Z</time>
      </trkpt>
      <trkpt lat="45.936078960075974" lon="9.534745020791888">
        <ele>1705.52</ele>
        <time>2016-01-10T08:49:52Z</time>
      </trkpt>
      <trkpt lat="45.936107374727726" lon="9.534765221178532">
        <ele>1707.9200000000001</ele>
        <time>2016-01-10T08:49:58Z</time>
      </trkpt>
      <trkpt lat="45.936156408861279" lon="9.534802939742804">
        <ele>1710.3199999999999</ele>
        <time>2016-01-10T08:50:08Z</time>
      </trkpt>
      <trkpt lat="45.936203431338072" lon="9.534844513982534">
        <ele>1712.73</ele>
        <time>2016-01-10T08:50:19Z</time>
      </trkpt>
      <trkpt lat="45.936240646988153" lon="9.534903774037957">
        <ele>1715.1300000000001</ele>
        <time>2016-01-10T08:50:30Z</time>
      </trkpt>
      <trkpt lat="45.936302086338401" lon="9.534897487610579">
        <ele>1717.53</ele>
        <time>2016-01-10T08:50:42Z</time>
      </trkpt>
      <trkpt lat="45.936346342787147" lon="9.534906037151814">
        <ele>1719.46</ele>
        <time>2016-01-10T08:50:51Z</time>
      </trkpt>
      <trkpt lat="45.936358496546745" lon="9.534954484552145">
        <ele>1721.3800000000001</ele>
        <time>2016-01-10T08:51:00Z</time>
      </trkpt>
      <trkpt lat="45.936395963653922" lon="9.534972421824932">
        <ele>1722.3399999999999</ele>
        <time>2016-01-10T08:51:11Z</time>
      </trkpt>
      <trkpt lat="45.936441728845239" lon="9.534991700202227">
        <ele>1724.74</ele>
        <time>2016-01-10T08:51:20Z</time>
      </trkpt>
      <trkpt lat="45.936449440196157" lon="9.535001590847969">
        <ele>1725.22</ele>
        <time>2016-01-10T08:51:22Z</time>
      </trkpt>
      <trkpt lat="45.936488248407841" lon="9.535069987177849">
        <ele>1727.1500000000001</ele>
        <time>2016-01-10T08:51:33Z</time>
      </trkpt>
      <trkpt lat="45.936517417430878" lon="9.535115836188197">
        <ele>1730.51</ele>
        <time>2016-01-10T08:51:43Z</time>
      </trkpt>
      <trkpt lat="45.936567205935717" lon="9.535175682976842">
        <ele>1730.03</ele>
        <time>2016-01-10T08:51:53Z</time>
      </trkpt>
      <trkpt lat="45.936605175957084" lon="9.535204600542784">
        <ele>1731.95</ele>
        <time>2016-01-10T08:52:02Z</time>
      </trkpt>
      <trkpt lat="45.936653036624193" lon="9.535229746252298">
        <ele>1734.3599999999999</ele>
        <time>2016-01-10T08:52:11Z</time>
      </trkpt>
      <trkpt lat="45.936688156798482" lon="9.535243324935436">
        <ele>1735.8</ele>
        <time>2016-01-10T08:52:18Z</time>
      </trkpt>
      <trkpt lat="45.936710787937045" lon="9.535252125933766">
        <ele>1736.28</ele>
        <time>2016-01-10T08:52:21Z</time>
      </trkpt>
      <trkpt lat="45.936760157346725" lon="9.535306943580508">
        <ele>1736.28</ele>
        <time>2016-01-10T08:52:32Z</time>
      </trkpt>
      <trkpt lat="45.936740795150399" lon="9.535323791205883">
        <ele>1736.28</ele>
        <time>2016-01-10T08:52:50Z</time>
      </trkpt>
      <trkpt lat="45.93674867413938" lon="9.535308703780174">
        <ele>1735.8</ele>
        <time>2016-01-10T08:52:58Z</time>
      </trkpt>
      <trkpt lat="45.936750350520015" lon="9.535364946350455">
        <ele>1734.8399999999999</ele>
        <time>2016-01-10T08:53:08Z</time>
      </trkpt>
      <trkpt lat="45.936736101284623" lon="9.535358995199204">
        <ele>1734.8399999999999</ele>
        <time>2016-01-10T08:53:29Z</time>
      </trkpt>
      <trkpt lat="45.936746997758746" lon="9.535350613296032">
        <ele>1734.8399999999999</ele>
        <time>2016-01-10T08:53:41Z</time>
      </trkpt>
      <trkpt lat="45.936710955575109" lon="9.535325551405549">
        <ele>1735.3199999999999</ele>
        <time>2016-01-10T08:53:48Z</time>
      </trkpt>
      <trkpt lat="45.936651192605495" lon="9.535265034064651">
        <ele>1735.8</ele>
        <time>2016-01-10T08:53:58Z</time>
      </trkpt>
      <trkpt lat="45.936673488467932" lon="9.535231254994869">
        <ele>1735.8</ele>
        <time>2016-01-10T08:54:07Z</time>
      </trkpt>
      <trkpt lat="45.936695700511336" lon="9.535286659374833">
        <ele>1735.8</ele>
        <time>2016-01-10T08:54:21Z</time>
      </trkpt>
      <trkpt lat="45.936729060485959" lon="9.535304680466652">
        <ele>1735.8</ele>
        <time>2016-01-10T08:54:30Z</time>
      </trkpt>
      <trkpt lat="45.936718331649899" lon="9.535295460373163">
        <ele>1735.3199999999999</ele>
        <time>2016-01-10T08:54:50Z</time>
      </trkpt>
      <trkpt lat="45.936711374670267" lon="9.535292945802212">
        <ele>1735.3199999999999</ele>
        <time>2016-01-10T08:55:05Z</time>
      </trkpt>
      <trkpt lat="45.936707435175776" lon="9.535295879468322">
        <ele>1735.3199999999999</ele>
        <time>2016-01-10T08:55:20Z</time>
      </trkpt>
      <trkpt lat="45.936706764623523" lon="9.535281378775835">
        <ele>1735.3199999999999</ele>
        <time>2016-01-10T08:55:36Z</time>
      </trkpt>
      <trkpt lat="45.936701148748398" lon="9.535284982994199">
        <ele>1735.3199999999999</ele>
        <time>2016-01-10T08:55:51Z</time>
      </trkpt>
      <trkpt lat="45.936699891462922" lon="9.535293197259307">
        <ele>1735.3199999999999</ele>
        <time>2016-01-10T08:55:56Z</time>
      </trkpt>
      <trkpt lat="45.936766527593136" lon="9.535380201414228">
        <ele>1734.3599999999999</ele>
        <time>2016-01-10T08:56:03Z</time>
      </trkpt>
      <trkpt lat="45.936898458749056" lon="9.535508779808879">
        <ele>1731.95</ele>
        <time>2016-01-10T08:56:17Z</time>
      </trkpt>
      <trkpt lat="45.936984624713659" lon="9.535557562485337">
        <ele>1732.4300000000001</ele>
        <time>2016-01-10T08:56:27Z</time>
      </trkpt>
      <trkpt lat="45.937090823426843" lon="9.535591090098023">
        <ele>1732.4300000000001</ele>
        <time>2016-01-10T08:56:38Z</time>
      </trkpt>
      <trkpt lat="45.937175648286939" lon="9.535617912188172">
        <ele>1730.99</ele>
        <time>2016-01-10T08:56:46Z</time>
      </trkpt>
      <trkpt lat="45.937294084578753" lon="9.535637106746435">
        <ele>1730.03</ele>
        <time>2016-01-10T08:56:57Z</time>
      </trkpt>
      <trkpt lat="45.937417633831501" lon="9.535657810047269">
        <ele>1729.55</ele>
        <time>2016-01-10T08:57:08Z</time>
      </trkpt>
      <trkpt lat="45.937531962990761" lon="9.535722183063626">
        <ele>1729.0699999999999</ele>
        <time>2016-01-10T08:57:20Z</time>
      </trkpt>
      <trkpt lat="45.937645370140672" lon="9.535802733153105">
        <ele>1729.0699999999999</ele>
        <time>2016-01-10T08:57:31Z</time>
      </trkpt>
      <trkpt lat="45.937775541096926" lon="9.535804325714707">
        <ele>1729.0699999999999</ele>
        <time>2016-01-10T08:57:43Z</time>
      </trkpt>
      <trkpt lat="45.937872268259525" lon="9.535719165578485">
        <ele>1728.5899999999999</ele>
        <time>2016-01-10T08:57:53Z</time>
      </trkpt>
      <trkpt lat="45.937938401475549" lon="9.535658061504364">
        <ele>1727.6300000000001</ele>
        <time>2016-01-10T08:58:00Z</time>
      </trkpt>
      <trkpt lat="45.938064297661185" lon="9.535522107034922">
        <ele>1725.7</ele>
        <time>2016-01-10T08:58:14Z</time>
      </trkpt>
      <trkpt lat="45.938151050359011" lon="9.53536662273109">
        <ele>1724.74</ele>
        <time>2016-01-10T08:58:27Z</time>
      </trkpt>
      <trkpt lat="45.938174687325954" lon="9.535270901396871">
        <ele>1723.78</ele>
        <time>2016-01-10T08:58:33Z</time>
      </trkpt>
      <trkpt lat="45.938211819157004" lon="9.535115417093039">
        <ele>1722.8199999999999</ele>
        <time>2016-01-10T08:58:43Z</time>
      </trkpt>
      <trkpt lat="45.938212908804417" lon="9.535067472606897">
        <ele>1722.3399999999999</ele>
        <time>2016-01-10T08:58:46Z</time>
      </trkpt>
      <trkpt lat="45.938226319849491" lon="9.53492489643395">
        <ele>1720.9000000000001</ele>
        <time>2016-01-10T08:58:56Z</time>
      </trkpt>
      <trkpt lat="45.938279964029789" lon="9.534751055762172">
        <ele>1720.4200000000001</ele>
        <time>2016-01-10T08:59:08Z</time>
      </trkpt>
      <trkpt lat="45.938309049233794" lon="9.534695567563176">
        <ele>1719.9400000000001</ele>
        <time>2016-01-10T08:59:12Z</time>
      </trkpt>
      <trkpt lat="45.938378283753991" lon="9.53460194170475">
        <ele>1719.46</ele>
        <time>2016-01-10T08:59:21Z</time>
      </trkpt>
      <trkpt lat="45.93845053575933" lon="9.534479482099414">
        <ele>1719.46</ele>
        <time>2016-01-10T08:59:31Z</time>
      </trkpt>
      <trkpt lat="45.938490852713585" lon="9.534425167366862">
        <ele>1719.46</ele>
        <time>2016-01-10T08:59:37Z</time>
      </trkpt>
      <trkpt lat="45.938510885462165" lon="9.534396668896079">
        <ele>1719.9400000000001</ele>
        <time>2016-01-10T08:59:40Z</time>
      </trkpt>
      <trkpt lat="45.938590345904231" lon="9.534285441040993">
        <ele>1720.4200000000001</ele>
        <time>2016-01-10T08:59:51Z</time>
      </trkpt>
      <trkpt lat="45.938643151894212" lon="9.534186953678727">
        <ele>1720.4200000000001</ele>
        <time>2016-01-10T09:00:00Z</time>
      </trkpt>
      <trkpt lat="45.9386489354074" lon="9.53417681157589">
        <ele>1720.9000000000001</ele>
        <time>2016-01-10T09:00:01Z</time>
      </trkpt>
      <trkpt lat="45.938677014783025" lon="9.534137332811952">
        <ele>1720.9000000000001</ele>
        <time>2016-01-10T09:00:05Z</time>
      </trkpt>
      <trkpt lat="45.938722947612405" lon="9.534041192382574">
        <ele>1720.9000000000001</ele>
        <time>2016-01-10T09:00:13Z</time>
      </trkpt>
      <trkpt lat="45.938771143555641" lon="9.533915547654033">
        <ele>1721.8599999999999</ele>
        <time>2016-01-10T09:00:24Z</time>
      </trkpt>
      <trkpt lat="45.938783464953303" lon="9.53378981910646">
        <ele>1722.3399999999999</ele>
        <time>2016-01-10T09:00:34Z</time>
      </trkpt>
      <trkpt lat="45.938771730288863" lon="9.533652439713478">
        <ele>1722.8199999999999</ele>
        <time>2016-01-10T09:00:44Z</time>
      </trkpt>
      <trkpt lat="45.93875790014863" lon="9.533520005643368">
        <ele>1723.3</ele>
        <time>2016-01-10T09:00:54Z</time>
      </trkpt>
      <trkpt lat="45.938755972310901" lon="9.533460913226008">
        <ele>1723.78</ele>
        <time>2016-01-10T09:00:58Z</time>
      </trkpt>
      <trkpt lat="45.938758486881852" lon="9.533429816365242">
        <ele>1723.78</ele>
        <time>2016-01-10T09:01:00Z</time>
      </trkpt>
      <trkpt lat="45.938754212111235" lon="9.533291682600975">
        <ele>1723.78</ele>
        <time>2016-01-10T09:01:09Z</time>
      </trkpt>
      <trkpt lat="45.938761755824089" lon="9.533144161105156">
        <ele>1724.26</ele>
        <time>2016-01-10T09:01:20Z</time>
      </trkpt>
      <trkpt lat="45.938779944553971" lon="9.533023126423359">
        <ele>1724.74</ele>
        <time>2016-01-10T09:01:29Z</time>
      </trkpt>
      <trkpt lat="45.938793439418077" lon="9.532942660152912">
        <ele>1724.74</ele>
        <time>2016-01-10T09:01:35Z</time>
      </trkpt>
      <trkpt lat="45.938840629532933" lon="9.532801508903503">
        <ele>1724.74</ele>
        <time>2016-01-10T09:01:45Z</time>
      </trkpt>
      <trkpt lat="45.938854124397039" lon="9.532779715955257">
        <ele>1724.74</ele>
        <time>2016-01-10T09:01:47Z</time>
      </trkpt>
      <trkpt lat="45.938917575404048" lon="9.53266647644341">
        <ele>1725.22</ele>
        <time>2016-01-10T09:01:57Z</time>
      </trkpt>
      <trkpt lat="45.938930902630091" lon="9.532643845304847">
        <ele>1725.22</ele>
        <time>2016-01-10T09:01:59Z</time>
      </trkpt>
      <trkpt lat="45.938985552638769" lon="9.532550554722548">
        <ele>1726.6700000000001</ele>
        <time>2016-01-10T09:02:09Z</time>
      </trkpt>
      <trkpt lat="45.938993012532592" lon="9.532533874735236">
        <ele>1726.6700000000001</ele>
        <time>2016-01-10T09:02:11Z</time>
      </trkpt>
      <trkpt lat="45.939010949805379" lon="9.532519625499845">
        <ele>1727.1500000000001</ele>
        <time>2016-01-10T09:02:13Z</time>
      </trkpt>
      <trkpt lat="45.939071467146277" lon="9.53246908262372">
        <ele>1727.6300000000001</ele>
        <time>2016-01-10T09:02:22Z</time>
      </trkpt>
      <trkpt lat="45.939170038327575" lon="9.53247151337564">
        <ele>1729.0699999999999</ele>
        <time>2016-01-10T09:02:33Z</time>
      </trkpt>
      <trkpt lat="45.939269699156284" lon="9.532515266910195">
        <ele>1730.03</ele>
        <time>2016-01-10T09:02:45Z</time>
      </trkpt>
      <trkpt lat="45.939367851242423" lon="9.532552817836404">
        <ele>1730.99</ele>
        <time>2016-01-10T09:02:56Z</time>
      </trkpt>
      <trkpt lat="45.939441611990333" lon="9.532566899433732">
        <ele>1731.47</ele>
        <time>2016-01-10T09:03:03Z</time>
      </trkpt>
      <trkpt lat="45.939493328332901" lon="9.532566228881478">
        <ele>1730.99</ele>
        <time>2016-01-10T09:03:08Z</time>
      </trkpt>
      <trkpt lat="45.939524509012699" lon="9.532561954110861">
        <ele>1730.99</ele>
        <time>2016-01-10T09:03:11Z</time>
      </trkpt>
      <trkpt lat="45.939564490690827" lon="9.532550135627389">
        <ele>1730.99</ele>
        <time>2016-01-10T09:03:16Z</time>
      </trkpt>
      <trkpt lat="45.93961444683373" lon="9.53254527412355">
        <ele>1730.99</ele>
        <time>2016-01-10T09:03:21Z</time>
      </trkpt>
      <trkpt lat="45.939728356897831" lon="9.532489450648427">
        <ele>1730.99</ele>
        <time>2016-01-10T09:03:33Z</time>
      </trkpt>
      <trkpt lat="45.939838914200664" lon="9.532379563897848">
        <ele>1729.0699999999999</ele>
        <time>2016-01-10T09:03:45Z</time>
      </trkpt>
      <trkpt lat="45.939886355772614" lon="9.53231418505311">
        <ele>1728.5899999999999</ele>
        <time>2016-01-10T09:03:50Z</time>
      </trkpt>
      <trkpt lat="45.939987441524863" lon="9.53215392306447">
        <ele>1726.1800000000001</ele>
        <time>2016-01-10T09:04:03Z</time>
      </trkpt>
      <trkpt lat="45.940078720450401" lon="9.53205325640738">
        <ele>1724.74</ele>
        <time>2016-01-10T09:04:13Z</time>
      </trkpt>
      <trkpt lat="45.940124485641718" lon="9.531882517039776">
        <ele>1723.3</ele>
        <time>2016-01-10T09:04:24Z</time>
      </trkpt>
      <trkpt lat="45.940156001597643" lon="9.531681770458818">
        <ele>1722.8199999999999</ele>
        <time>2016-01-10T09:04:38Z</time>
      </trkpt>
      <trkpt lat="45.940194642171264" lon="9.53151916153729">
        <ele>1722.3399999999999</ele>
        <time>2016-01-10T09:04:49Z</time>
      </trkpt>
      <trkpt lat="45.94023697078228" lon="9.531311206519604">
        <ele>1720.4200000000001</ele>
        <time>2016-01-10T09:05:03Z</time>
      </trkpt>
      <trkpt lat="45.940241161733866" lon="9.531153626739979">
        <ele>1719.9400000000001</ele>
        <time>2016-01-10T09:05:12Z</time>
      </trkpt>
      <trkpt lat="45.94028634019196" lon="9.530993783846498">
        <ele>1719.46</ele>
        <time>2016-01-10T09:05:22Z</time>
      </trkpt>
      <trkpt lat="45.940377367660403" lon="9.530886663123965">
        <ele>1718.97</ele>
        <time>2016-01-10T09:05:33Z</time>
      </trkpt>
      <trkpt lat="45.940413661301136" lon="9.530835449695587">
        <ele>1719.46</ele>
        <time>2016-01-10T09:05:41Z</time>
      </trkpt>
      <trkpt lat="45.940426317974925" lon="9.530798569321632">
        <ele>1720.4200000000001</ele>
        <time>2016-01-10T09:05:49Z</time>
      </trkpt>
      <trkpt lat="45.940452385693789" lon="9.530730172991753">
        <ele>1719.46</ele>
        <time>2016-01-10T09:05:58Z</time>
      </trkpt>
      <trkpt lat="45.940493708476424" lon="9.53063135035336">
        <ele>1719.46</ele>
        <time>2016-01-10T09:06:07Z</time>
      </trkpt>
      <trkpt lat="45.940512735396624" lon="9.530597319826484">
        <ele>1718.97</ele>
        <time>2016-01-10T09:06:10Z</time>
      </trkpt>
      <trkpt lat="45.940577946603298" lon="9.530545016750693">
        <ele>1719.46</ele>
        <time>2016-01-10T09:06:21Z</time>
      </trkpt>
      <trkpt lat="45.940631339326501" lon="9.530500257387757">
        <ele>1718.97</ele>
        <time>2016-01-10T09:06:28Z</time>
      </trkpt>
      <trkpt lat="45.940686827525496" lon="9.530408307909966">
        <ele>1718.97</ele>
        <time>2016-01-10T09:06:38Z</time>
      </trkpt>
      <trkpt lat="45.940747680142522" lon="9.530271934345365">
        <ele>1719.46</ele>
        <time>2016-01-10T09:06:50Z</time>
      </trkpt>
      <trkpt lat="45.940806940197945" lon="9.530147043988109">
        <ele>1718.97</ele>
        <time>2016-01-10T09:07:01Z</time>
      </trkpt>
      <trkpt lat="45.940889418125153" lon="9.530105218291283">
        <ele>1719.46</ele>
        <time>2016-01-10T09:07:12Z</time>
      </trkpt>
      <trkpt lat="45.94092202372849" lon="9.530090633779764">
        <ele>1719.9400000000001</ele>
        <time>2016-01-10T09:07:17Z</time>
      </trkpt>
      <trkpt lat="45.941003412008286" lon="9.530121395364404">
        <ele>1721.3800000000001</ele>
        <time>2016-01-10T09:07:28Z</time>
      </trkpt>
      <trkpt lat="45.941087650135159" lon="9.530159281566739">
        <ele>1722.3399999999999</ele>
        <time>2016-01-10T09:07:39Z</time>
      </trkpt>
      <trkpt lat="45.941150095313787" lon="9.530185014009476">
        <ele>1723.3</ele>
        <time>2016-01-10T09:07:48Z</time>
      </trkpt>
      <trkpt lat="45.941233411431313" lon="9.530209237709642">
        <ele>1724.26</ele>
        <time>2016-01-10T09:08:01Z</time>
      </trkpt>
      <trkpt lat="45.941341621801257" lon="9.530212422832847">
        <ele>1726.1800000000001</ele>
        <time>2016-01-10T09:08:16Z</time>
      </trkpt>
      <trkpt lat="45.941428542137146" lon="9.530205382034183">
        <ele>1727.6300000000001</ele>
        <time>2016-01-10T09:08:29Z</time>
      </trkpt>
      <trkpt lat="45.941500794142485" lon="9.530204627662897">
        <ele>1728.5899999999999</ele>
        <time>2016-01-10T09:08:41Z</time>
      </trkpt>
      <trkpt lat="45.941599868237972" lon="9.530196078121662">
        <ele>1730.03</ele>
        <time>2016-01-10T09:08:55Z</time>
      </trkpt>
      <trkpt lat="45.941680334508419" lon="9.530157186090946">
        <ele>1730.99</ele>
        <time>2016-01-10T09:09:05Z</time>
      </trkpt>
      <trkpt lat="45.941763231530786" lon="9.53014561906457">
        <ele>1732.4300000000001</ele>
        <time>2016-01-10T09:09:17Z</time>
      </trkpt>
      <trkpt lat="45.941840428858995" lon="9.530149223282933">
        <ele>1733.8800000000001</ele>
        <time>2016-01-10T09:09:29Z</time>
      </trkpt>
      <trkpt lat="45.941930450499058" lon="9.530149223282933">
        <ele>1735.8</ele>
        <time>2016-01-10T09:09:42Z</time>
      </trkpt>
      <trkpt lat="45.942028518766165" lon="9.530159616842866">
        <ele>1737.72</ele>
        <time>2016-01-10T09:09:56Z</time>
      </trkpt>
      <trkpt lat="45.94210647046566" lon="9.530149474740028">
        <ele>1739.1600000000001</ele>
        <time>2016-01-10T09:10:07Z</time>
      </trkpt>
      <trkpt lat="45.942186266183853" lon="9.530165400356054">
        <ele>1740.1199999999999</ele>
        <time>2016-01-10T09:10:18Z</time>
      </trkpt>
      <trkpt lat="45.942269498482347" lon="9.530194653198123">
        <ele>1742.05</ele>
        <time>2016-01-10T09:10:29Z</time>
      </trkpt>
      <trkpt lat="45.94235516153276" lon="9.530200269073248">
        <ele>1743.49</ele>
        <time>2016-01-10T09:10:39Z</time>
      </trkpt>
      <trkpt lat="45.942412158474326" lon="9.530236478894949">
        <ele>1743.49</ele>
        <time>2016-01-10T09:10:50Z</time>
      </trkpt>
      <trkpt lat="45.942434119060636" lon="9.530220050364733">
        <ele>1743.97</ele>
        <time>2016-01-10T09:11:00Z</time>
      </trkpt>
      <trkpt lat="45.942448955029249" lon="9.530221056193113">
        <ele>1743.97</ele>
        <time>2016-01-10T09:11:09Z</time>
      </trkpt>
      <trkpt lat="45.942523721605539" lon="9.530238658189774">
        <ele>1743.97</ele>
        <time>2016-01-10T09:11:20Z</time>
      </trkpt>
      <trkpt lat="45.94253989867866" lon="9.530241591855884">
        <ele>1743.97</ele>
        <time>2016-01-10T09:11:22Z</time>
      </trkpt>
      <trkpt lat="45.94268306158483" lon="9.530293727293611">
        <ele>1743.97</ele>
        <time>2016-01-10T09:11:37Z</time>
      </trkpt>
      <trkpt lat="45.942756906151772" lon="9.530309149995446">
        <ele>1744.45</ele>
        <time>2016-01-10T09:11:46Z</time>
      </trkpt>
      <trkpt lat="45.942831672728062" lon="9.530325243249536">
        <ele>1745.8900000000001</ele>
        <time>2016-01-10T09:11:53Z</time>
      </trkpt>
      <trkpt lat="45.94296352006495" lon="9.53040948137641">
        <ele>1743.97</ele>
        <time>2016-01-10T09:12:06Z</time>
      </trkpt>
      <trkpt lat="45.943044740706682" lon="9.53049304895103">
        <ele>1744.45</ele>
        <time>2016-01-10T09:12:17Z</time>
      </trkpt>
      <trkpt lat="45.943055301904678" lon="9.530510818585753">
        <ele>1744.45</ele>
        <time>2016-01-10T09:12:26Z</time>
      </trkpt>
      <trkpt lat="45.943058738484979" lon="9.530491624027491">
        <ele>1744.45</ele>
        <time>2016-01-10T09:12:41Z</time>
      </trkpt>
      <trkpt lat="45.943050356581807" lon="9.530505454167724">
        <ele>1743.97</ele>
        <time>2016-01-10T09:12:54Z</time>
      </trkpt>
      <trkpt lat="45.943053206428885" lon="9.530525822192431">
        <ele>1743.97</ele>
        <time>2016-01-10T09:13:07Z</time>
      </trkpt>
      <trkpt lat="45.943053793162107" lon="9.530520457774401">
        <ele>1743.49</ele>
        <time>2016-01-10T09:13:19Z</time>
      </trkpt>
      <trkpt lat="45.943055050447583" lon="9.530521044507623">
        <ele>1743.97</ele>
        <time>2016-01-10T09:13:39Z</time>
      </trkpt>
      <trkpt lat="45.943044740706682" lon="9.530499167740345">
        <ele>1743.97</ele>
        <time>2016-01-10T09:13:57Z</time>
      </trkpt>
      <trkpt lat="45.943041555583477" lon="9.530503442510963">
        <ele>1743.97</ele>
        <time>2016-01-10T09:14:11Z</time>
      </trkpt>
      <trkpt lat="45.943043064326048" lon="9.530491288751364">
        <ele>1743.97</ele>
        <time>2016-01-10T09:14:22Z</time>
      </trkpt>
      <trkpt lat="45.94304951839149" lon="9.53051115386188">
        <ele>1743.49</ele>
        <time>2016-01-10T09:14:36Z</time>
      </trkpt>
      <trkpt lat="45.943052619695663" lon="9.530508304014802">
        <ele>1743.49</ele>
        <time>2016-01-10T09:14:49Z</time>
      </trkpt>
      <trkpt lat="45.94306418672204" lon="9.530508639290929">
        <ele>1743.49</ele>
        <time>2016-01-10T09:15:04Z</time>
      </trkpt>
      <trkpt lat="45.943052284419537" lon="9.530514003708959">
        <ele>1743.49</ele>
        <time>2016-01-10T09:15:17Z</time>
      </trkpt>
      <trkpt lat="45.943048931658268" lon="9.530483828857541">
        <ele>1743.49</ele>
        <time>2016-01-10T09:15:28Z</time>
      </trkpt>
      <trkpt lat="45.943054715171456" lon="9.53051551245153">
        <ele>1743.49</ele>
        <time>2016-01-10T09:15:38Z</time>
      </trkpt>
      <trkpt lat="45.943059744313359" lon="9.530513836070895">
        <ele>1743.49</ele>
        <time>2016-01-10T09:15:51Z</time>
      </trkpt>
      <trkpt lat="45.943061923608184" lon="9.530519871041179">
        <ele>1743.49</ele>
        <time>2016-01-10T09:16:03Z</time>
      </trkpt>
      <trkpt lat="45.943065024912357" lon="9.530518194660544">
        <ele>1743.49</ele>
        <time>2016-01-10T09:16:18Z</time>
      </trkpt>
      <trkpt lat="45.943089416250587" lon="9.530487684533">
        <ele>1743.97</ele>
        <time>2016-01-10T09:16:28Z</time>
      </trkpt>
      <trkpt lat="45.943095702677965" lon="9.530491288751364">
        <ele>1743.97</ele>
        <time>2016-01-10T09:16:38Z</time>
      </trkpt>
      <trkpt lat="45.943122021853924" lon="9.530481565743685">
        <ele>1743.49</ele>
        <time>2016-01-10T09:16:47Z</time>
      </trkpt>
      <trkpt lat="45.943215815350413" lon="9.53044812195003">
        <ele>1743.97</ele>
        <time>2016-01-10T09:16:59Z</time>
      </trkpt>
      <trkpt lat="45.943251354619861" lon="9.530429095029831">
        <ele>1743.97</ele>
        <time>2016-01-10T09:17:04Z</time>
      </trkpt>
      <trkpt lat="45.943305753171444" lon="9.530408224090934">
        <ele>1744.45</ele>
        <time>2016-01-10T09:17:15Z</time>
      </trkpt>
      <trkpt lat="45.943320337682962" lon="9.530423311516643">
        <ele>1744.45</ele>
        <time>2016-01-10T09:17:26Z</time>
      </trkpt>
      <trkpt lat="45.943326959386468" lon="9.530454659834504">
        <ele>1744.45</ele>
        <time>2016-01-10T09:17:34Z</time>
      </trkpt>
      <trkpt lat="45.943319667130709" lon="9.53046714887023">
        <ele>1744.45</ele>
        <time>2016-01-10T09:17:45Z</time>
      </trkpt>
      <trkpt lat="45.94333291053772" lon="9.530452229082584">
        <ele>1744.45</ele>
        <time>2016-01-10T09:17:52Z</time>
      </trkpt>
      <trkpt lat="45.943331485614181" lon="9.53042515553534">
        <ele>1744.45</ele>
        <time>2016-01-10T09:17:54Z</time>
      </trkpt>
      <trkpt lat="45.943397115916014" lon="9.530288530513644">
        <ele>1745.4100000000001</ele>
        <time>2016-01-10T09:18:01Z</time>
      </trkpt>
      <trkpt lat="45.943410778418183" lon="9.530270760878921">
        <ele>1745.4100000000001</ele>
        <time>2016-01-10T09:18:02Z</time>
      </trkpt>
      <trkpt lat="45.943418154492974" lon="9.530254919081926">
        <ele>1745.4100000000001</ele>
        <time>2016-01-10T09:18:03Z</time>
      </trkpt>
      <trkpt lat="45.943430727347732" lon="9.530209489166737">
        <ele>1745.4100000000001</ele>
        <time>2016-01-10T09:18:06Z</time>
      </trkpt>
      <trkpt lat="45.943432152271271" lon="9.53019448556006">
        <ele>1745.8900000000001</ele>
        <time>2016-01-10T09:18:07Z</time>
      </trkpt>
      <trkpt lat="45.943430894985795" lon="9.530183924362063">
        <ele>1745.8900000000001</ele>
        <time>2016-01-10T09:18:08Z</time>
      </trkpt>
      <trkpt lat="45.943444054573774" lon="9.530063141137362">
        <ele>1745.8900000000001</ele>
        <time>2016-01-10T09:18:18Z</time>
      </trkpt>
      <trkpt lat="45.943447658792138" lon="9.529917296022177">
        <ele>1746.8499999999999</ele>
        <time>2016-01-10T09:18:30Z</time>
      </trkpt>
      <trkpt lat="45.943492082878947" lon="9.529805313795805">
        <ele>1747.3299999999999</ele>
        <time>2016-01-10T09:18:42Z</time>
      </trkpt>
      <trkpt lat="45.94354597851634" lon="9.529737085103989">
        <ele>1747.8099999999999</ele>
        <time>2016-01-10T09:18:53Z</time>
      </trkpt>
      <trkpt lat="45.943555952981114" lon="9.529718980193138">
        <ele>1747.8099999999999</ele>
        <time>2016-01-10T09:18:55Z</time>
      </trkpt>
      <trkpt lat="45.943653769791126" lon="9.529635328799486">
        <ele>1747.8099999999999</ele>
        <time>2016-01-10T09:19:07Z</time>
      </trkpt>
      <trkpt lat="45.94372820109129" lon="9.52952653169632">
        <ele>1747.3299999999999</ele>
        <time>2016-01-10T09:19:19Z</time>
      </trkpt>
      <trkpt lat="45.943767847493291" lon="9.529417064040899">
        <ele>1747.8099999999999</ele>
        <time>2016-01-10T09:19:29Z</time>
      </trkpt>
      <trkpt lat="45.943795591592789" lon="9.5293013099581">
        <ele>1748.78</ele>
        <time>2016-01-10T09:19:40Z</time>
      </trkpt>
      <trkpt lat="45.943832052871585" lon="9.529203409329057">
        <ele>1749.26</ele>
        <time>2016-01-10T09:19:50Z</time>
      </trkpt>
      <trkpt lat="45.943862143903971" lon="9.529106682166457">
        <ele>1750.22</ele>
        <time>2016-01-10T09:20:02Z</time>
      </trkpt>
      <trkpt lat="45.943890223279595" lon="9.529009619727731">
        <ele>1751.6600000000001</ele>
        <time>2016-01-10T09:20:12Z</time>
      </trkpt>
      <trkpt lat="45.943913524970412" lon="9.528915574774146">
        <ele>1752.6199999999999</ele>
        <time>2016-01-10T09:20:22Z</time>
      </trkpt>
      <trkpt lat="45.943924421444535" lon="9.528835276141763">
        <ele>1753.5799999999999</ele>
        <time>2016-01-10T09:20:32Z</time>
      </trkpt>
      <trkpt lat="45.943925343453884" lon="9.5288195181638">
        <ele>1754.0599999999999</ele>
        <time>2016-01-10T09:20:33Z</time>
      </trkpt>
      <trkpt lat="45.943922912701964" lon="9.528806190937758">
        <ele>1754.0599999999999</ele>
        <time>2016-01-10T09:20:34Z</time>
      </trkpt>
      <trkpt lat="45.943875219672918" lon="9.528683815151453">
        <ele>1754.0599999999999</ele>
        <time>2016-01-10T09:20:45Z</time>
      </trkpt>
      <trkpt lat="45.943841440603137" lon="9.528591614216566">
        <ele>1755.5</ele>
        <time>2016-01-10T09:20:55Z</time>
      </trkpt>
      <trkpt lat="45.94384009949863" lon="9.528495641425252">
        <ele>1756.47</ele>
        <time>2016-01-10T09:21:05Z</time>
      </trkpt>
      <trkpt lat="45.943890390917659" lon="9.528453480452299">
        <ele>1757.4300000000001</ele>
        <time>2016-01-10T09:21:14Z</time>
      </trkpt>
      <trkpt lat="45.9439935721457" lon="9.528405787423253">
        <ele>1758.3900000000001</ele>
        <time>2016-01-10T09:21:27Z</time>
      </trkpt>
      <trkpt lat="45.944067165255547" lon="9.528396315872669">
        <ele>1759.8299999999999</ele>
        <time>2016-01-10T09:21:38Z</time>
      </trkpt>
      <trkpt lat="45.944121312350035" lon="9.528402099385858">
        <ele>1760.3099999999999</ele>
        <time>2016-01-10T09:21:52Z</time>
      </trkpt>
      <trkpt lat="45.944201108068228" lon="9.528432190418243">
        <ele>1761.75</ele>
        <time>2016-01-10T09:22:04Z</time>
      </trkpt>
      <trkpt lat="45.944271683692932" lon="9.52845155261457">
        <ele>1762.23</ele>
        <time>2016-01-10T09:22:15Z</time>
      </trkpt>
      <trkpt lat="45.94429942779243" lon="9.52844568528235">
        <ele>1762.23</ele>
        <time>2016-01-10T09:22:18Z</time>
      </trkpt>
      <trkpt lat="45.944309988990426" lon="9.52844669111073">
        <ele>1762.23</ele>
        <time>2016-01-10T09:22:19Z</time>
      </trkpt>
      <trkpt lat="45.944401351734996" lon="9.52847208827734">
        <ele>1762.71</ele>
        <time>2016-01-10T09:22:28Z</time>
      </trkpt>
      <trkpt lat="45.944499084725976" lon="9.528528414666653">
        <ele>1762.71</ele>
        <time>2016-01-10T09:22:39Z</time>
      </trkpt>
      <trkpt lat="45.944609390571713" lon="9.528553979471326">
        <ele>1763.6800000000001</ele>
        <time>2016-01-10T09:22:51Z</time>
      </trkpt>
      <trkpt lat="45.94471575692296" lon="9.528575940057635">
        <ele>1764.1600000000001</ele>
        <time>2016-01-10T09:23:02Z</time>
      </trkpt>
      <trkpt lat="45.944807371124625" lon="9.528583819046617">
        <ele>1765.5999999999999</ele>
        <time>2016-01-10T09:23:13Z</time>
      </trkpt>
      <trkpt lat="45.944909797981381" lon="9.52858105301857">
        <ele>1767.04</ele>
        <time>2016-01-10T09:23:25Z</time>
      </trkpt>
      <trkpt lat="45.944998478516936" lon="9.528569150716066">
        <ele>1768.48</ele>
        <time>2016-01-10T09:23:36Z</time>
      </trkpt>
      <trkpt lat="45.945076178759336" lon="9.528553644195199">
        <ele>1769.9200000000001</ele>
        <time>2016-01-10T09:23:45Z</time>
      </trkpt>
      <trkpt lat="45.945188412442803" lon="9.528533527627587">
        <ele>1770.4100000000001</ele>
        <time>2016-01-10T09:23:57Z</time>
      </trkpt>
      <trkpt lat="45.945292683318257" lon="9.528524307534099">
        <ele>1770.8900000000001</ele>
        <time>2016-01-10T09:24:08Z</time>
      </trkpt>
      <trkpt lat="45.945385387167335" lon="9.528525145724416">
        <ele>1772.3299999999999</ele>
        <time>2016-01-10T09:24:19Z</time>
      </trkpt>
      <trkpt lat="45.945485383272171" lon="9.528486672788858">
        <ele>1773.77</ele>
        <time>2016-01-10T09:24:30Z</time>
      </trkpt>
      <trkpt lat="45.945527711883187" lon="9.528451217338443">
        <ele>1773.77</ele>
        <time>2016-01-10T09:24:36Z</time>
      </trkpt>
      <trkpt lat="45.945536093786359" lon="9.528443003073335">
        <ele>1773.77</ele>
        <time>2016-01-10T09:24:37Z</time>
      </trkpt>
      <trkpt lat="45.945630222558975" lon="9.528465298935771">
        <ele>1774.25</ele>
        <time>2016-01-10T09:24:48Z</time>
      </trkpt>
      <trkpt lat="45.945659475401044" lon="9.528549117967486">
        <ele>1774.73</ele>
        <time>2016-01-10T09:24:59Z</time>
      </trkpt>
      <trkpt lat="45.945665342733264" lon="9.528637630864978">
        <ele>1775.21</ele>
        <time>2016-01-10T09:25:15Z</time>
      </trkpt>
      <trkpt lat="45.94567053951323" lon="9.528788337484002">
        <ele>1777.1300000000001</ele>
        <time>2016-01-10T09:25:28Z</time>
      </trkpt>
      <trkpt lat="45.94566467218101" lon="9.528799653053284">
        <ele>1777.1300000000001</ele>
        <time>2016-01-10T09:25:34Z</time>
      </trkpt>
      <trkpt lat="45.945740025490522" lon="9.528848016634584">
        <ele>1778.0999999999999</ele>
        <time>2016-01-10T09:25:43Z</time>
      </trkpt>
      <trkpt lat="45.945768775418401" lon="9.528874838724732">
        <ele>1778.0999999999999</ele>
        <time>2016-01-10T09:25:46Z</time>
      </trkpt>
      <trkpt lat="45.945804566144943" lon="9.528921190649271">
        <ele>1778.5799999999999</ele>
        <time>2016-01-10T09:25:51Z</time>
      </trkpt>
      <trkpt lat="45.94592266716063" lon="9.529029317200184">
        <ele>1778.5799999999999</ele>
        <time>2016-01-10T09:26:04Z</time>
      </trkpt>
      <trkpt lat="45.946031967177987" lon="9.529087487608194">
        <ele>1780.02</ele>
        <time>2016-01-10T09:26:17Z</time>
      </trkpt>
      <trkpt lat="45.946128275245428" lon="9.52909461222589">
        <ele>1780.5</ele>
        <time>2016-01-10T09:26:29Z</time>
      </trkpt>
      <trkpt lat="45.946266325190663" lon="9.529076674953103">
        <ele>1780.02</ele>
        <time>2016-01-10T09:26:43Z</time>
      </trkpt>
      <trkpt lat="45.946397837251425" lon="9.529073825106025">
        <ele>1779.54</ele>
        <time>2016-01-10T09:26:55Z</time>
      </trkpt>
      <trkpt lat="45.946552148088813" lon="9.529087236151099">
        <ele>1778.0999999999999</ele>
        <time>2016-01-10T09:27:09Z</time>
      </trkpt>
      <trkpt lat="45.946695310994983" lon="9.529074160382152">
        <ele>1778.0999999999999</ele>
        <time>2016-01-10T09:27:23Z</time>
      </trkpt>
      <trkpt lat="45.946797905489802" lon="9.529044153168798">
        <ele>1778.5799999999999</ele>
        <time>2016-01-10T09:27:35Z</time>
      </trkpt>
      <trkpt lat="45.946807209402323" lon="9.529042057693005">
        <ele>1778.5799999999999</ele>
        <time>2016-01-10T09:27:36Z</time>
      </trkpt>
      <trkpt lat="45.946941068395972" lon="9.529042392969132">
        <ele>1778.5799999999999</ele>
        <time>2016-01-10T09:27:50Z</time>
      </trkpt>
      <trkpt lat="45.94704651273787" lon="9.529026718810201">
        <ele>1778.5799999999999</ele>
        <time>2016-01-10T09:28:02Z</time>
      </trkpt>
      <trkpt lat="45.947105102241039" lon="9.529066616669297">
        <ele>1779.0599999999999</ele>
        <time>2016-01-10T09:28:13Z</time>
      </trkpt>
      <trkpt lat="45.947119938209653" lon="9.529086649417877">
        <ele>1779.54</ele>
        <time>2016-01-10T09:28:24Z</time>
      </trkpt>
      <trkpt lat="45.947114741429687" lon="9.529082793742418">
        <ele>1779.54</ele>
        <time>2016-01-10T09:28:33Z</time>
      </trkpt>
      <trkpt lat="45.947137791663408" lon="9.529142472893">
        <ele>1780.02</ele>
        <time>2016-01-10T09:28:38Z</time>
      </trkpt>
      <trkpt lat="45.947151370346546" lon="9.529210282489657">
        <ele>1781.9400000000001</ele>
        <time>2016-01-10T09:28:49Z</time>
      </trkpt>
      <trkpt lat="45.947140892967582" lon="9.529186058789492">
        <ele>1781.9400000000001</ele>
        <time>2016-01-10T09:29:01Z</time>
      </trkpt>
      <trkpt lat="45.947177102789283" lon="9.529160158708692">
        <ele>1780.5</ele>
        <time>2016-01-10T09:29:11Z</time>
      </trkpt>
      <trkpt lat="45.947218593209982" lon="9.529203325510025">
        <ele>1780.98</ele>
        <time>2016-01-10T09:29:21Z</time>
      </trkpt>
      <trkpt lat="45.94726637005806" lon="9.529213467612863">
        <ele>1781.9400000000001</ele>
        <time>2016-01-10T09:29:32Z</time>
      </trkpt>
      <trkpt lat="45.947283050045371" lon="9.529220843687654">
        <ele>1781.9400000000001</ele>
        <time>2016-01-10T09:29:44Z</time>
      </trkpt>
      <trkpt lat="45.947351362556219" lon="9.52925487421453">
        <ele>1783.3800000000001</ele>
        <time>2016-01-10T09:29:54Z</time>
      </trkpt>
      <trkpt lat="45.947374077513814" lon="9.529312122613192">
        <ele>1784.3399999999999</ele>
        <time>2016-01-10T09:30:04Z</time>
      </trkpt>
      <trkpt lat="45.947373574599624" lon="9.529381021857262">
        <ele>1785.3099999999999</ele>
        <time>2016-01-10T09:30:13Z</time>
      </trkpt>
      <trkpt lat="45.947397463023663" lon="9.529456458985806">
        <ele>1786.75</ele>
        <time>2016-01-10T09:30:25Z</time>
      </trkpt>
      <trkpt lat="45.947381788864732" lon="9.529506331309676">
        <ele>1788.1900000000001</ele>
        <time>2016-01-10T09:30:36Z</time>
      </trkpt>
      <trkpt lat="45.947377094998956" lon="9.529578750953078">
        <ele>1789.1500000000001</ele>
        <time>2016-01-10T09:30:45Z</time>
      </trkpt>
      <trkpt lat="45.947374999523163" lon="9.529642118141055">
        <ele>1790.5899999999999</ele>
        <time>2016-01-10T09:30:54Z</time>
      </trkpt>
      <trkpt lat="45.947370221838355" lon="9.529701210558415">
        <ele>1792.03</ele>
        <time>2016-01-10T09:31:03Z</time>
      </trkpt>
      <trkpt lat="45.947376256808639" lon="9.529823586344719">
        <ele>1793</ele>
        <time>2016-01-10T09:31:15Z</time>
      </trkpt>
      <trkpt lat="45.947373658418655" lon="9.529922241345048">
        <ele>1794.4400000000001</ele>
        <time>2016-01-10T09:31:26Z</time>
      </trkpt>
      <trkpt lat="45.947351194918156" lon="9.530009916052222">
        <ele>1795.8800000000001</ele>
        <time>2016-01-10T09:31:37Z</time>
      </trkpt>
      <trkpt lat="45.947306351736188" lon="9.530066158622503">
        <ele>1797.3199999999999</ele>
        <time>2016-01-10T09:31:47Z</time>
      </trkpt>
      <trkpt lat="45.947279781103134" lon="9.530159700661898">
        <ele>1799.73</ele>
        <time>2016-01-10T09:32:00Z</time>
      </trkpt>
      <trkpt lat="45.947285145521164" lon="9.530243184417486">
        <ele>1801.1700000000001</ele>
        <time>2016-01-10T09:32:11Z</time>
      </trkpt>
      <trkpt lat="45.947267627343535" lon="9.53027511946857">
        <ele>1802.1300000000001</ele>
        <time>2016-01-10T09:32:18Z</time>
      </trkpt>
      <trkpt lat="45.947270225733519" lon="9.530359106138349">
        <ele>1802.1300000000001</ele>
        <time>2016-01-10T09:32:28Z</time>
      </trkpt>
      <trkpt lat="45.947276093065739" lon="9.530367655679584">
        <ele>1804.05</ele>
        <time>2016-01-10T09:32:31Z</time>
      </trkpt>
      <trkpt lat="45.947279529646039" lon="9.530440494418144">
        <ele>1805.49</ele>
        <time>2016-01-10T09:32:40Z</time>
      </trkpt>
      <trkpt lat="45.947265867143869" lon="9.53052531927824">
        <ele>1807.4200000000001</ele>
        <time>2016-01-10T09:32:50Z</time>
      </trkpt>
      <trkpt lat="45.947244325652719" lon="9.530589273199439">
        <ele>1809.3399999999999</ele>
        <time>2016-01-10T09:33:02Z</time>
      </trkpt>
      <trkpt lat="45.947234351187944" lon="9.530658507719636">
        <ele>1810.78</ele>
        <time>2016-01-10T09:33:12Z</time>
      </trkpt>
      <trkpt lat="45.947246924042702" lon="9.530736710876226">
        <ele>1811.74</ele>
        <time>2016-01-10T09:33:22Z</time>
      </trkpt>
      <trkpt lat="45.947239967063069" lon="9.530842155218124">
        <ele>1813.1800000000001</ele>
        <time>2016-01-10T09:33:34Z</time>
      </trkpt>
      <trkpt lat="45.947250779718161" lon="9.530942235141993">
        <ele>1814.6300000000001</ele>
        <time>2016-01-10T09:33:47Z</time>
      </trkpt>
      <trkpt lat="45.947245163843036" lon="9.531036615371704">
        <ele>1816.55</ele>
        <time>2016-01-10T09:33:59Z</time>
      </trkpt>
      <trkpt lat="45.947213564068079" lon="9.531111633405089">
        <ele>1817.51</ele>
        <time>2016-01-10T09:34:09Z</time>
      </trkpt>
      <trkpt lat="45.947192693129182" lon="9.53118103556335">
        <ele>1818.95</ele>
        <time>2016-01-10T09:34:20Z</time>
      </trkpt>
      <trkpt lat="45.94720970839262" lon="9.531242391094565">
        <ele>1820.8699999999999</ele>
        <time>2016-01-10T09:34:30Z</time>
      </trkpt>
      <trkpt lat="45.947216833010316" lon="9.531326713040471">
        <ele>1822.3199999999999</ele>
        <time>2016-01-10T09:34:40Z</time>
      </trkpt>
      <trkpt lat="45.947205601260066" lon="9.531389996409416">
        <ele>1823.28</ele>
        <time>2016-01-10T09:34:48Z</time>
      </trkpt>
      <trkpt lat="45.947168720886111" lon="9.531457806006074">
        <ele>1824.72</ele>
        <time>2016-01-10T09:34:57Z</time>
      </trkpt>
      <trkpt lat="45.947169978171587" lon="9.531557131558657">
        <ele>1826.1600000000001</ele>
        <time>2016-01-10T09:35:08Z</time>
      </trkpt>
      <trkpt lat="45.947185568511486" lon="9.531684033572674">
        <ele>1826.6400000000001</ele>
        <time>2016-01-10T09:35:19Z</time>
      </trkpt>
      <trkpt lat="45.94718967564404" lon="9.531811522319913">
        <ele>1825.2</ele>
        <time>2016-01-10T09:35:30Z</time>
      </trkpt>
      <trkpt lat="45.947199566289783" lon="9.531915625557303">
        <ele>1824.72</ele>
        <time>2016-01-10T09:35:40Z</time>
      </trkpt>
      <trkpt lat="45.947196213528514" lon="9.531939849257469">
        <ele>1824.24</ele>
        <time>2016-01-10T09:35:42Z</time>
      </trkpt>
      <trkpt lat="45.947191854938865" lon="9.531950913369656">
        <ele>1824.24</ele>
        <time>2016-01-10T09:35:43Z</time>
      </trkpt>
      <trkpt lat="45.947168804705143" lon="9.532107068225741">
        <ele>1822.8</ele>
        <time>2016-01-10T09:35:53Z</time>
      </trkpt>
      <trkpt lat="45.947193028405309" lon="9.532273784279823">
        <ele>1821.8399999999999</ele>
        <time>2016-01-10T09:36:04Z</time>
      </trkpt>
      <trkpt lat="45.947202080860734" lon="9.532310497015715">
        <ele>1820.3900000000001</ele>
        <time>2016-01-10T09:36:07Z</time>
      </trkpt>
      <trkpt lat="45.947248684242368" lon="9.532487774267793">
        <ele>1818.95</ele>
        <time>2016-01-10T09:36:19Z</time>
      </trkpt>
      <trkpt lat="45.947294784709811" lon="9.532637307420373">
        <ele>1818.47</ele>
        <time>2016-01-10T09:36:30Z</time>
      </trkpt>
      <trkpt lat="45.94731330871582" lon="9.532800754532218">
        <ele>1818.95</ele>
        <time>2016-01-10T09:36:41Z</time>
      </trkpt>
      <trkpt lat="45.947310710325837" lon="9.532929416745901">
        <ele>1819.4300000000001</ele>
        <time>2016-01-10T09:36:52Z</time>
      </trkpt>
      <trkpt lat="45.947301657870412" lon="9.532958334311843">
        <ele>1819.4300000000001</ele>
        <time>2016-01-10T09:37:00Z</time>
      </trkpt>
      <trkpt lat="45.947321020066738" lon="9.533057659864426">
        <ele>1818.95</ele>
        <time>2016-01-10T09:37:15Z</time>
      </trkpt>
      <trkpt lat="45.947295287624002" lon="9.533227393403649">
        <ele>1818.95</ele>
        <time>2016-01-10T09:37:27Z</time>
      </trkpt>
      <trkpt lat="45.94731817021966" lon="9.533368041738868">
        <ele>1819.9100000000001</ele>
        <time>2016-01-10T09:37:39Z</time>
      </trkpt>
      <trkpt lat="45.947346920147538" lon="9.53349712304771">
        <ele>1820.3900000000001</ele>
        <time>2016-01-10T09:37:49Z</time>
      </trkpt>
      <trkpt lat="45.947364689782262" lon="9.533606003969908">
        <ele>1819.9100000000001</ele>
        <time>2016-01-10T09:37:57Z</time>
      </trkpt>
      <trkpt lat="45.947365779429674" lon="9.533634586259723">
        <ele>1819.9100000000001</ele>
        <time>2016-01-10T09:37:59Z</time>
      </trkpt>
      <trkpt lat="45.947433086112142" lon="9.533789400011301">
        <ele>1819.4300000000001</ele>
        <time>2016-01-10T09:38:11Z</time>
      </trkpt>
      <trkpt lat="45.94745890237391" lon="9.533925605937839">
        <ele>1820.8699999999999</ele>
        <time>2016-01-10T09:38:23Z</time>
      </trkpt>
      <trkpt lat="45.947449514642358" lon="9.534050244837999">
        <ele>1821.3499999999999</ele>
        <time>2016-01-10T09:38:34Z</time>
      </trkpt>
      <trkpt lat="45.947477510198951" lon="9.53413674607873">
        <ele>1822.8</ele>
        <time>2016-01-10T09:38:45Z</time>
      </trkpt>
      <trkpt lat="45.947491424158216" lon="9.534257277846336">
        <ele>1824.24</ele>
        <time>2016-01-10T09:38:57Z</time>
      </trkpt>
      <trkpt lat="45.947502488270402" lon="9.53434101305902">
        <ele>1825.6800000000001</ele>
        <time>2016-01-10T09:39:07Z</time>
      </trkpt>
      <trkpt lat="45.947524448856711" lon="9.534445619210601">
        <ele>1827.1199999999999</ele>
        <time>2016-01-10T09:39:20Z</time>
      </trkpt>
      <trkpt lat="45.94753123819828" lon="9.534556427970529">
        <ele>1829.05</ele>
        <time>2016-01-10T09:39:32Z</time>
      </trkpt>
      <trkpt lat="45.947543056681752" lon="9.534664554521442">
        <ele>1830.49</ele>
        <time>2016-01-10T09:39:45Z</time>
      </trkpt>
      <trkpt lat="45.947560407221317" lon="9.534723898395896">
        <ele>1831.9300000000001</ele>
        <time>2016-01-10T09:39:57Z</time>
      </trkpt>
      <trkpt lat="45.94755906611681" lon="9.534732196480036">
        <ele>1833.8499999999999</ele>
        <time>2016-01-10T09:40:06Z</time>
      </trkpt>
      <trkpt lat="45.947560155764222" lon="9.534726329147816">
        <ele>1833.8499999999999</ele>
        <time>2016-01-10T09:40:07Z</time>
      </trkpt>
      <trkpt lat="45.947559317573905" lon="9.53473093919456">
        <ele>1832.4100000000001</ele>
        <time>2016-01-10T09:40:15Z</time>
      </trkpt>
      <trkpt lat="45.947562335059047" lon="9.534736555069685">
        <ele>1831.9300000000001</ele>
        <time>2016-01-10T09:40:28Z</time>
      </trkpt>
      <trkpt lat="45.947554623708129" lon="9.534747786819935">
        <ele>1831.9300000000001</ele>
        <time>2016-01-10T09:40:41Z</time>
      </trkpt>
      <trkpt lat="45.947551857680082" lon="9.534749882295728">
        <ele>1831.9300000000001</ele>
        <time>2016-01-10T09:40:59Z</time>
      </trkpt>
      <trkpt lat="45.947548840194941" lon="9.53475876711309">
        <ele>1832.4100000000001</ele>
        <time>2016-01-10T09:41:15Z</time>
      </trkpt>
      <trkpt lat="45.947560574859381" lon="9.534755498170853">
        <ele>1832.4100000000001</ele>
        <time>2016-01-10T09:41:27Z</time>
      </trkpt>
      <trkpt lat="45.947566777467728" lon="9.53476463444531">
        <ele>1832.4100000000001</ele>
        <time>2016-01-10T09:41:44Z</time>
      </trkpt>
      <trkpt lat="45.947554958984256" lon="9.534750804305077">
        <ele>1832.8900000000001</ele>
        <time>2016-01-10T09:41:55Z</time>
      </trkpt>
      <trkpt lat="45.947546912357211" lon="9.534751726314426">
        <ele>1832.8900000000001</ele>
        <time>2016-01-10T09:42:08Z</time>
      </trkpt>
      <trkpt lat="45.947549343109131" lon="9.534742925316095">
        <ele>1832.8900000000001</ele>
        <time>2016-01-10T09:42:21Z</time>
      </trkpt>
      <trkpt lat="45.947556216269732" lon="9.534707637503743">
        <ele>1832.4100000000001</ele>
        <time>2016-01-10T09:42:35Z</time>
      </trkpt>
      <trkpt lat="45.947567531839013" lon="9.534710822626948">
        <ele>1832.8900000000001</ele>
        <time>2016-01-10T09:42:52Z</time>
      </trkpt>
      <trkpt lat="45.94756493344903" lon="9.534719288349152">
        <ele>1832.8900000000001</ele>
        <time>2016-01-10T09:43:18Z</time>
      </trkpt>
      <trkpt lat="45.947546828538179" lon="9.534735716879368">
        <ele>1832.4100000000001</ele>
        <time>2016-01-10T09:43:30Z</time>
      </trkpt>
      <trkpt lat="45.94754297286272" lon="9.534733956679702">
        <ele>1832.4100000000001</ele>
        <time>2016-01-10T09:43:45Z</time>
      </trkpt>
      <trkpt lat="45.947544816881418" lon="9.53475046902895">
        <ele>1831.9300000000001</ele>
        <time>2016-01-10T09:43:58Z</time>
      </trkpt>
      <trkpt lat="45.947546157985926" lon="9.534735968336463">
        <ele>1832.4100000000001</ele>
        <time>2016-01-10T09:44:10Z</time>
      </trkpt>
      <trkpt lat="45.947550684213638" lon="9.534749547019601">
        <ele>1831.9300000000001</ele>
        <time>2016-01-10T09:44:23Z</time>
      </trkpt>
      <trkpt lat="45.947604076936841" lon="9.534813584759831">
        <ele>1833.3699999999999</ele>
        <time>2016-01-10T09:44:35Z</time>
      </trkpt>
      <trkpt lat="45.947634754702449" lon="9.534883825108409">
        <ele>1835.29</ele>
        <time>2016-01-10T09:44:45Z</time>
      </trkpt>
      <trkpt lat="45.947662414982915" lon="9.534942414611578">
        <ele>1836.26</ele>
        <time>2016-01-10T09:44:55Z</time>
      </trkpt>
      <trkpt lat="45.947705246508121" lon="9.535005781799555">
        <ele>1837.7</ele>
        <time>2016-01-10T09:45:04Z</time>
      </trkpt>
      <trkpt lat="45.947724021971226" lon="9.53510276041925">
        <ele>1838.6600000000001</ele>
        <time>2016-01-10T09:45:13Z</time>
      </trkpt>
      <trkpt lat="45.947686219587922" lon="9.535183645784855">
        <ele>1839.6199999999999</ele>
        <time>2016-01-10T09:45:24Z</time>
      </trkpt>
      <trkpt lat="45.947658726945519" lon="9.53526645898819">
        <ele>1840.5799999999999</ele>
        <time>2016-01-10T09:45:34Z</time>
      </trkpt>
      <trkpt lat="45.947631737217307" lon="9.53536419197917">
        <ele>1842.02</ele>
        <time>2016-01-10T09:45:46Z</time>
      </trkpt>
      <trkpt lat="45.947589995339513" lon="9.535448765382171">
        <ele>1843.47</ele>
        <time>2016-01-10T09:45:57Z</time>
      </trkpt>
      <trkpt lat="45.947560910135508" lon="9.53551372513175">
        <ele>1845.3900000000001</ele>
        <time>2016-01-10T09:46:10Z</time>
      </trkpt>
      <trkpt lat="45.94755026511848" lon="9.535557394847274">
        <ele>1846.3499999999999</ele>
        <time>2016-01-10T09:46:16Z</time>
      </trkpt>
      <trkpt lat="45.947542805224657" lon="9.535621264949441">
        <ele>1847.79</ele>
        <time>2016-01-10T09:46:26Z</time>
      </trkpt>
      <trkpt lat="45.947542805224657" lon="9.53569452278316">
        <ele>1846.8299999999999</ele>
        <time>2016-01-10T09:46:37Z</time>
      </trkpt>
      <trkpt lat="45.947483880445361" lon="9.535738695412874">
        <ele>1847.79</ele>
        <time>2016-01-10T09:46:49Z</time>
      </trkpt>
      <trkpt lat="45.947422105818987" lon="9.535721261054277">
        <ele>1849.23</ele>
        <time>2016-01-10T09:47:03Z</time>
      </trkpt>
      <trkpt lat="45.947381118312478" lon="9.535709526389837">
        <ele>1850.6800000000001</ele>
        <time>2016-01-10T09:47:11Z</time>
      </trkpt>
      <trkpt lat="45.947340298444033" lon="9.535767110064626">
        <ele>1851.1600000000001</ele>
        <time>2016-01-10T09:47:22Z</time>
      </trkpt>
      <trkpt lat="45.947297383099794" lon="9.535819077864289">
        <ele>1853.0799999999999</ele>
        <time>2016-01-10T09:47:36Z</time>
      </trkpt>
      <trkpt lat="45.947320936247706" lon="9.535856125876308">
        <ele>1854.52</ele>
        <time>2016-01-10T09:47:46Z</time>
      </trkpt>
      <trkpt lat="45.947370892390609" lon="9.535870710387826">
        <ele>1855.96</ele>
        <time>2016-01-10T09:47:57Z</time>
      </trkpt>
      <trkpt lat="45.947402827441692" lon="9.535853611305356">
        <ele>1856.4400000000001</ele>
        <time>2016-01-10T09:48:07Z</time>
      </trkpt>
      <trkpt lat="45.947393355891109" lon="9.535860819742084">
        <ele>1856.4400000000001</ele>
        <time>2016-01-10T09:48:29Z</time>
      </trkpt>
      <trkpt lat="45.947420177981257" lon="9.535934329032898">
        <ele>1857.4000000000001</ele>
        <time>2016-01-10T09:48:38Z</time>
      </trkpt>
      <trkpt lat="45.947421016171575" lon="9.535999791696668">
        <ele>1859.8099999999999</ele>
        <time>2016-01-10T09:48:47Z</time>
      </trkpt>
      <trkpt lat="45.9474594052881" lon="9.536070870235562">
        <ele>1861.73</ele>
        <time>2016-01-10T09:48:59Z</time>
      </trkpt>
      <trkpt lat="45.947424955666065" lon="9.536133063957095">
        <ele>1864.1300000000001</ele>
        <time>2016-01-10T09:49:09Z</time>
      </trkpt>
      <trkpt lat="45.947396038100123" lon="9.536163909360766">
        <ele>1866.0599999999999</ele>
        <time>2016-01-10T09:49:19Z</time>
      </trkpt>
      <trkpt lat="45.947368880733848" lon="9.536156952381134">
        <ele>1867.02</ele>
        <time>2016-01-10T09:49:25Z</time>
      </trkpt>
      <trkpt lat="45.947352033108473" lon="9.536138428375125">
        <ele>1867.5</ele>
        <time>2016-01-10T09:49:33Z</time>
      </trkpt>
      <trkpt lat="45.94731523655355" lon="9.536151420325041">
        <ele>1868.46</ele>
        <time>2016-01-10T09:49:47Z</time>
      </trkpt>
      <trkpt lat="45.947314901277423" lon="9.536116886883974">
        <ele>1867.98</ele>
        <time>2016-01-10T09:49:55Z</time>
      </trkpt>
      <trkpt lat="45.947317834943533" lon="9.536115797236562">
        <ele>1867.98</ele>
        <time>2016-01-10T09:50:13Z</time>
      </trkpt>
      <trkpt lat="45.947329485788941" lon="9.536142032593489">
        <ele>1867.98</ele>
        <time>2016-01-10T09:50:33Z</time>
      </trkpt>
      <trkpt lat="45.947339292615652" lon="9.536134572699666">
        <ele>1867.98</ele>
        <time>2016-01-10T09:51:01Z</time>
      </trkpt>
      <trkpt lat="45.947303837165236" lon="9.536185618489981">
        <ele>1868.46</ele>
        <time>2016-01-10T09:51:22Z</time>
      </trkpt>
      <trkpt lat="45.94727030955255" lon="9.536196179687977">
        <ele>1867.5</ele>
        <time>2016-01-10T09:51:33Z</time>
      </trkpt>
      <trkpt lat="45.947261843830347" lon="9.536214284598827">
        <ele>1867.02</ele>
        <time>2016-01-10T09:51:45Z</time>
      </trkpt>
      <trkpt lat="45.947276428341866" lon="9.536195257678628">
        <ele>1867.02</ele>
        <time>2016-01-10T09:51:59Z</time>
      </trkpt>
      <trkpt lat="45.947256898507476" lon="9.536241358146071">
        <ele>1867.98</ele>
        <time>2016-01-10T09:52:11Z</time>
      </trkpt>
      <trkpt lat="45.947241894900799" lon="9.536304725334048">
        <ele>1867.02</ele>
        <time>2016-01-10T09:52:20Z</time>
      </trkpt>
      <trkpt lat="45.947253881022334" lon="9.536319561302662">
        <ele>1867.02</ele>
        <time>2016-01-10T09:52:30Z</time>
      </trkpt>
      <trkpt lat="45.947234183549881" lon="9.536354430019856">
        <ele>1866.54</ele>
        <time>2016-01-10T09:52:40Z</time>
      </trkpt>
      <trkpt lat="45.947220688685775" lon="9.536355687305331">
        <ele>1865.5799999999999</ele>
        <time>2016-01-10T09:52:51Z</time>
      </trkpt>
      <trkpt lat="45.947205098345876" lon="9.536429531872273">
        <ele>1866.54</ele>
        <time>2016-01-10T09:53:00Z</time>
      </trkpt>
      <trkpt lat="45.947169894352555" lon="9.536532796919346">
        <ele>1867.5</ele>
        <time>2016-01-10T09:53:11Z</time>
      </trkpt>
      <trkpt lat="45.947148185223341" lon="9.536600019782782">
        <ele>1867.98</ele>
        <time>2016-01-10T09:53:18Z</time>
      </trkpt>
      <trkpt lat="45.947117423638701" lon="9.536668919026852">
        <ele>1868.46</ele>
        <time>2016-01-10T09:53:25Z</time>
      </trkpt>
      <trkpt lat="45.947083476930857" lon="9.5366854313761">
        <ele>1868.9400000000001</ele>
        <time>2016-01-10T09:53:35Z</time>
      </trkpt>
      <trkpt lat="45.947053134441376" lon="9.536761455237865">
        <ele>1868.9400000000001</ele>
        <time>2016-01-10T09:53:45Z</time>
      </trkpt>
      <trkpt lat="45.94703821465373" lon="9.536790205165744">
        <ele>1868.9400000000001</ele>
        <time>2016-01-10T09:53:48Z</time>
      </trkpt>
      <trkpt lat="45.947031760588288" lon="9.53680370002985">
        <ele>1868.9400000000001</ele>
        <time>2016-01-10T09:53:49Z</time>
      </trkpt>
      <trkpt lat="45.947023127228022" lon="9.536819122731686">
        <ele>1868.46</ele>
        <time>2016-01-10T09:53:50Z</time>
      </trkpt>
      <trkpt lat="45.946963028982282" lon="9.536923477426171">
        <ele>1869.4200000000001</ele>
        <time>2016-01-10T09:54:02Z</time>
      </trkpt>
      <trkpt lat="45.946935703977942" lon="9.537034118548036">
        <ele>1871.8199999999999</ele>
        <time>2016-01-10T09:54:12Z</time>
      </trkpt>
      <trkpt lat="45.946918521076441" lon="9.537100587040186">
        <ele>1870.3800000000001</ele>
        <time>2016-01-10T09:54:21Z</time>
      </trkpt>
      <trkpt lat="45.946868397295475" lon="9.537212317809463">
        <ele>1870.3800000000001</ele>
        <time>2016-01-10T09:54:32Z</time>
      </trkpt>
      <trkpt lat="45.946877365931869" lon="9.537186753004789">
        <ele>1870.3800000000001</ele>
        <time>2016-01-10T09:54:42Z</time>
      </trkpt>
      <trkpt lat="45.946865379810333" lon="9.537247018888593">
        <ele>1870.3800000000001</ele>
        <time>2016-01-10T09:54:53Z</time>
      </trkpt>
      <trkpt lat="45.946869319304824" lon="9.53728205524385">
        <ele>1870.3800000000001</ele>
        <time>2016-01-10T09:55:02Z</time>
      </trkpt>
      <trkpt lat="45.946849621832371" lon="9.537414656952024">
        <ele>1870.8599999999999</ele>
        <time>2016-01-10T09:55:13Z</time>
      </trkpt>
      <trkpt lat="45.946846520528197" lon="9.537426559254527">
        <ele>1870.8599999999999</ele>
        <time>2016-01-10T09:55:14Z</time>
      </trkpt>
      <trkpt lat="45.946851801127195" lon="9.537477437406778">
        <ele>1871.8199999999999</ele>
        <time>2016-01-10T09:55:23Z</time>
      </trkpt>
      <trkpt lat="45.946912067010999" lon="9.537607524544001">
        <ele>1871.8199999999999</ele>
        <time>2016-01-10T09:55:32Z</time>
      </trkpt>
      <trkpt lat="45.946943750604987" lon="9.537741048261523">
        <ele>1872.3</ele>
        <time>2016-01-10T09:55:44Z</time>
      </trkpt>
      <trkpt lat="45.946921370923519" lon="9.537844732403755">
        <ele>1873.75</ele>
        <time>2016-01-10T09:55:57Z</time>
      </trkpt>
      <trkpt lat="45.946901757270098" lon="9.537891838699579">
        <ele>1874.71</ele>
        <time>2016-01-10T09:56:03Z</time>
      </trkpt>
      <trkpt lat="45.946901338174939" lon="9.537954870611429">
        <ele>1875.1900000000001</ele>
        <time>2016-01-10T09:56:06Z</time>
      </trkpt>
      <trkpt lat="45.946923885494471" lon="9.537988817319274">
        <ele>1875.1900000000001</ele>
        <time>2016-01-10T09:56:15Z</time>
      </trkpt>
      <trkpt lat="45.946918101981282" lon="9.537988901138306">
        <ele>1875.1900000000001</ele>
        <time>2016-01-10T09:56:18Z</time>
      </trkpt>
      <trkpt lat="45.946900667622685" lon="9.537908770143986">
        <ele>1875.1900000000001</ele>
        <time>2016-01-10T09:56:29Z</time>
      </trkpt>
      <trkpt lat="45.946891447529197" lon="9.537926707416773">
        <ele>1875.1900000000001</ele>
        <time>2016-01-10T09:56:47Z</time>
      </trkpt>
      <trkpt lat="45.94686915166676" lon="9.53793877735734">
        <ele>1874.71</ele>
        <time>2016-01-10T09:57:01Z</time>
      </trkpt>
      <trkpt lat="45.946866972371936" lon="9.537943722680211">
        <ele>1874.71</ele>
        <time>2016-01-10T09:57:13Z</time>
      </trkpt>
      <trkpt lat="45.946833612397313" lon="9.537970712408423">
        <ele>1874.23</ele>
        <time>2016-01-10T09:57:24Z</time>
      </trkpt>
      <trkpt lat="45.946828499436378" lon="9.537965012714267">
        <ele>1874.23</ele>
        <time>2016-01-10T09:57:35Z</time>
      </trkpt>
      <trkpt lat="45.946806957945228" lon="9.537996025756002">
        <ele>1874.23</ele>
        <time>2016-01-10T09:57:42Z</time>
      </trkpt>
      <trkpt lat="45.946789523586631" lon="9.538135668262839">
        <ele>1874.71</ele>
        <time>2016-01-10T09:57:54Z</time>
      </trkpt>
      <trkpt lat="45.94677971675992" lon="9.538248823955655">
        <ele>1875.1900000000001</ele>
        <time>2016-01-10T09:58:05Z</time>
      </trkpt>
      <trkpt lat="45.946780471131206" lon="9.538261732086539">
        <ele>1874.71</ele>
        <time>2016-01-10T09:58:23Z</time>
      </trkpt>
      <trkpt lat="45.946773681789637" lon="9.538313448429108">
        <ele>1875.6700000000001</ele>
        <time>2016-01-10T09:58:32Z</time>
      </trkpt>
      <trkpt lat="45.946790361776948" lon="9.538421239703894">
        <ele>1876.6300000000001</ele>
        <time>2016-01-10T09:58:45Z</time>
      </trkpt>
      <trkpt lat="45.946846436709166" lon="9.538460215553641">
        <ele>1877.1099999999999</ele>
        <time>2016-01-10T09:58:56Z</time>
      </trkpt>
      <trkpt lat="45.94689060933888" lon="9.538532383739948">
        <ele>1878.0699999999999</ele>
        <time>2016-01-10T09:59:05Z</time>
      </trkpt>
      <trkpt lat="45.946885999292135" lon="9.538604132831097">
        <ele>1879.03</ele>
        <time>2016-01-10T09:59:14Z</time>
      </trkpt>
      <trkpt lat="45.946882478892803" lon="9.538711002096534">
        <ele>1880</ele>
        <time>2016-01-10T09:59:24Z</time>
      </trkpt>
      <trkpt lat="45.946907037869096" lon="9.538777889683843">
        <ele>1880.96</ele>
        <time>2016-01-10T09:59:33Z</time>
      </trkpt>
      <trkpt lat="45.946886166930199" lon="9.538863217458129">
        <ele>1881.4400000000001</ele>
        <time>2016-01-10T09:59:42Z</time>
      </trkpt>
      <trkpt lat="45.946877701207995" lon="9.538975534960628">
        <ele>1882.4000000000001</ele>
        <time>2016-01-10T09:59:53Z</time>
      </trkpt>
      <trkpt lat="45.946868062019348" lon="9.539014343172312">
        <ele>1883.8399999999999</ele>
        <time>2016-01-10T10:00:05Z</time>
      </trkpt>
      <trkpt lat="45.946878623217344" lon="9.538997747004032">
        <ele>1883.8399999999999</ele>
        <time>2016-01-10T10:00:18Z</time>
      </trkpt>
      <trkpt lat="45.946864876896143" lon="9.538977211341262">
        <ele>1883.8399999999999</ele>
        <time>2016-01-10T10:00:34Z</time>
      </trkpt>
      <trkpt lat="45.946870660409331" lon="9.538976792246103">
        <ele>1883.8399999999999</ele>
        <time>2016-01-10T10:00:49Z</time>
      </trkpt>
      <trkpt lat="45.946887340396643" lon="9.538994394242764">
        <ele>1883.8399999999999</ele>
        <time>2016-01-10T10:01:02Z</time>
      </trkpt>
      <trkpt lat="45.94689111225307" lon="9.539002273231745">
        <ele>1883.3599999999999</ele>
        <time>2016-01-10T10:01:14Z</time>
      </trkpt>
      <trkpt lat="45.946893040090799" lon="9.539006045088172">
        <ele>1883.3599999999999</ele>
        <time>2016-01-10T10:01:22Z</time>
      </trkpt>
      <trkpt lat="45.946874264627695" lon="9.53905189409852">
        <ele>1884.3199999999999</ele>
        <time>2016-01-10T10:01:33Z</time>
      </trkpt>
      <trkpt lat="45.946876695379615" lon="9.539143843576312">
        <ele>1886.24</ele>
        <time>2016-01-10T10:01:43Z</time>
      </trkpt>
      <trkpt lat="45.946902260184288" lon="9.539213832467794">
        <ele>1887.21</ele>
        <time>2016-01-10T10:01:53Z</time>
      </trkpt>
      <trkpt lat="45.946911312639713" lon="9.539279211312532">
        <ele>1887.6900000000001</ele>
        <time>2016-01-10T10:02:03Z</time>
      </trkpt>
      <trkpt lat="45.946891782805324" lon="9.539352552965283">
        <ele>1889.1300000000001</ele>
        <time>2016-01-10T10:02:13Z</time>
      </trkpt>
      <trkpt lat="45.946896560490131" lon="9.539394546300173">
        <ele>1891.05</ele>
        <time>2016-01-10T10:02:24Z</time>
      </trkpt>
      <trkpt lat="45.946928998455405" lon="9.539436623454094">
        <ele>1892.49</ele>
        <time>2016-01-10T10:02:33Z</time>
      </trkpt>
      <trkpt lat="45.946953808888793" lon="9.539462355896831">
        <ele>1893.45</ele>
        <time>2016-01-10T10:02:43Z</time>
      </trkpt>
      <trkpt lat="45.946966633200645" lon="9.539500325918198">
        <ele>1894.9000000000001</ele>
        <time>2016-01-10T10:02:53Z</time>
      </trkpt>
      <trkpt lat="45.946996053680778" lon="9.53950778581202">
        <ele>1896.3399999999999</ele>
        <time>2016-01-10T10:03:02Z</time>
      </trkpt>
      <trkpt lat="45.947019020095468" lon="9.539528992027044">
        <ele>1897.3</ele>
        <time>2016-01-10T10:03:14Z</time>
      </trkpt>
      <trkpt lat="45.947049194946885" lon="9.5395761821419">
        <ele>1898.74</ele>
        <time>2016-01-10T10:03:26Z</time>
      </trkpt>
      <trkpt lat="45.947037795558572" lon="9.539629407227039">
        <ele>1900.6600000000001</ele>
        <time>2016-01-10T10:03:36Z</time>
      </trkpt>
      <trkpt lat="45.947020864114165" lon="9.539675172418356">
        <ele>1901.6300000000001</ele>
        <time>2016-01-10T10:03:44Z</time>
      </trkpt>
      <trkpt lat="45.94700301066041" lon="9.5397281460464">
        <ele>1902.5899999999999</ele>
        <time>2016-01-10T10:03:55Z</time>
      </trkpt>
      <trkpt lat="45.947015667334199" lon="9.539706101641059">
        <ele>1902.5899999999999</ele>
        <time>2016-01-10T10:04:07Z</time>
      </trkpt>
      <trkpt lat="45.94705824740231" lon="9.539699228480458">
        <ele>1904.51</ele>
        <time>2016-01-10T10:04:16Z</time>
      </trkpt>
      <trkpt lat="45.947079956531525" lon="9.539719261229038">
        <ele>1905.47</ele>
        <time>2016-01-10T10:04:27Z</time>
      </trkpt>
      <trkpt lat="45.947113065049052" lon="9.539716159924865">
        <ele>1906.4300000000001</ele>
        <time>2016-01-10T10:04:36Z</time>
      </trkpt>
      <trkpt lat="45.947165284305811" lon="9.539701407775283">
        <ele>1907.8699999999999</ele>
        <time>2016-01-10T10:04:46Z</time>
      </trkpt>
      <trkpt lat="45.947201745584607" lon="9.539708280935884">
        <ele>1909.3199999999999</ele>
        <time>2016-01-10T10:04:56Z</time>
      </trkpt>
      <trkpt lat="45.947219179943204" lon="9.539717584848404">
        <ele>1909.8</ele>
        <time>2016-01-10T10:05:03Z</time>
      </trkpt>
      <trkpt lat="45.947261340916157" lon="9.539720937609673">
        <ele>1911.72</ele>
        <time>2016-01-10T10:05:14Z</time>
      </trkpt>
      <trkpt lat="45.947303920984268" lon="9.53973644413054">
        <ele>1913.1600000000001</ele>
        <time>2016-01-10T10:05:24Z</time>
      </trkpt>
      <trkpt lat="45.947341052815318" lon="9.539746250957251">
        <ele>1914.1199999999999</ele>
        <time>2016-01-10T10:05:33Z</time>
      </trkpt>
      <trkpt lat="45.947382627055049" lon="9.539772821590304">
        <ele>1916.04</ele>
        <time>2016-01-10T10:05:46Z</time>
      </trkpt>
      <trkpt lat="45.947405928745866" lon="9.539820933714509">
        <ele>1917.01</ele>
        <time>2016-01-10T10:05:54Z</time>
      </trkpt>
      <trkpt lat="45.947405844926834" lon="9.539867201820016">
        <ele>1917.97</ele>
        <time>2016-01-10T10:06:03Z</time>
      </trkpt>
      <trkpt lat="45.947433589026332" lon="9.539869464933872">
        <ele>1918.9300000000001</ele>
        <time>2016-01-10T10:06:13Z</time>
      </trkpt>
      <trkpt lat="45.947475917637348" lon="9.539889078587294">
        <ele>1920.3699999999999</ele>
        <time>2016-01-10T10:06:25Z</time>
      </trkpt>
      <trkpt lat="45.947502655908465" lon="9.539870722219348">
        <ele>1921.3299999999999</ele>
        <time>2016-01-10T10:06:35Z</time>
      </trkpt>
      <trkpt lat="45.947538614273071" lon="9.539891174063087">
        <ele>1922.77</ele>
        <time>2016-01-10T10:06:45Z</time>
      </trkpt>
      <trkpt lat="45.947556970641017" lon="9.539937358349562">
        <ele>1923.74</ele>
        <time>2016-01-10T10:06:56Z</time>
      </trkpt>
      <trkpt lat="45.947551941499114" lon="9.539999132975936">
        <ele>1925.1800000000001</ele>
        <time>2016-01-10T10:07:05Z</time>
      </trkpt>
      <trkpt lat="45.947535512968898" lon="9.540052525699139">
        <ele>1926.1400000000001</ele>
        <time>2016-01-10T10:07:15Z</time>
      </trkpt>
      <trkpt lat="45.947565101087093" lon="9.540071049705148">
        <ele>1927.0999999999999</ele>
        <time>2016-01-10T10:07:26Z</time>
      </trkpt>
      <trkpt lat="45.94759720377624" lon="9.54007264226675">
        <ele>1928.0599999999999</ele>
        <time>2016-01-10T10:07:35Z</time>
      </trkpt>
      <trkpt lat="45.947625618427992" lon="9.540063673630357">
        <ele>1929.02</ele>
        <time>2016-01-10T10:07:44Z</time>
      </trkpt>
      <trkpt lat="45.947661576792598" lon="9.540056465193629">
        <ele>1930.46</ele>
        <time>2016-01-10T10:07:54Z</time>
      </trkpt>
      <trkpt lat="45.947672389447689" lon="9.540017154067755">
        <ele>1931.9100000000001</ele>
        <time>2016-01-10T10:08:05Z</time>
      </trkpt>
      <trkpt lat="45.94770323485136" lon="9.539955714717507">
        <ele>1932.8699999999999</ele>
        <time>2016-01-10T10:08:16Z</time>
      </trkpt>
      <trkpt lat="45.947732571512461" lon="9.539924534037709">
        <ele>1934.3099999999999</ele>
        <time>2016-01-10T10:08:26Z</time>
      </trkpt>
      <trkpt lat="45.947742629796267" lon="9.539855215698481">
        <ele>1934.79</ele>
        <time>2016-01-10T10:08:37Z</time>
      </trkpt>
      <trkpt lat="45.947781857103109" lon="9.539901902899146">
        <ele>1936.23</ele>
        <time>2016-01-10T10:08:45Z</time>
      </trkpt>
      <trkpt lat="45.94779753126204" lon="9.539956552907825">
        <ele>1936.71</ele>
        <time>2016-01-10T10:08:53Z</time>
      </trkpt>
      <trkpt lat="45.947826448827982" lon="9.540003659203649">
        <ele>1937.6700000000001</ele>
        <time>2016-01-10T10:09:05Z</time>
      </trkpt>
      <trkpt lat="45.947812451049685" lon="9.540072726085782">
        <ele>1939.5999999999999</ele>
        <time>2016-01-10T10:09:15Z</time>
      </trkpt>
      <trkpt lat="45.947836842387915" lon="9.540095943957567">
        <ele>1941.04</ele>
        <time>2016-01-10T10:09:26Z</time>
      </trkpt>
      <trkpt lat="45.947870621457696" lon="9.540073061361909">
        <ele>1942</ele>
        <time>2016-01-10T10:09:36Z</time>
      </trkpt>
      <trkpt lat="45.947906244546175" lon="9.540033834055066">
        <ele>1943.9200000000001</ele>
        <time>2016-01-10T10:09:47Z</time>
      </trkpt>
      <trkpt lat="45.947939353063703" lon="9.539977759122849">
        <ele>1944.8800000000001</ele>
        <time>2016-01-10T10:10:01Z</time>
      </trkpt>
      <trkpt lat="45.9479895606637" lon="9.539945824071765">
        <ele>1946.8099999999999</ele>
        <time>2016-01-10T10:10:11Z</time>
      </trkpt>
      <trkpt lat="45.948012862354517" lon="9.539881283417344">
        <ele>1948.25</ele>
        <time>2016-01-10T10:10:23Z</time>
      </trkpt>
      <trkpt lat="45.948038343340158" lon="9.539834847673774">
        <ele>1949.21</ele>
        <time>2016-01-10T10:10:33Z</time>
      </trkpt>
      <trkpt lat="45.948066925629973" lon="9.539811629801989">
        <ele>1950.1700000000001</ele>
        <time>2016-01-10T10:10:44Z</time>
      </trkpt>
      <trkpt lat="45.948070529848337" lon="9.539801990613341">
        <ele>1950.1700000000001</ele>
        <time>2016-01-10T10:10:58Z</time>
      </trkpt>
      <trkpt lat="45.948107242584229" lon="9.539766618981957">
        <ele>1951.6099999999999</ele>
        <time>2016-01-10T10:11:05Z</time>
      </trkpt>
      <trkpt lat="45.948156109079719" lon="9.539643321186304">
        <ele>1952.5699999999999</ele>
        <time>2016-01-10T10:11:18Z</time>
      </trkpt>
      <trkpt lat="45.948204640299082" lon="9.539601830765605">
        <ele>1953.54</ele>
        <time>2016-01-10T10:11:30Z</time>
      </trkpt>
      <trkpt lat="45.948252500966191" lon="9.539591185748577">
        <ele>1955.9400000000001</ele>
        <time>2016-01-10T10:11:41Z</time>
      </trkpt>
      <trkpt lat="45.948285274207592" lon="9.539510132744908">
        <ele>1957.3800000000001</ele>
        <time>2016-01-10T10:11:53Z</time>
      </trkpt>
      <trkpt lat="45.948308994993567" lon="9.539451124146581">
        <ele>1958.8199999999999</ele>
        <time>2016-01-10T10:12:03Z</time>
      </trkpt>
      <trkpt lat="45.948314610868692" lon="9.53937484882772">
        <ele>1960.27</ele>
        <time>2016-01-10T10:12:15Z</time>
      </trkpt>
      <trkpt lat="45.948368506506085" lon="9.539336794987321">
        <ele>1961.71</ele>
        <time>2016-01-10T10:12:26Z</time>
      </trkpt>
      <trkpt lat="45.94842835329473" lon="9.539354313164949">
        <ele>1963.1500000000001</ele>
        <time>2016-01-10T10:12:37Z</time>
      </trkpt>
      <trkpt lat="45.948463724926114" lon="9.539348697289825">
        <ele>1964.5899999999999</ele>
        <time>2016-01-10T10:12:46Z</time>
      </trkpt>
      <trkpt lat="45.948490798473358" lon="9.539318019524217">
        <ele>1966.03</ele>
        <time>2016-01-10T10:12:56Z</time>
      </trkpt>
      <trkpt lat="45.948512423783541" lon="9.539260184392333">
        <ele>1966.99</ele>
        <time>2016-01-10T10:13:06Z</time>
      </trkpt>
      <trkpt lat="45.948551651090384" lon="9.539204863831401">
        <ele>1967.96</ele>
        <time>2016-01-10T10:13:18Z</time>
      </trkpt>
      <trkpt lat="45.94860227778554" lon="9.539186339825392">
        <ele>1969.4000000000001</ele>
        <time>2016-01-10T10:13:29Z</time>
      </trkpt>
      <trkpt lat="45.948643600568175" lon="9.539201511070132">
        <ele>1970.8399999999999</ele>
        <time>2016-01-10T10:13:40Z</time>
      </trkpt>
      <trkpt lat="45.948692886158824" lon="9.539141748100519">
        <ele>1972.28</ele>
        <time>2016-01-10T10:13:52Z</time>
      </trkpt>
      <trkpt lat="45.948730353266001" lon="9.539097910746932">
        <ele>1973.72</ele>
        <time>2016-01-10T10:14:03Z</time>
      </trkpt>
      <trkpt lat="45.94874007627368" lon="9.539027418941259">
        <ele>1974.6900000000001</ele>
        <time>2016-01-10T10:14:16Z</time>
      </trkpt>
      <trkpt lat="45.948751475661993" lon="9.538942342624068">
        <ele>1975.6500000000001</ele>
        <time>2016-01-10T10:14:27Z</time>
      </trkpt>
      <trkpt lat="45.948816351592541" lon="9.538969667628408">
        <ele>1977.0899999999999</ele>
        <time>2016-01-10T10:14:38Z</time>
      </trkpt>
      <trkpt lat="45.948857925832272" lon="9.539002189412713">
        <ele>1978.53</ele>
        <time>2016-01-10T10:14:48Z</time>
      </trkpt>
      <trkpt lat="45.948894890025258" lon="9.539018953219056">
        <ele>1979.01</ele>
        <time>2016-01-10T10:14:57Z</time>
      </trkpt>
      <trkpt lat="45.948932357132435" lon="9.538978887721896">
        <ele>1980.9300000000001</ele>
        <time>2016-01-10T10:15:09Z</time>
      </trkpt>
      <trkpt lat="45.948986420407891" lon="9.538992550224066">
        <ele>1982.3800000000001</ele>
        <time>2016-01-10T10:15:21Z</time>
      </trkpt>
      <trkpt lat="45.949009722098708" lon="9.538954412564635">
        <ele>1983.8199999999999</ele>
        <time>2016-01-10T10:15:30Z</time>
      </trkpt>
      <trkpt lat="45.949048278853297" lon="9.538904875516892">
        <ele>1985.26</ele>
        <time>2016-01-10T10:15:41Z</time>
      </trkpt>
      <trkpt lat="45.949097312986851" lon="9.538848884403706">
        <ele>1987.1800000000001</ele>
        <time>2016-01-10T10:15:52Z</time>
      </trkpt>
      <trkpt lat="45.949144335463643" lon="9.538788702338934">
        <ele>1987.1800000000001</ele>
        <time>2016-01-10T10:16:02Z</time>
      </trkpt>
      <trkpt lat="45.949193285778165" lon="9.538718964904547">
        <ele>1988.1400000000001</ele>
        <time>2016-01-10T10:16:13Z</time>
      </trkpt>
      <trkpt lat="45.949230501428246" lon="9.538650820031762">
        <ele>1989.0999999999999</ele>
        <time>2016-01-10T10:16:25Z</time>
      </trkpt>
      <trkpt lat="45.949278362095356" lon="9.538594577461481">
        <ele>1990.55</ele>
        <time>2016-01-10T10:16:37Z</time>
      </trkpt>
      <trkpt lat="45.949310883879662" lon="9.538510674610734">
        <ele>1991.99</ele>
        <time>2016-01-10T10:16:49Z</time>
      </trkpt>
      <trkpt lat="45.94934206455946" lon="9.538432890549302">
        <ele>1992.95</ele>
        <time>2016-01-10T10:17:00Z</time>
      </trkpt>
      <trkpt lat="45.949387326836586" lon="9.538346221670508">
        <ele>1994.3900000000001</ele>
        <time>2016-01-10T10:17:11Z</time>
      </trkpt>
      <trkpt lat="45.949432170018554" lon="9.538249494507909">
        <ele>1995.3499999999999</ele>
        <time>2016-01-10T10:17:25Z</time>
      </trkpt>
      <trkpt lat="45.94946519471705" lon="9.53811320476234">
        <ele>1996.8</ele>
        <time>2016-01-10T10:17:38Z</time>
      </trkpt>
      <trkpt lat="45.949526214972138" lon="9.538048412650824">
        <ele>1998.24</ele>
        <time>2016-01-10T10:17:50Z</time>
      </trkpt>
      <trkpt lat="45.949567873030901" lon="9.537959732115269">
        <ele>1997.76</ele>
        <time>2016-01-10T10:18:01Z</time>
      </trkpt>
      <trkpt lat="45.949618248268962" lon="9.537884294986725">
        <ele>1999.2</ele>
        <time>2016-01-10T10:18:12Z</time>
      </trkpt>
      <trkpt lat="45.949632078409195" lon="9.537783125415444">
        <ele>2001.1199999999999</ele>
        <time>2016-01-10T10:18:23Z</time>
      </trkpt>
      <trkpt lat="45.949641382321715" lon="9.537748675793409">
        <ele>1999.6800000000001</ele>
        <time>2016-01-10T10:18:28Z</time>
      </trkpt>
      <trkpt lat="45.949636269360781" lon="9.537659576162696">
        <ele>1999.6800000000001</ele>
        <time>2016-01-10T10:18:35Z</time>
      </trkpt>
      <trkpt lat="45.949639203026891" lon="9.537552203983069">
        <ele>2000.6400000000001</ele>
        <time>2016-01-10T10:18:47Z</time>
      </trkpt>
      <trkpt lat="45.949639286845922" lon="9.537488920614123">
        <ele>2002.5599999999999</ele>
        <time>2016-01-10T10:18:59Z</time>
      </trkpt>
      <trkpt lat="45.949621852487326" lon="9.537429828196764">
        <ele>2004.01</ele>
        <time>2016-01-10T10:19:09Z</time>
      </trkpt>
      <trkpt lat="45.949676167219877" lon="9.537411304190755">
        <ele>2004.97</ele>
        <time>2016-01-10T10:19:19Z</time>
      </trkpt>
      <trkpt lat="45.949704917147756" lon="9.537404347211123">
        <ele>2006.4100000000001</ele>
        <time>2016-01-10T10:19:28Z</time>
      </trkpt>
      <trkpt lat="45.949738780036569" lon="9.537405436858535">
        <ele>2007.8499999999999</ele>
        <time>2016-01-10T10:19:40Z</time>
      </trkpt>
      <trkpt lat="45.94977498985827" lon="9.537393115460873">
        <ele>2009.77</ele>
        <time>2016-01-10T10:19:51Z</time>
      </trkpt>
      <trkpt lat="45.949812456965446" lon="9.537371825426817">
        <ele>2011.22</ele>
        <time>2016-01-10T10:20:00Z</time>
      </trkpt>
      <trkpt lat="45.949813378974795" lon="9.537335615605116">
        <ele>2012.6600000000001</ele>
        <time>2016-01-10T10:20:11Z</time>
      </trkpt>
      <trkpt lat="45.949814133346081" lon="9.537282222881913">
        <ele>2014.5799999999999</ele>
        <time>2016-01-10T10:20:21Z</time>
      </trkpt>
      <trkpt lat="45.949827628210187" lon="9.537231680005789">
        <ele>2016.5</ele>
        <time>2016-01-10T10:20:31Z</time>
      </trkpt>
      <trkpt lat="45.949856797233224" lon="9.537158003076911">
        <ele>2018.4300000000001</ele>
        <time>2016-01-10T10:20:42Z</time>
      </trkpt>
      <trkpt lat="45.949887055903673" lon="9.537151465192437">
        <ele>2019.3900000000001</ele>
        <time>2016-01-10T10:20:52Z</time>
      </trkpt>
      <trkpt lat="45.949921002611518" lon="9.537134366109967">
        <ele>2020.8299999999999</ele>
        <time>2016-01-10T10:21:02Z</time>
      </trkpt>
      <trkpt lat="45.949925193563104" lon="9.537133360281587">
        <ele>2020.8299999999999</ele>
        <time>2016-01-10T10:21:19Z</time>
      </trkpt>
      <trkpt lat="45.949925361201167" lon="9.537135874852538">
        <ele>2020.8299999999999</ele>
        <time>2016-01-10T10:21:33Z</time>
      </trkpt>
      <trkpt lat="45.949927205219865" lon="9.537136126309633">
        <ele>2021.3099999999999</ele>
        <time>2016-01-10T10:21:49Z</time>
      </trkpt>
      <trkpt lat="45.949931144714355" lon="9.537143334746361">
        <ele>2021.3099999999999</ele>
        <time>2016-01-10T10:22:03Z</time>
      </trkpt>
      <trkpt lat="45.949919493868947" lon="9.537146184593439">
        <ele>2020.8299999999999</ele>
        <time>2016-01-10T10:22:19Z</time>
      </trkpt>
      <trkpt lat="45.949925528839231" lon="9.537153812125325">
        <ele>2020.8299999999999</ele>
        <time>2016-01-10T10:22:33Z</time>
      </trkpt>
      <trkpt lat="45.94993818551302" lon="9.5371481962502">
        <ele>2021.79</ele>
        <time>2016-01-10T10:22:43Z</time>
      </trkpt>
      <trkpt lat="45.949960313737392" lon="9.53720435500145">
        <ele>2022.27</ele>
        <time>2016-01-10T10:22:52Z</time>
      </trkpt>
      <trkpt lat="45.950024435296655" lon="9.537278870120645">
        <ele>2024.6700000000001</ele>
        <time>2016-01-10T10:23:05Z</time>
      </trkpt>
      <trkpt lat="45.950045054778457" lon="9.537348188459873">
        <ele>2026.5999999999999</ele>
        <time>2016-01-10T10:23:15Z</time>
      </trkpt>
      <trkpt lat="45.95008579082787" lon="9.537394121289253">
        <ele>2029</ele>
        <time>2016-01-10T10:23:25Z</time>
      </trkpt>
      <trkpt lat="45.950107919052243" lon="9.537435192614794">
        <ele>2029</ele>
        <time>2016-01-10T10:23:30Z</time>
      </trkpt>
      <trkpt lat="45.950138764455914" lon="9.537511635571718">
        <ele>2029.96</ele>
        <time>2016-01-10T10:23:40Z</time>
      </trkpt>
      <trkpt lat="45.950148236006498" lon="9.537539128214121">
        <ele>2029.96</ele>
        <time>2016-01-10T10:23:45Z</time>
      </trkpt>
      <trkpt lat="45.950181260704994" lon="9.537616660818458">
        <ele>2032.8399999999999</ele>
        <time>2016-01-10T10:23:55Z</time>
      </trkpt>
      <trkpt lat="45.950206657871604" lon="9.537666449323297">
        <ele>2034.29</ele>
        <time>2016-01-10T10:24:05Z</time>
      </trkpt>
      <trkpt lat="45.950248818844557" lon="9.53772185370326">
        <ele>2035.25</ele>
        <time>2016-01-10T10:24:17Z</time>
      </trkpt>
      <trkpt lat="45.95028955489397" lon="9.53779561445117">
        <ele>2037.6500000000001</ele>
        <time>2016-01-10T10:24:30Z</time>
      </trkpt>
      <trkpt lat="45.950333308428526" lon="9.537840960547328">
        <ele>2040.54</ele>
        <time>2016-01-10T10:24:40Z</time>
      </trkpt>
      <trkpt lat="45.950350407510996" lon="9.537854958325625">
        <ele>2040.54</ele>
        <time>2016-01-10T10:24:51Z</time>
      </trkpt>
      <trkpt lat="45.95038678497076" lon="9.537887899205089">
        <ele>2042.9400000000001</ele>
        <time>2016-01-10T10:25:00Z</time>
      </trkpt>
      <trkpt lat="45.950420815497637" lon="9.537933832034469">
        <ele>2043.9000000000001</ele>
        <time>2016-01-10T10:25:09Z</time>
      </trkpt>
      <trkpt lat="45.95044638030231" lon="9.53797833994031">
        <ele>2045.8199999999999</ele>
        <time>2016-01-10T10:25:22Z</time>
      </trkpt>
      <trkpt lat="45.950463647022843" lon="9.537980603054166">
        <ele>2045.8199999999999</ele>
        <time>2016-01-10T10:25:34Z</time>
      </trkpt>
      <trkpt lat="45.950502371415496" lon="9.538021674379706">
        <ele>2047.75</ele>
        <time>2016-01-10T10:25:45Z</time>
      </trkpt>
      <trkpt lat="45.950543275102973" lon="9.538057632744312">
        <ele>2049.6700000000001</ele>
        <time>2016-01-10T10:25:57Z</time>
      </trkpt>
      <trkpt lat="45.950583005324006" lon="9.538094010204077">
        <ele>2050.6300000000001</ele>
        <time>2016-01-10T10:26:07Z</time>
      </trkpt>
      <trkpt lat="45.950626423582435" lon="9.538142457604408">
        <ele>2052.5500000000002</ele>
        <time>2016-01-10T10:26:18Z</time>
      </trkpt>
      <trkpt lat="45.950679061934352" lon="9.538170956075192">
        <ele>2053.9899999999998</ele>
        <time>2016-01-10T10:26:29Z</time>
      </trkpt>
      <trkpt lat="45.950721642002463" lon="9.538207836449146">
        <ele>2056.4000000000001</ele>
        <time>2016-01-10T10:26:39Z</time>
      </trkpt>
      <trkpt lat="45.950748044997454" lon="9.538244968280196">
        <ele>2057.3600000000001</ele>
        <time>2016-01-10T10:26:50Z</time>
      </trkpt>
      <trkpt lat="45.950762964785099" lon="9.538271790370345">
        <ele>2057.3600000000001</ele>
        <time>2016-01-10T10:26:57Z</time>
      </trkpt>
      <trkpt lat="45.950810657814145" lon="9.538304731249809">
        <ele>2058.3200000000002</ele>
        <time>2016-01-10T10:27:08Z</time>
      </trkpt>
      <trkpt lat="45.950809316709638" lon="9.538315292447805">
        <ele>2058.3200000000002</ele>
        <time>2016-01-10T10:27:18Z</time>
      </trkpt>
      <trkpt lat="45.95082557760179" lon="9.538315124809742">
        <ele>2058.8000000000002</ele>
        <time>2016-01-10T10:27:21Z</time>
      </trkpt>
      <trkpt lat="45.950821219012141" lon="9.53835753723979">
        <ele>2059.2800000000002</ele>
        <time>2016-01-10T10:27:24Z</time>
      </trkpt>
      <trkpt lat="45.950834881514311" lon="9.538443367928267">
        <ele>2059.2800000000002</ele>
        <time>2016-01-10T10:27:33Z</time>
      </trkpt>
      <trkpt lat="45.950821721926332" lon="9.538400368764997">
        <ele>2060.2399999999998</ele>
        <time>2016-01-10T10:27:50Z</time>
      </trkpt>
      <trkpt lat="45.950823649764061" lon="9.538400787860155">
        <ele>2060.2399999999998</ele>
        <time>2016-01-10T10:27:52Z</time>
      </trkpt>
      <trkpt lat="45.950820129364729" lon="9.538320237770677">
        <ele>2059.2800000000002</ele>
        <time>2016-01-10T10:28:02Z</time>
      </trkpt>
      <trkpt lat="45.950815016403794" lon="9.538298025727272">
        <ele>2059.2800000000002</ele>
        <time>2016-01-10T10:28:14Z</time>
      </trkpt>
      <trkpt lat="45.950806718319654" lon="9.538297522813082">
        <ele>2058.8000000000002</ele>
        <time>2016-01-10T10:28:33Z</time>
      </trkpt>
      <trkpt lat="45.950811579823494" lon="9.538295846432447">
        <ele>2059.2800000000002</ele>
        <time>2016-01-10T10:28:44Z</time>
      </trkpt>
      <trkpt lat="45.950813759118319" lon="9.538275394588709">
        <ele>2058.3200000000002</ele>
        <time>2016-01-10T10:28:57Z</time>
      </trkpt>
      <trkpt lat="45.950808897614479" lon="9.538278663530946">
        <ele>2058.3200000000002</ele>
        <time>2016-01-10T10:29:08Z</time>
      </trkpt>
      <trkpt lat="45.950823063030839" lon="9.538280759006739">
        <ele>2058.8000000000002</ele>
        <time>2016-01-10T10:29:19Z</time>
      </trkpt>
      <trkpt lat="45.950828846544027" lon="9.538288805633783">
        <ele>2058.8000000000002</ele>
        <time>2016-01-10T10:29:37Z</time>
      </trkpt>
      <trkpt lat="45.95082557760179" lon="9.538294672966003">
        <ele>2058.8000000000002</ele>
        <time>2016-01-10T10:29:55Z</time>
      </trkpt>
      <trkpt lat="45.950821386650205" lon="9.538268353790045">
        <ele>2058.3200000000002</ele>
        <time>2016-01-10T10:30:09Z</time>
      </trkpt>
      <trkpt lat="45.950814932584763" lon="9.538275143131614">
        <ele>2058.3200000000002</ele>
        <time>2016-01-10T10:30:29Z</time>
      </trkpt>
      <trkpt lat="45.950814932584763" lon="9.538275059312582">
        <ele>2058.3200000000002</ele>
        <time>2016-01-10T10:30:47Z</time>
      </trkpt>
      <trkpt lat="45.95082750543952" lon="9.538296768441796">
        <ele>2059.2800000000002</ele>
        <time>2016-01-10T10:31:07Z</time>
      </trkpt>
      <trkpt lat="45.950862960889935" lon="9.538287213072181">
        <ele>2059.7600000000002</ele>
        <time>2016-01-10T10:31:19Z</time>
      </trkpt>
      <trkpt lat="45.950920712202787" lon="9.538278495892882">
        <ele>2059.7600000000002</ele>
        <time>2016-01-10T10:31:29Z</time>
      </trkpt>
      <trkpt lat="45.950943008065224" lon="9.538278328254819">
        <ele>2059.7600000000002</ele>
        <time>2016-01-10T10:31:32Z</time>
      </trkpt>
      <trkpt lat="45.950979217886925" lon="9.538266761228442">
        <ele>2059.2800000000002</ele>
        <time>2016-01-10T10:31:44Z</time>
      </trkpt>
      <trkpt lat="45.950990449637175" lon="9.538256116211414">
        <ele>2059.2800000000002</ele>
        <time>2016-01-10T10:31:53Z</time>
      </trkpt>
      <trkpt lat="45.951032191514969" lon="9.538223762065172">
        <ele>2060.7199999999998</ele>
        <time>2016-01-10T10:31:58Z</time>
      </trkpt>
      <trkpt lat="45.951083656400442" lon="9.53824857249856">
        <ele>2062.6500000000001</ele>
        <time>2016-01-10T10:32:07Z</time>
      </trkpt>
      <trkpt lat="45.951108047738671" lon="9.53825443983078">
        <ele>2062.6500000000001</ele>
        <time>2016-01-10T10:32:16Z</time>
      </trkpt>
      <trkpt lat="45.951112406328321" lon="9.538267264142633">
        <ele>2062.1700000000001</ele>
        <time>2016-01-10T10:32:30Z</time>
      </trkpt>
      <trkpt lat="45.951109305024147" lon="9.538279585540295">
        <ele>2062.1700000000001</ele>
        <time>2016-01-10T10:32:39Z</time>
      </trkpt>
      <trkpt lat="45.95110553316772" lon="9.538287883624435">
        <ele>2062.1700000000001</ele>
        <time>2016-01-10T10:32:54Z</time>
      </trkpt>
      <trkpt lat="45.951119195669889" lon="9.538288386538625">
        <ele>2062.6500000000001</ele>
        <time>2016-01-10T10:33:07Z</time>
      </trkpt>
      <trkpt lat="45.951148280873895" lon="9.538253685459495">
        <ele>2062.1700000000001</ele>
        <time>2016-01-10T10:33:16Z</time>
      </trkpt>
      <trkpt lat="45.951164457947016" lon="9.538247231394053">
        <ele>2061.6799999999998</ele>
        <time>2016-01-10T10:33:18Z</time>
      </trkpt>
      <trkpt lat="45.951239643618464" lon="9.53819484449923">
        <ele>2060.7199999999998</ele>
        <time>2016-01-10T10:33:28Z</time>
      </trkpt>
      <trkpt lat="45.951306615024805" lon="9.538123765960336">
        <ele>2060.7199999999998</ele>
        <time>2016-01-10T10:33:39Z</time>
      </trkpt>
      <trkpt lat="45.951357912272215" lon="9.538099290803075">
        <ele>2061.1999999999998</ele>
        <time>2016-01-10T10:33:48Z</time>
      </trkpt>
      <trkpt lat="45.951366797089577" lon="9.538126280531287">
        <ele>2060.7199999999998</ele>
        <time>2016-01-10T10:33:56Z</time>
      </trkpt>
      <trkpt lat="45.951346093788743" lon="9.538132147863507">
        <ele>2061.1999999999998</ele>
        <time>2016-01-10T10:34:09Z</time>
      </trkpt>
      <trkpt lat="45.951336454600096" lon="9.538119239732623">
        <ele>2061.1999999999998</ele>
        <time>2016-01-10T10:34:17Z</time>
      </trkpt>
      <trkpt lat="45.951319439336658" lon="9.538130722939968">
        <ele>2061.1999999999998</ele>
        <time>2016-01-10T10:34:32Z</time>
      </trkpt>
      <trkpt lat="45.951317008584738" lon="9.538137512281537">
        <ele>2061.1999999999998</ele>
        <time>2016-01-10T10:34:54Z</time>
      </trkpt>
      <trkpt lat="45.951320612803102" lon="9.53812493942678">
        <ele>2061.1999999999998</ele>
        <time>2016-01-10T10:35:12Z</time>
      </trkpt>
      <trkpt lat="45.951290186494589" lon="9.538174392655492">
        <ele>2060.7199999999998</ele>
        <time>2016-01-10T10:35:24Z</time>
      </trkpt>
      <trkpt lat="45.951262274757028" lon="9.538206160068512">
        <ele>2060.2399999999998</ele>
        <time>2016-01-10T10:35:31Z</time>
      </trkpt>
      <trkpt lat="45.951186083257198" lon="9.538262821733952">
        <ele>2061.1999999999998</ele>
        <time>2016-01-10T10:35:41Z</time>
      </trkpt>
      <trkpt lat="45.951118357479572" lon="9.5382862072438">
        <ele>2061.6799999999998</ele>
        <time>2016-01-10T10:35:51Z</time>
      </trkpt>
      <trkpt lat="45.951072759926319" lon="9.538272293284535">
        <ele>2062.1700000000001</ele>
        <time>2016-01-10T10:36:02Z</time>
      </trkpt>
      <trkpt lat="45.951072257012129" lon="9.538261899724603">
        <ele>2062.1700000000001</ele>
        <time>2016-01-10T10:36:15Z</time>
      </trkpt>
      <trkpt lat="45.951072759926319" lon="9.538251673802733">
        <ele>2062.1700000000001</ele>
        <time>2016-01-10T10:36:29Z</time>
      </trkpt>
      <trkpt lat="45.95106890425086" lon="9.538257960230112">
        <ele>2061.6799999999998</ele>
        <time>2016-01-10T10:36:44Z</time>
      </trkpt>
      <trkpt lat="45.951072759926319" lon="9.538254020735622">
        <ele>2062.1700000000001</ele>
        <time>2016-01-10T10:36:45Z</time>
      </trkpt>
      <trkpt lat="45.951025653630495" lon="9.538253434002399">
        <ele>2060.7199999999998</ele>
        <time>2016-01-10T10:36:54Z</time>
      </trkpt>
      <trkpt lat="45.950993467122316" lon="9.538264749571681">
        <ele>2059.7600000000002</ele>
        <time>2016-01-10T10:37:00Z</time>
      </trkpt>
      <trkpt lat="45.950900847092271" lon="9.538298193365336">
        <ele>2058.8000000000002</ele>
        <time>2016-01-10T10:37:11Z</time>
      </trkpt>
      <trkpt lat="45.950843095779419" lon="9.538310430943966">
        <ele>2059.2800000000002</ele>
        <time>2016-01-10T10:37:19Z</time>
      </trkpt>
      <trkpt lat="45.950830858200788" lon="9.538309089839459">
        <ele>2058.8000000000002</ele>
        <time>2016-01-10T10:37:29Z</time>
      </trkpt>
      <trkpt lat="45.950820380821824" lon="9.538311688229442">
        <ele>2058.8000000000002</ele>
        <time>2016-01-10T10:37:38Z</time>
      </trkpt>
      <trkpt lat="45.950807891786098" lon="9.538317639380693">
        <ele>2056.8800000000001</ele>
        <time>2016-01-10T10:38:05Z</time>
      </trkpt>
      <trkpt lat="45.950803617015481" lon="9.538310011848807">
        <ele>2058.3200000000002</ele>
        <time>2016-01-10T10:38:16Z</time>
      </trkpt>
      <trkpt lat="45.950818788260221" lon="9.538297355175018">
        <ele>2058.3200000000002</ele>
        <time>2016-01-10T10:38:26Z</time>
      </trkpt>
      <trkpt lat="45.950821302831173" lon="9.538305234164">
        <ele>2058.8000000000002</ele>
        <time>2016-01-10T10:38:30Z</time>
      </trkpt>
      <trkpt lat="45.95075860619545" lon="9.538270784541965">
        <ele>2055.9200000000001</ele>
        <time>2016-01-10T10:38:37Z</time>
      </trkpt>
      <trkpt lat="45.950727174058557" lon="9.5382378436625">
        <ele>2054.4699999999998</ele>
        <time>2016-01-10T10:38:40Z</time>
      </trkpt>
      <trkpt lat="45.950640756636858" lon="9.538166178390384">
        <ele>2051.1100000000001</ele>
        <time>2016-01-10T10:38:51Z</time>
      </trkpt>
      <trkpt lat="45.95063254237175" lon="9.538163747638464">
        <ele>2050.6300000000001</ele>
        <time>2016-01-10T10:38:52Z</time>
      </trkpt>
      <trkpt lat="45.950559619814157" lon="9.538094010204077">
        <ele>2048.71</ele>
        <time>2016-01-10T10:39:00Z</time>
      </trkpt>
      <trkpt lat="45.950509328395128" lon="9.538052687421441">
        <ele>2047.75</ele>
        <time>2016-01-10T10:39:06Z</time>
      </trkpt>
      <trkpt lat="45.950452079996467" lon="9.537978088483214">
        <ele>2044.8599999999999</ele>
        <time>2016-01-10T10:39:15Z</time>
      </trkpt>
      <trkpt lat="45.950425509363413" lon="9.537960235029459">
        <ele>2044.3800000000001</ele>
        <time>2016-01-10T10:39:18Z</time>
      </trkpt>
      <trkpt lat="45.950390053912997" lon="9.537919079884887">
        <ele>2042.46</ele>
        <time>2016-01-10T10:39:23Z</time>
      </trkpt>
      <trkpt lat="45.950344791635871" lon="9.537881864234805">
        <ele>2039.5699999999999</ele>
        <time>2016-01-10T10:39:28Z</time>
      </trkpt>
      <trkpt lat="45.950269186869264" lon="9.537819251418114">
        <ele>2036.21</ele>
        <time>2016-01-10T10:39:37Z</time>
      </trkpt>
      <trkpt lat="45.950222248211503" lon="9.537739371880889">
        <ele>2033.8099999999999</ele>
        <time>2016-01-10T10:39:44Z</time>
      </trkpt>
      <trkpt lat="45.950203305110335" lon="9.537712465971708">
        <ele>2033.3299999999999</ele>
        <time>2016-01-10T10:39:47Z</time>
      </trkpt>
      <trkpt lat="45.95015611499548" lon="9.53760014846921">
        <ele>2030.4400000000001</ele>
        <time>2016-01-10T10:39:55Z</time>
      </trkpt>
      <trkpt lat="45.95015024766326" lon="9.537564609199762">
        <ele>2029.96</ele>
        <time>2016-01-10T10:39:57Z</time>
      </trkpt>
      <trkpt lat="45.950085120275617" lon="9.537461595609784">
        <ele>2028.04</ele>
        <time>2016-01-10T10:40:05Z</time>
      </trkpt>
      <trkpt lat="45.950071541592479" lon="9.537435108795762">
        <ele>2027.5599999999999</ele>
        <time>2016-01-10T10:40:07Z</time>
      </trkpt>
      <trkpt lat="45.950015047565103" lon="9.537300243973732">
        <ele>2024.6700000000001</ele>
        <time>2016-01-10T10:40:19Z</time>
      </trkpt>
      <trkpt lat="45.950000295415521" lon="9.537285072728992">
        <ele>2022.75</ele>
        <time>2016-01-10T10:40:21Z</time>
      </trkpt>
      <trkpt lat="45.949979173019528" lon="9.537274092435837">
        <ele>2022.75</ele>
        <time>2016-01-10T10:40:24Z</time>
      </trkpt>
      <trkpt lat="45.949948662891984" lon="9.537226399406791">
        <ele>2021.3099999999999</ele>
        <time>2016-01-10T10:40:35Z</time>
      </trkpt>
      <trkpt lat="45.949868699535728" lon="9.537207959219813">
        <ele>2018.9100000000001</ele>
        <time>2016-01-10T10:40:45Z</time>
      </trkpt>
      <trkpt lat="45.949846906587481" lon="9.537244001403451">
        <ele>2017.46</ele>
        <time>2016-01-10T10:40:54Z</time>
      </trkpt>
      <trkpt lat="45.949827963486314" lon="9.537359336391091">
        <ele>2015.0599999999999</ele>
        <time>2016-01-10T10:41:05Z</time>
      </trkpt>
      <trkpt lat="45.949826454743743" lon="9.537370568141341">
        <ele>2015.0599999999999</ele>
        <time>2016-01-10T10:41:06Z</time>
      </trkpt>
      <trkpt lat="45.949828801676631" lon="9.537389762699604">
        <ele>2014.0999999999999</ele>
        <time>2016-01-10T10:41:08Z</time>
      </trkpt>
      <trkpt lat="45.94974959269166" lon="9.537442233413458">
        <ele>2010.73</ele>
        <time>2016-01-10T10:41:17Z</time>
      </trkpt>
      <trkpt lat="45.949683794751763" lon="9.537457320839167">
        <ele>2007.3699999999999</ele>
        <time>2016-01-10T10:41:24Z</time>
      </trkpt>
      <trkpt lat="45.949666192755103" lon="9.537536446005106">
        <ele>2004.01</ele>
        <time>2016-01-10T10:41:34Z</time>
      </trkpt>
      <trkpt lat="45.949643729254603" lon="9.537743395194411">
        <ele>2000.6400000000001</ele>
        <time>2016-01-10T10:41:47Z</time>
      </trkpt>
      <trkpt lat="45.94963769428432" lon="9.537870800122619">
        <ele>2000.6400000000001</ele>
        <time>2016-01-10T10:41:57Z</time>
      </trkpt>
      <trkpt lat="45.949615398421884" lon="9.537941962480545">
        <ele>1999.6800000000001</ele>
        <time>2016-01-10T10:42:02Z</time>
      </trkpt>
      <trkpt lat="45.949522443115711" lon="9.538078587502241">
        <ele>1998.24</ele>
        <time>2016-01-10T10:42:14Z</time>
      </trkpt>
      <trkpt lat="45.949511798098683" lon="9.538107085973024">
        <ele>1998.24</ele>
        <time>2016-01-10T10:42:16Z</time>
      </trkpt>
      <trkpt lat="45.949473408982158" lon="9.53813910484314">
        <ele>1997.28</ele>
        <time>2016-01-10T10:42:20Z</time>
      </trkpt>
      <trkpt lat="45.949438204988837" lon="9.538321830332279">
        <ele>1995.8299999999999</ele>
        <time>2016-01-10T10:42:33Z</time>
      </trkpt>
      <trkpt lat="45.949424123391509" lon="9.538357453420758">
        <ele>1995.3499999999999</ele>
        <time>2016-01-10T10:42:36Z</time>
      </trkpt>
      <trkpt lat="45.949341896921396" lon="9.538517547771335">
        <ele>1993.4300000000001</ele>
        <time>2016-01-10T10:42:50Z</time>
      </trkpt>
      <trkpt lat="45.949331503361464" lon="9.538544286042452">
        <ele>1992.95</ele>
        <time>2016-01-10T10:42:52Z</time>
      </trkpt>
      <trkpt lat="45.94926486723125" lon="9.538688538596034">
        <ele>1990.55</ele>
        <time>2016-01-10T10:43:03Z</time>
      </trkpt>
      <trkpt lat="45.949257742613554" lon="9.538693316280842">
        <ele>1990.55</ele>
        <time>2016-01-10T10:43:04Z</time>
      </trkpt>
      <trkpt lat="45.949190771207213" lon="9.53878509812057">
        <ele>1988.6199999999999</ele>
        <time>2016-01-10T10:43:15Z</time>
      </trkpt>
      <trkpt lat="45.949169648811221" lon="9.538825582712889">
        <ele>1988.1400000000001</ele>
        <time>2016-01-10T10:43:19Z</time>
      </trkpt>
      <trkpt lat="45.949092702940106" lon="9.538928512483835">
        <ele>1987.6600000000001</ele>
        <time>2016-01-10T10:43:30Z</time>
      </trkpt>
      <trkpt lat="45.949053224176168" lon="9.538941001519561">
        <ele>1986.22</ele>
        <time>2016-01-10T10:43:39Z</time>
      </trkpt>
      <trkpt lat="45.949025060981512" lon="9.538969416171312">
        <ele>1985.74</ele>
        <time>2016-01-10T10:43:42Z</time>
      </trkpt>
      <trkpt lat="45.948983486741781" lon="9.539048206061125">
        <ele>1983.3399999999999</ele>
        <time>2016-01-10T10:43:48Z</time>
      </trkpt>
      <trkpt lat="45.94896487891674" lon="9.539025323465467">
        <ele>1982.3800000000001</ele>
        <time>2016-01-10T10:43:50Z</time>
      </trkpt>
      <trkpt lat="45.948899332433939" lon="9.539057090878487">
        <ele>1980.45</ele>
        <time>2016-01-10T10:44:00Z</time>
      </trkpt>
      <trkpt lat="45.948833785951138" lon="9.539022138342261">
        <ele>1978.05</ele>
        <time>2016-01-10T10:44:09Z</time>
      </trkpt>
      <trkpt lat="45.948788858950138" lon="9.538977295160294">
        <ele>1976.6099999999999</ele>
        <time>2016-01-10T10:44:14Z</time>
      </trkpt>
      <trkpt lat="45.948755582794547" lon="9.53901719301939">
        <ele>1976.1300000000001</ele>
        <time>2016-01-10T10:44:21Z</time>
      </trkpt>
      <trkpt lat="45.94875717535615" lon="9.539027083665133">
        <ele>1975.6500000000001</ele>
        <time>2016-01-10T10:44:22Z</time>
      </trkpt>
      <trkpt lat="45.948757762089372" lon="9.539110483601689">
        <ele>1975.1700000000001</ele>
        <time>2016-01-10T10:44:29Z</time>
      </trkpt>
      <trkpt lat="45.948727671056986" lon="9.539142921566963">
        <ele>1974.2</ele>
        <time>2016-01-10T10:44:32Z</time>
      </trkpt>
      <trkpt lat="45.948640163987875" lon="9.539230763912201">
        <ele>1971.8</ele>
        <time>2016-01-10T10:44:42Z</time>
      </trkpt>
      <trkpt lat="45.948628010228276" lon="9.539246186614037">
        <ele>1971.3199999999999</ele>
        <time>2016-01-10T10:44:44Z</time>
      </trkpt>
      <trkpt lat="45.948601271957159" lon="9.539224393665791">
        <ele>1970.3599999999999</ele>
        <time>2016-01-10T10:44:48Z</time>
      </trkpt>
      <trkpt lat="45.948584089055657" lon="9.53921508975327">
        <ele>1969.8800000000001</ele>
        <time>2016-01-10T10:44:50Z</time>
      </trkpt>
      <trkpt lat="45.948522901162505" lon="9.539289018139243">
        <ele>1967.96</ele>
        <time>2016-01-10T10:44:58Z</time>
      </trkpt>
      <trkpt lat="45.948474369943142" lon="9.539390690624714">
        <ele>1966.51</ele>
        <time>2016-01-10T10:45:06Z</time>
      </trkpt>
      <trkpt lat="45.948422150686383" lon="9.539405526593328">
        <ele>1965.0699999999999</ele>
        <time>2016-01-10T10:45:11Z</time>
      </trkpt>
      <trkpt lat="45.948365572839975" lon="9.539376609027386">
        <ele>1962.6700000000001</ele>
        <time>2016-01-10T10:45:19Z</time>
      </trkpt>
      <trkpt lat="45.948318634182215" lon="9.539457494392991">
        <ele>1960.27</ele>
        <time>2016-01-10T10:45:26Z</time>
      </trkpt>
      <trkpt lat="45.948316538706422" lon="9.539479706436396">
        <ele>1960.27</ele>
        <time>2016-01-10T10:45:28Z</time>
      </trkpt>
      <trkpt lat="45.948257697746158" lon="9.539620690047741">
        <ele>1957.3800000000001</ele>
        <time>2016-01-10T10:45:38Z</time>
      </trkpt>
      <trkpt lat="45.94822802580893" lon="9.539651200175285">
        <ele>1956.4200000000001</ele>
        <time>2016-01-10T10:45:43Z</time>
      </trkpt>
      <trkpt lat="45.948208831250668" lon="9.539658408612013">
        <ele>1955.46</ele>
        <time>2016-01-10T10:45:45Z</time>
      </trkpt>
      <trkpt lat="45.948192989453673" lon="9.53964265063405">
        <ele>1954.98</ele>
        <time>2016-01-10T10:45:47Z</time>
      </trkpt>
      <trkpt lat="45.948177734389901" lon="9.539661509916186">
        <ele>1954.5</ele>
        <time>2016-01-10T10:45:49Z</time>
      </trkpt>
      <trkpt lat="45.948137501254678" lon="9.539744155481458">
        <ele>1953.0599999999999</ele>
        <time>2016-01-10T10:45:57Z</time>
      </trkpt>
      <trkpt lat="45.948097100481391" lon="9.539825124666095">
        <ele>1952.5699999999999</ele>
        <time>2016-01-10T10:46:03Z</time>
      </trkpt>
      <trkpt lat="45.948053598403931" lon="9.53987767919898">
        <ele>1951.1300000000001</ele>
        <time>2016-01-10T10:46:09Z</time>
      </trkpt>
      <trkpt lat="45.947989644482732" lon="9.540003072470427">
        <ele>1948.25</ele>
        <time>2016-01-10T10:46:20Z</time>
      </trkpt>
      <trkpt lat="45.947978245094419" lon="9.539992930367589">
        <ele>1947.77</ele>
        <time>2016-01-10T10:46:29Z</time>
      </trkpt>
      <trkpt lat="45.947954691946507" lon="9.54001153819263">
        <ele>1948.25</ele>
        <time>2016-01-10T10:46:44Z</time>
      </trkpt>
      <trkpt lat="45.947946393862367" lon="9.540014052763581">
        <ele>1947.77</ele>
        <time>2016-01-10T10:46:45Z</time>
      </trkpt>
      <trkpt lat="45.947910603135824" lon="9.540036600083113">
        <ele>1946.3299999999999</ele>
        <time>2016-01-10T10:46:49Z</time>
      </trkpt>
      <trkpt lat="45.947868190705776" lon="9.540089573711157">
        <ele>1944.8800000000001</ele>
        <time>2016-01-10T10:46:54Z</time>
      </trkpt>
      <trkpt lat="45.947852097451687" lon="9.540108013898134">
        <ele>1944.4000000000001</ele>
        <time>2016-01-10T10:46:56Z</time>
      </trkpt>
      <trkpt lat="45.947781773284078" lon="9.540157383307815">
        <ele>1942</ele>
        <time>2016-01-10T10:47:07Z</time>
      </trkpt>
      <trkpt lat="45.94777355901897" lon="9.540153695270419">
        <ele>1940.5599999999999</ele>
        <time>2016-01-10T10:47:14Z</time>
      </trkpt>
      <trkpt lat="45.9476597327739" lon="9.540226953104138">
        <ele>1938.6400000000001</ele>
        <time>2016-01-10T10:47:25Z</time>
      </trkpt>
      <trkpt lat="45.947619415819645" lon="9.540272299200296">
        <ele>1939.1199999999999</ele>
        <time>2016-01-10T10:47:35Z</time>
      </trkpt>
      <trkpt lat="45.947617823258042" lon="9.540285039693117">
        <ele>1938.6400000000001</ele>
        <time>2016-01-10T10:47:58Z</time>
      </trkpt>
      <trkpt lat="45.947611201554537" lon="9.540268946439028">
        <ele>1939.1199999999999</ele>
        <time>2016-01-10T10:48:12Z</time>
      </trkpt>
      <trkpt lat="45.947621762752533" lon="9.540244555100799">
        <ele>1938.6400000000001</ele>
        <time>2016-01-10T10:48:22Z</time>
      </trkpt>
      <trkpt lat="45.947647076100111" lon="9.540216391906142">
        <ele>1938.6400000000001</ele>
        <time>2016-01-10T10:48:25Z</time>
      </trkpt>
      <trkpt lat="45.947690661996603" lon="9.540137685835362">
        <ele>1937.6700000000001</ele>
        <time>2016-01-10T10:48:34Z</time>
      </trkpt>
      <trkpt lat="45.947696277871728" lon="9.539975244551897">
        <ele>1934.3099999999999</ele>
        <time>2016-01-10T10:48:46Z</time>
      </trkpt>
      <trkpt lat="45.947668785229325" lon="9.540025452151895">
        <ele>1932.8699999999999</ele>
        <time>2016-01-10T10:48:56Z</time>
      </trkpt>
      <trkpt lat="45.947675155475736" lon="9.540030565112829">
        <ele>1932.8699999999999</ele>
        <time>2016-01-10T10:49:01Z</time>
      </trkpt>
      <trkpt lat="45.947646657004952" lon="9.540088148787618">
        <ele>1931.9100000000001</ele>
        <time>2016-01-10T10:49:06Z</time>
      </trkpt>
      <trkpt lat="45.94755420461297" lon="9.540089406073093">
        <ele>1929.02</ele>
        <time>2016-01-10T10:49:17Z</time>
      </trkpt>
      <trkpt lat="45.94754196703434" lon="9.540069289505482">
        <ele>1928.54</ele>
        <time>2016-01-10T10:49:20Z</time>
      </trkpt>
      <trkpt lat="45.947516988962889" lon="9.539999971166253">
        <ele>1926.6199999999999</ele>
        <time>2016-01-10T10:49:28Z</time>
      </trkpt>
      <trkpt lat="45.947541380301118" lon="9.539899053052068">
        <ele>1924.7</ele>
        <time>2016-01-10T10:49:38Z</time>
      </trkpt>
      <trkpt lat="45.947537608444691" lon="9.539891090244055">
        <ele>1924.22</ele>
        <time>2016-01-10T10:49:39Z</time>
      </trkpt>
      <trkpt lat="45.947495028376579" lon="9.539899472147226">
        <ele>1922.77</ele>
        <time>2016-01-10T10:49:48Z</time>
      </trkpt>
      <trkpt lat="45.947448676452041" lon="9.539880696684122">
        <ele>1920.8499999999999</ele>
        <time>2016-01-10T10:49:57Z</time>
      </trkpt>
      <trkpt lat="45.947430320084095" lon="9.539856556802988">
        <ele>1920.3699999999999</ele>
        <time>2016-01-10T10:50:00Z</time>
      </trkpt>
      <trkpt lat="45.947389332577586" lon="9.53984591178596">
        <ele>1918.9300000000001</ele>
        <time>2016-01-10T10:50:04Z</time>
      </trkpt>
      <trkpt lat="45.947392098605633" lon="9.539781119674444">
        <ele>1917.49</ele>
        <time>2016-01-10T10:50:14Z</time>
      </trkpt>
      <trkpt lat="45.94738220795989" lon="9.539789250120521">
        <ele>1917.49</ele>
        <time>2016-01-10T10:50:22Z</time>
      </trkpt>
      <trkpt lat="45.947377849370241" lon="9.539824286475778">
        <ele>1918.45</ele>
        <time>2016-01-10T10:50:33Z</time>
      </trkpt>
      <trkpt lat="45.947368629276752" lon="9.539820598438382">
        <ele>1917.01</ele>
        <time>2016-01-10T10:50:36Z</time>
      </trkpt>
      <trkpt lat="45.947344657033682" lon="9.539801990613341">
        <ele>1916.53</ele>
        <time>2016-01-10T10:50:39Z</time>
      </trkpt>
      <trkpt lat="45.94731280580163" lon="9.539776258170605">
        <ele>1915.0799999999999</ele>
        <time>2016-01-10T10:50:43Z</time>
      </trkpt>
      <trkpt lat="45.947236614301801" lon="9.539743065834045">
        <ele>1912.2</ele>
        <time>2016-01-10T10:50:52Z</time>
      </trkpt>
      <trkpt lat="45.947201913222671" lon="9.539742646738887">
        <ele>1910.76</ele>
        <time>2016-01-10T10:50:55Z</time>
      </trkpt>
      <trkpt lat="45.947107616811991" lon="9.539754465222359">
        <ele>1907.8699999999999</ele>
        <time>2016-01-10T10:51:06Z</time>
      </trkpt>
      <trkpt lat="45.947078866884112" lon="9.539753710851073">
        <ele>1906.4300000000001</ele>
        <time>2016-01-10T10:51:10Z</time>
      </trkpt>
      <trkpt lat="45.946980379521847" lon="9.539755051955581">
        <ele>1903.55</ele>
        <time>2016-01-10T10:51:20Z</time>
      </trkpt>
      <trkpt lat="45.946968896314502" lon="9.539760751649737">
        <ele>1902.5899999999999</ele>
        <time>2016-01-10T10:51:28Z</time>
      </trkpt>
      <trkpt lat="45.946940649300814" lon="9.539769552648068">
        <ele>1901.1400000000001</ele>
        <time>2016-01-10T10:51:32Z</time>
      </trkpt>
      <trkpt lat="45.946811819449067" lon="9.539818083867431">
        <ele>1898.26</ele>
        <time>2016-01-10T10:51:43Z</time>
      </trkpt>
      <trkpt lat="45.9467513859272" lon="9.539842559024692">
        <ele>1896.3399999999999</ele>
        <time>2016-01-10T10:51:48Z</time>
      </trkpt>
      <trkpt lat="45.946709308773279" lon="9.539860831573606">
        <ele>1894.9000000000001</ele>
        <time>2016-01-10T10:51:53Z</time>
      </trkpt>
      <trkpt lat="45.946644684299827" lon="9.539853790774941">
        <ele>1893.9300000000001</ele>
        <time>2016-01-10T10:51:59Z</time>
      </trkpt>
      <trkpt lat="45.946521554142237" lon="9.539854628965259">
        <ele>1891.53</ele>
        <time>2016-01-10T10:52:10Z</time>
      </trkpt>
      <trkpt lat="45.946413008496165" lon="9.539905171841383">
        <ele>1890.5699999999999</ele>
        <time>2016-01-10T10:52:19Z</time>
      </trkpt>
      <trkpt lat="45.946351233869791" lon="9.539892682805657">
        <ele>1889.1300000000001</ele>
        <time>2016-01-10T10:52:24Z</time>
      </trkpt>
      <trkpt lat="45.946199940517545" lon="9.539833506569266">
        <ele>1887.6900000000001</ele>
        <time>2016-01-10T10:52:38Z</time>
      </trkpt>
      <trkpt lat="45.946157528087497" lon="9.53983417712152">
        <ele>1887.6900000000001</ele>
        <time>2016-01-10T10:52:42Z</time>
      </trkpt>
      <trkpt lat="45.946080666035414" lon="9.539801990613341">
        <ele>1885.28</ele>
        <time>2016-01-10T10:52:50Z</time>
      </trkpt>
      <trkpt lat="45.945953680202365" lon="9.539781203493476">
        <ele>1882.8800000000001</ele>
        <time>2016-01-10T10:53:01Z</time>
      </trkpt>
      <trkpt lat="45.945896934717894" lon="9.539800817146897">
        <ele>1882.4000000000001</ele>
        <time>2016-01-10T10:53:06Z</time>
      </trkpt>
      <trkpt lat="45.945875896140933" lon="9.539815904572606">
        <ele>1881.4400000000001</ele>
        <time>2016-01-10T10:53:09Z</time>
      </trkpt>
      <trkpt lat="45.945826526731253" lon="9.539828477427363">
        <ele>1880.96</ele>
        <time>2016-01-10T10:53:13Z</time>
      </trkpt>
      <trkpt lat="45.945700546726584" lon="9.539917493239045">
        <ele>1880.48</ele>
        <time>2016-01-10T10:53:26Z</time>
      </trkpt>
      <trkpt lat="45.945666683837771" lon="9.539916822686791">
        <ele>1879.51</ele>
        <time>2016-01-10T10:53:29Z</time>
      </trkpt>
      <trkpt lat="45.945609351620078" lon="9.539944315329194">
        <ele>1879.03</ele>
        <time>2016-01-10T10:53:39Z</time>
      </trkpt>
      <trkpt lat="45.945584708824754" lon="9.539955882355571">
        <ele>1879.03</ele>
        <time>2016-01-10T10:53:50Z</time>
      </trkpt>
      <trkpt lat="45.94558646902442" lon="9.539912296459079">
        <ele>1878.55</ele>
        <time>2016-01-10T10:54:02Z</time>
      </trkpt>
      <trkpt lat="45.945584625005722" lon="9.539910200983286">
        <ele>1878.55</ele>
        <time>2016-01-10T10:54:17Z</time>
      </trkpt>
      <trkpt lat="45.945591330528259" lon="9.539901651442051">
        <ele>1878.55</ele>
        <time>2016-01-10T10:54:29Z</time>
      </trkpt>
      <trkpt lat="45.945571549236774" lon="9.539901819080114">
        <ele>1878.55</ele>
        <time>2016-01-10T10:54:42Z</time>
      </trkpt>
      <trkpt lat="45.945582613348961" lon="9.539908608421683">
        <ele>1878.55</ele>
        <time>2016-01-10T10:54:55Z</time>
      </trkpt>
      <trkpt lat="45.945572471246123" lon="9.539896203204989">
        <ele>1879.03</ele>
        <time>2016-01-10T10:55:09Z</time>
      </trkpt>
      <trkpt lat="45.945564173161983" lon="9.539897544309497">
        <ele>1878.55</ele>
        <time>2016-01-10T10:55:19Z</time>
      </trkpt>
      <trkpt lat="45.945562329143286" lon="9.539905590936542">
        <ele>1878.55</ele>
        <time>2016-01-10T10:55:30Z</time>
      </trkpt>
      <trkpt lat="45.945553192868829" lon="9.539952864870429">
        <ele>1879.51</ele>
        <time>2016-01-10T10:55:34Z</time>
      </trkpt>
      <trkpt lat="45.94553173519671" lon="9.540024697780609">
        <ele>1879.03</ele>
        <time>2016-01-10T10:55:40Z</time>
      </trkpt>
      <trkpt lat="45.945440204814076" lon="9.540079347789288">
        <ele>1878.55</ele>
        <time>2016-01-10T10:55:50Z</time>
      </trkpt>
      <trkpt lat="45.945346411317587" lon="9.540102481842041">
        <ele>1879.03</ele>
        <time>2016-01-10T10:56:01Z</time>
      </trkpt>
      <trkpt lat="45.945273069664836" lon="9.540181187912822">
        <ele>1879.51</ele>
        <time>2016-01-10T10:56:11Z</time>
      </trkpt>
      <trkpt lat="45.945257563143969" lon="9.540196191519499">
        <ele>1880</ele>
        <time>2016-01-10T10:56:13Z</time>
      </trkpt>
      <trkpt lat="45.945164691656828" lon="9.540282106027007">
        <ele>1880.48</ele>
        <time>2016-01-10T10:56:27Z</time>
      </trkpt>
      <trkpt lat="45.945141725242138" lon="9.540281435474753">
        <ele>1881.4400000000001</ele>
        <time>2016-01-10T10:56:36Z</time>
      </trkpt>
      <trkpt lat="45.945132840424776" lon="9.540268359705806">
        <ele>1880.48</ele>
        <time>2016-01-10T10:56:53Z</time>
      </trkpt>
      <trkpt lat="45.94513108022511" lon="9.540247991681099">
        <ele>1880</ele>
        <time>2016-01-10T10:57:04Z</time>
      </trkpt>
      <trkpt lat="45.945116076618433" lon="9.540194850414991">
        <ele>1880.48</ele>
        <time>2016-01-10T10:57:08Z</time>
      </trkpt>
      <trkpt lat="45.945098642259836" lon="9.540097704157233">
        <ele>1880</ele>
        <time>2016-01-10T10:57:19Z</time>
      </trkpt>
      <trkpt lat="45.945061258971691" lon="9.54004623927176">
        <ele>1879.51</ele>
        <time>2016-01-10T10:57:29Z</time>
      </trkpt>
      <trkpt lat="45.945057403296232" lon="9.540030229836702">
        <ele>1879.51</ele>
        <time>2016-01-10T10:57:30Z</time>
      </trkpt>
      <trkpt lat="45.94499085098505" lon="9.539893437176943">
        <ele>1880.48</ele>
        <time>2016-01-10T10:57:42Z</time>
      </trkpt>
      <trkpt lat="45.94492538832128" lon="9.539863346144557">
        <ele>1880.96</ele>
        <time>2016-01-10T10:57:51Z</time>
      </trkpt>
      <trkpt lat="45.944898733869195" lon="9.539863849058747">
        <ele>1881.4400000000001</ele>
        <time>2016-01-10T10:57:55Z</time>
      </trkpt>
      <trkpt lat="45.944828493520617" lon="9.539859993383288">
        <ele>1880</ele>
        <time>2016-01-10T10:58:02Z</time>
      </trkpt>
      <trkpt lat="45.944746686145663" lon="9.539901399984956">
        <ele>1877.1099999999999</ele>
        <time>2016-01-10T10:58:10Z</time>
      </trkpt>
      <trkpt lat="45.944735873490572" lon="9.539905088022351">
        <ele>1877.1099999999999</ele>
        <time>2016-01-10T10:58:11Z</time>
      </trkpt>
      <trkpt lat="45.944632776081562" lon="9.539883127436042">
        <ele>1875.1900000000001</ele>
        <time>2016-01-10T10:58:20Z</time>
      </trkpt>
      <trkpt lat="45.944590447470546" lon="9.539867369458079">
        <ele>1876.1500000000001</ele>
        <time>2016-01-10T10:58:30Z</time>
      </trkpt>
      <trkpt lat="45.944581143558025" lon="9.539871476590633">
        <ele>1875.6700000000001</ele>
        <time>2016-01-10T10:58:42Z</time>
      </trkpt>
      <trkpt lat="45.94443672336638" lon="9.539810121059418">
        <ele>1875.6700000000001</ele>
        <time>2016-01-10T10:58:54Z</time>
      </trkpt>
      <trkpt lat="45.944333961233497" lon="9.539759578183293">
        <ele>1874.23</ele>
        <time>2016-01-10T10:59:03Z</time>
      </trkpt>
      <trkpt lat="45.944289034232497" lon="9.539740383625031">
        <ele>1873.27</ele>
        <time>2016-01-10T10:59:07Z</time>
      </trkpt>
      <trkpt lat="45.944206975400448" lon="9.539655642583966">
        <ele>1872.79</ele>
        <time>2016-01-10T10:59:16Z</time>
      </trkpt>
      <trkpt lat="45.94414696097374" lon="9.539622534066439">
        <ele>1872.3</ele>
        <time>2016-01-10T10:59:22Z</time>
      </trkpt>
      <trkpt lat="45.944106057286263" lon="9.539609542116523">
        <ele>1872.3</ele>
        <time>2016-01-10T10:59:26Z</time>
      </trkpt>
      <trkpt lat="45.943995667621493" lon="9.539576517418027">
        <ele>1872.79</ele>
        <time>2016-01-10T10:59:39Z</time>
      </trkpt>
      <trkpt lat="45.943983513861895" lon="9.539691936224699">
        <ele>1873.75</ele>
        <time>2016-01-10T10:59:50Z</time>
      </trkpt>
      <trkpt lat="45.94397010281682" lon="9.539736108854413">
        <ele>1874.71</ele>
        <time>2016-01-10T10:59:54Z</time>
      </trkpt>
      <trkpt lat="45.943948393687606" lon="9.539873069152236">
        <ele>1874.71</ele>
        <time>2016-01-10T11:00:06Z</time>
      </trkpt>
      <trkpt lat="45.943921906873584" lon="9.539914643391967">
        <ele>1876.6300000000001</ele>
        <time>2016-01-10T11:00:12Z</time>
      </trkpt>
      <trkpt lat="45.943912016227841" lon="9.53991916961968">
        <ele>1876.6300000000001</ele>
        <time>2016-01-10T11:00:13Z</time>
      </trkpt>
      <trkpt lat="45.943832136690617" lon="9.539912883192301">
        <ele>1877.5899999999999</ele>
        <time>2016-01-10T11:00:20Z</time>
      </trkpt>
      <trkpt lat="45.943684615194798" lon="9.539906680583954">
        <ele>1877.1099999999999</ele>
        <time>2016-01-10T11:00:33Z</time>
      </trkpt>
      <trkpt lat="45.943598616868258" lon="9.540012460201979">
        <ele>1878.0699999999999</ele>
        <time>2016-01-10T11:00:44Z</time>
      </trkpt>
      <trkpt lat="45.943566262722015" lon="9.540062583982945">
        <ele>1878.55</ele>
        <time>2016-01-10T11:00:49Z</time>
      </trkpt>
      <trkpt lat="45.943529717624187" lon="9.540091753005981">
        <ele>1879.03</ele>
        <time>2016-01-10T11:00:53Z</time>
      </trkpt>
      <trkpt lat="45.943448329344392" lon="9.540158305317164">
        <ele>1879.03</ele>
        <time>2016-01-10T11:01:04Z</time>
      </trkpt>
      <trkpt lat="45.943423686549067" lon="9.540195940062404">
        <ele>1879.51</ele>
        <time>2016-01-10T11:01:08Z</time>
      </trkpt>
      <trkpt lat="45.943339951336384" lon="9.540277160704136">
        <ele>1880.96</ele>
        <time>2016-01-10T11:01:20Z</time>
      </trkpt>
      <trkpt lat="45.943289324641228" lon="9.540319908410311">
        <ele>1881.4400000000001</ele>
        <time>2016-01-10T11:01:29Z</time>
      </trkpt>
      <trkpt lat="45.943250767886639" lon="9.540391322225332">
        <ele>1881.9200000000001</ele>
        <time>2016-01-10T11:01:39Z</time>
      </trkpt>
      <trkpt lat="45.943189160898328" lon="9.540484948083758">
        <ele>1883.3599999999999</ele>
        <time>2016-01-10T11:01:50Z</time>
      </trkpt>
      <trkpt lat="45.943155130371451" lon="9.54054219648242">
        <ele>1884.3199999999999</ele>
        <time>2016-01-10T11:01:58Z</time>
      </trkpt>
      <trkpt lat="45.943134929984808" lon="9.540596595034003">
        <ele>1884.3199999999999</ele>
        <time>2016-01-10T11:02:02Z</time>
      </trkpt>
      <trkpt lat="45.943128475919366" lon="9.540752749890089">
        <ele>1884.3199999999999</ele>
        <time>2016-01-10T11:02:14Z</time>
      </trkpt>
      <trkpt lat="45.943135265260935" lon="9.540816955268383">
        <ele>1884.8</ele>
        <time>2016-01-10T11:02:29Z</time>
      </trkpt>
      <trkpt lat="45.943125039339066" lon="9.540895326063037">
        <ele>1885.28</ele>
        <time>2016-01-10T11:02:34Z</time>
      </trkpt>
      <trkpt lat="45.943122860044241" lon="9.540926925837994">
        <ele>1884.8</ele>
        <time>2016-01-10T11:02:36Z</time>
      </trkpt>
      <trkpt lat="45.943119423463941" lon="9.541037231683731">
        <ele>1885.76</ele>
        <time>2016-01-10T11:02:44Z</time>
      </trkpt>
      <trkpt lat="45.943069215863943" lon="9.541254239156842">
        <ele>1885.76</ele>
        <time>2016-01-10T11:02:58Z</time>
      </trkpt>
      <trkpt lat="45.943037113174796" lon="9.541409052908421">
        <ele>1887.21</ele>
        <time>2016-01-10T11:03:09Z</time>
      </trkpt>
      <trkpt lat="45.943026384338737" lon="9.541489686816931">
        <ele>1887.21</ele>
        <time>2016-01-10T11:03:14Z</time>
      </trkpt>
      <trkpt lat="45.943023031577468" lon="9.541658833622932">
        <ele>1888.1700000000001</ele>
        <time>2016-01-10T11:03:26Z</time>
      </trkpt>
      <trkpt lat="45.943022444844246" lon="9.54176570288837">
        <ele>1889.6099999999999</ele>
        <time>2016-01-10T11:03:35Z</time>
      </trkpt>
      <trkpt lat="45.942984139546752" lon="9.541884642094374">
        <ele>1891.05</ele>
        <time>2016-01-10T11:03:44Z</time>
      </trkpt>
      <trkpt lat="45.942917922511697" lon="9.542015651240945">
        <ele>1891.53</ele>
        <time>2016-01-10T11:03:54Z</time>
      </trkpt>
      <trkpt lat="45.942877605557442" lon="9.542129980400205">
        <ele>1892.49</ele>
        <time>2016-01-10T11:04:04Z</time>
      </trkpt>
      <trkpt lat="45.942803341895342" lon="9.542232910171151">
        <ele>1892.97</ele>
        <time>2016-01-10T11:04:15Z</time>
      </trkpt>
      <trkpt lat="45.94279202632606" lon="9.542253026738763">
        <ele>1892.97</ele>
        <time>2016-01-10T11:04:17Z</time>
      </trkpt>
      <trkpt lat="45.942709380760789" lon="9.542342713102698">
        <ele>1893.45</ele>
        <time>2016-01-10T11:04:27Z</time>
      </trkpt>
      <trkpt lat="45.942641403526068" lon="9.542445307597518">
        <ele>1894.9000000000001</ele>
        <time>2016-01-10T11:04:37Z</time>
      </trkpt>
      <trkpt lat="45.942590944468975" lon="9.54255536198616">
        <ele>1895.8599999999999</ele>
        <time>2016-01-10T11:04:47Z</time>
      </trkpt>
      <trkpt lat="45.942532774060965" lon="9.542653849348426">
        <ele>1897.3</ele>
        <time>2016-01-10T11:04:58Z</time>
      </trkpt>
      <trkpt lat="45.942489271983504" lon="9.542728699743748">
        <ele>1898.74</ele>
        <time>2016-01-10T11:05:07Z</time>
      </trkpt>
      <trkpt lat="45.942483991384506" lon="9.542740602046251">
        <ele>1898.74</ele>
        <time>2016-01-10T11:05:08Z</time>
      </trkpt>
      <trkpt lat="45.942472005262971" lon="9.54275761730969">
        <ele>1898.26</ele>
        <time>2016-01-10T11:05:10Z</time>
      </trkpt>
      <trkpt lat="45.942405369132757" lon="9.542805561795831">
        <ele>1899.7</ele>
        <time>2016-01-10T11:05:20Z</time>
      </trkpt>
      <trkpt lat="45.942369410768151" lon="9.542875718325377">
        <ele>1901.1400000000001</ele>
        <time>2016-01-10T11:05:29Z</time>
      </trkpt>
      <trkpt lat="45.942319622263312" lon="9.542933804914355">
        <ele>1900.1800000000001</ele>
        <time>2016-01-10T11:05:37Z</time>
      </trkpt>
      <trkpt lat="45.942313419654965" lon="9.542945204302669">
        <ele>1900.1800000000001</ele>
        <time>2016-01-10T11:05:38Z</time>
      </trkpt>
      <trkpt lat="45.942238150164485" lon="9.543059784919024">
        <ele>1899.7</ele>
        <time>2016-01-10T11:05:49Z</time>
      </trkpt>
      <trkpt lat="45.942214345559478" lon="9.543127259239554">
        <ele>1899.7</ele>
        <time>2016-01-10T11:05:54Z</time>
      </trkpt>
      <trkpt lat="45.942168077453971" lon="9.543226584792137">
        <ele>1901.1400000000001</ele>
        <time>2016-01-10T11:06:02Z</time>
      </trkpt>
      <trkpt lat="45.942129604518414" lon="9.543351978063583">
        <ele>1899.7</ele>
        <time>2016-01-10T11:06:10Z</time>
      </trkpt>
      <trkpt lat="45.942076295614243" lon="9.543483657762408">
        <ele>1901.1400000000001</ele>
        <time>2016-01-10T11:06:21Z</time>
      </trkpt>
      <trkpt lat="45.94200043939054" lon="9.54364500939846">
        <ele>1900.6600000000001</ele>
        <time>2016-01-10T11:06:33Z</time>
      </trkpt>
      <trkpt lat="45.941954338923097" lon="9.543679794296622">
        <ele>1900.6600000000001</ele>
        <time>2016-01-10T11:06:43Z</time>
      </trkpt>
      <trkpt lat="45.941938748583198" lon="9.543738132342696">
        <ele>1900.1800000000001</ele>
        <time>2016-01-10T11:06:56Z</time>
      </trkpt>
      <trkpt lat="45.941930031403899" lon="9.54372656531632">
        <ele>1900.6600000000001</ele>
        <time>2016-01-10T11:07:07Z</time>
      </trkpt>
      <trkpt lat="45.941940005868673" lon="9.543703012168407">
        <ele>1900.6600000000001</ele>
        <time>2016-01-10T11:07:16Z</time>
      </trkpt>
      <trkpt lat="45.94193791039288" lon="9.543697480112314">
        <ele>1900.1800000000001</ele>
        <time>2016-01-10T11:07:32Z</time>
      </trkpt>
      <trkpt lat="45.941935563459992" lon="9.543697396293283">
        <ele>1900.1800000000001</ele>
        <time>2016-01-10T11:07:44Z</time>
      </trkpt>
      <trkpt lat="45.941930366680026" lon="9.543706616386771">
        <ele>1900.6600000000001</ele>
        <time>2016-01-10T11:08:01Z</time>
      </trkpt>
      <trkpt lat="45.941929025575519" lon="9.543706784024835">
        <ele>1900.6600000000001</ele>
        <time>2016-01-10T11:08:12Z</time>
      </trkpt>
      <trkpt lat="45.941922655329108" lon="9.543705023825169">
        <ele>1900.6600000000001</ele>
        <time>2016-01-10T11:08:25Z</time>
      </trkpt>
      <trkpt lat="45.941927181556821" lon="9.543710639700294">
        <ele>1900.1800000000001</ele>
        <time>2016-01-10T11:08:38Z</time>
      </trkpt>
      <trkpt lat="45.941928271204233" lon="9.543707622215152">
        <ele>1900.6600000000001</ele>
        <time>2016-01-10T11:08:48Z</time>
      </trkpt>
      <trkpt lat="45.941927265375853" lon="9.543721284717321">
        <ele>1900.1800000000001</ele>
        <time>2016-01-10T11:08:53Z</time>
      </trkpt>
      <trkpt lat="45.941928271204233" lon="9.54372656531632">
        <ele>1899.7</ele>
        <time>2016-01-10T11:09:02Z</time>
      </trkpt>
      <trkpt lat="45.941941263154149" lon="9.543707370758057">
        <ele>1899.7</ele>
        <time>2016-01-10T11:09:30Z</time>
      </trkpt>
      <trkpt lat="45.941945370286703" lon="9.543710555881262">
        <ele>1899.7</ele>
        <time>2016-01-10T11:09:54Z</time>
      </trkpt>
      <trkpt lat="45.941940676420927" lon="9.543706700205803">
        <ele>1899.7</ele>
        <time>2016-01-10T11:10:22Z</time>
      </trkpt>
      <trkpt lat="45.941942855715752" lon="9.543702341616154">
        <ele>1899.7</ele>
        <time>2016-01-10T11:10:52Z</time>
      </trkpt>
      <trkpt lat="45.941937072202563" lon="9.543703682720661">
        <ele>1899.7</ele>
        <time>2016-01-10T11:11:13Z</time>
      </trkpt>
      <trkpt lat="45.941937072202563" lon="9.543707454577088">
        <ele>1899.7</ele>
        <time>2016-01-10T11:11:21Z</time>
      </trkpt>
      <trkpt lat="45.941941179335117" lon="9.543718434870243">
        <ele>1900.6600000000001</ele>
        <time>2016-01-10T11:11:28Z</time>
      </trkpt>
      <trkpt lat="45.9419403411448" lon="9.543713657185435">
        <ele>1900.6600000000001</ele>
        <time>2016-01-10T11:11:41Z</time>
      </trkpt>
      <trkpt lat="45.941928522661328" lon="9.543726816773415">
        <ele>1900.6600000000001</ele>
        <time>2016-01-10T11:12:03Z</time>
      </trkpt>
      <trkpt lat="45.941932965070009" lon="9.543739473447204">
        <ele>1901.6300000000001</ele>
        <time>2016-01-10T11:12:19Z</time>
      </trkpt>
      <trkpt lat="45.941914441064" lon="9.543744837865233">
        <ele>1901.6300000000001</ele>
        <time>2016-01-10T11:12:22Z</time>
      </trkpt>
      <trkpt lat="45.941909914836287" lon="9.543747771531344">
        <ele>1902.1099999999999</ele>
        <time>2016-01-10T11:12:32Z</time>
      </trkpt>
      <trkpt lat="45.941904801875353" lon="9.543746681883931">
        <ele>1901.6300000000001</ele>
        <time>2016-01-10T11:12:46Z</time>
      </trkpt>
      <trkpt lat="45.941901197656989" lon="9.543751627206802">
        <ele>1901.6300000000001</ele>
        <time>2016-01-10T11:12:58Z</time>
      </trkpt>
      <trkpt lat="45.941855851560831" lon="9.543745676055551">
        <ele>1902.1099999999999</ele>
        <time>2016-01-10T11:13:10Z</time>
      </trkpt>
      <trkpt lat="45.94175954349339" lon="9.543818766251206">
        <ele>1903.55</ele>
        <time>2016-01-10T11:13:21Z</time>
      </trkpt>
      <trkpt lat="45.941733224317431" lon="9.543859669938684">
        <ele>1903.0699999999999</ele>
        <time>2016-01-10T11:13:25Z</time>
      </trkpt>
      <trkpt lat="45.941670024767518" lon="9.544040802866221">
        <ele>1901.6300000000001</ele>
        <time>2016-01-10T11:13:37Z</time>
      </trkpt>
      <trkpt lat="45.94158947467804" lon="9.544133506715298">
        <ele>1902.5899999999999</ele>
        <time>2016-01-10T11:13:47Z</time>
      </trkpt>
      <trkpt lat="45.941584361717105" lon="9.544140044599772">
        <ele>1902.5899999999999</ele>
        <time>2016-01-10T11:13:48Z</time>
      </trkpt>
      <trkpt lat="45.94150934368372" lon="9.544150773435831">
        <ele>1903.0699999999999</ele>
        <time>2016-01-10T11:13:58Z</time>
      </trkpt>
      <trkpt lat="45.941440276801586" lon="9.544186061248183">
        <ele>1904.51</ele>
        <time>2016-01-10T11:14:08Z</time>
      </trkpt>
      <trkpt lat="45.941388979554176" lon="9.54420642927289">
        <ele>1905.95</ele>
        <time>2016-01-10T11:14:15Z</time>
      </trkpt>
      <trkpt lat="45.941341537982225" lon="9.544249176979065">
        <ele>1907.3900000000001</ele>
        <time>2016-01-10T11:14:27Z</time>
      </trkpt>
      <trkpt lat="45.941333742812276" lon="9.544295528903604">
        <ele>1908.3499999999999</ele>
        <time>2016-01-10T11:14:34Z</time>
      </trkpt>
      <trkpt lat="45.941329468041658" lon="9.544333498924971">
        <ele>1909.8</ele>
        <time>2016-01-10T11:14:42Z</time>
      </trkpt>
      <trkpt lat="45.941291246563196" lon="9.54438085667789">
        <ele>1911.24</ele>
        <time>2016-01-10T11:14:52Z</time>
      </trkpt>
      <trkpt lat="45.941280350089073" lon="9.544389406219125">
        <ele>1912.6800000000001</ele>
        <time>2016-01-10T11:15:00Z</time>
      </trkpt>
      <trkpt lat="45.941250594332814" lon="9.544434500858188">
        <ele>1914.1199999999999</ele>
        <time>2016-01-10T11:15:11Z</time>
      </trkpt>
      <trkpt lat="45.941288396716118" lon="9.544450175017119">
        <ele>1915.0799999999999</ele>
        <time>2016-01-10T11:15:21Z</time>
      </trkpt>
      <trkpt lat="45.941308094188571" lon="9.544492503628135">
        <ele>1917.97</ele>
        <time>2016-01-10T11:15:31Z</time>
      </trkpt>
      <trkpt lat="45.941343130543828" lon="9.544503483921289">
        <ele>1919.4100000000001</ele>
        <time>2016-01-10T11:15:39Z</time>
      </trkpt>
      <trkpt lat="45.941350841894746" lon="9.544594930484891">
        <ele>1921.3299999999999</ele>
        <time>2016-01-10T11:15:49Z</time>
      </trkpt>
      <trkpt lat="45.941328126937151" lon="9.54464228823781">
        <ele>1923.74</ele>
        <time>2016-01-10T11:16:01Z</time>
      </trkpt>
      <trkpt lat="45.941324690356851" lon="9.544687466695905">
        <ele>1924.22</ele>
        <time>2016-01-10T11:16:13Z</time>
      </trkpt>
      <trkpt lat="45.941320164129138" lon="9.544697357341647">
        <ele>1922.77</ele>
        <time>2016-01-10T11:16:20Z</time>
      </trkpt>
      <trkpt lat="45.941299209371209" lon="9.544705655425787">
        <ele>1925.6600000000001</ele>
        <time>2016-01-10T11:16:25Z</time>
      </trkpt>
      <trkpt lat="45.941291162744164" lon="9.544707499444485">
        <ele>1926.6199999999999</ele>
        <time>2016-01-10T11:16:27Z</time>
      </trkpt>
      <trkpt lat="45.941259814426303" lon="9.544736919924617">
        <ele>1926.1400000000001</ele>
        <time>2016-01-10T11:16:36Z</time>
      </trkpt>
      <trkpt lat="45.941246151924133" lon="9.544751588255167">
        <ele>1929.02</ele>
        <time>2016-01-10T11:16:39Z</time>
      </trkpt>
      <trkpt lat="45.941247744485736" lon="9.544758880510926">
        <ele>1929.5</ele>
        <time>2016-01-10T11:16:40Z</time>
      </trkpt>
      <trkpt lat="45.941263921558857" lon="9.544863235205412">
        <ele>1928.54</ele>
        <time>2016-01-10T11:16:52Z</time>
      </trkpt>
      <trkpt lat="45.94120105728507" lon="9.544852171093226">
        <ele>1929.02</ele>
        <time>2016-01-10T11:17:02Z</time>
      </trkpt>
      <trkpt lat="45.941196195781231" lon="9.54484898597002">
        <ele>1932.8699999999999</ele>
        <time>2016-01-10T11:17:05Z</time>
      </trkpt>
      <trkpt lat="45.941195441409945" lon="9.544856194406748">
        <ele>1932.3900000000001</ele>
        <time>2016-01-10T11:17:06Z</time>
      </trkpt>
      <trkpt lat="45.941192759200931" lon="9.5449173822999">
        <ele>1933.3499999999999</ele>
        <time>2016-01-10T11:17:15Z</time>
      </trkpt>
      <trkpt lat="45.941150262951851" lon="9.544943198561668">
        <ele>1933.3499999999999</ele>
        <time>2016-01-10T11:17:25Z</time>
      </trkpt>
      <trkpt lat="45.941148083657026" lon="9.5449950825423">
        <ele>1934.79</ele>
        <time>2016-01-10T11:17:35Z</time>
      </trkpt>
      <trkpt lat="45.941115813329816" lon="9.545019306242466">
        <ele>1934.79</ele>
        <time>2016-01-10T11:17:45Z</time>
      </trkpt>
      <trkpt lat="45.941095948219299" lon="9.545012935996056">
        <ele>1936.23</ele>
        <time>2016-01-10T11:17:55Z</time>
      </trkpt>
      <trkpt lat="45.941093685105443" lon="9.545048223808408">
        <ele>1937.6700000000001</ele>
        <time>2016-01-10T11:18:04Z</time>
      </trkpt>
      <trkpt lat="45.941043645143509" lon="9.54508887603879">
        <ele>1940.0799999999999</ele>
        <time>2016-01-10T11:18:14Z</time>
      </trkpt>
      <trkpt lat="45.941017745062709" lon="9.54510597512126">
        <ele>1940.5599999999999</ele>
        <time>2016-01-10T11:18:23Z</time>
      </trkpt>
      <trkpt lat="45.941009614616632" lon="9.545157104730606">
        <ele>1942</ele>
        <time>2016-01-10T11:18:32Z</time>
      </trkpt>
      <trkpt lat="45.940990000963211" lon="9.545154590159655">
        <ele>1943.9200000000001</ele>
        <time>2016-01-10T11:18:36Z</time>
      </trkpt>
      <trkpt lat="45.940952282398939" lon="9.545171437785029">
        <ele>1943.4400000000001</ele>
        <time>2016-01-10T11:18:45Z</time>
      </trkpt>
      <trkpt lat="45.940911462530494" lon="9.545231452211738">
        <ele>1946.8099999999999</ele>
        <time>2016-01-10T11:18:57Z</time>
      </trkpt>
      <trkpt lat="45.940907523036003" lon="9.545326419174671">
        <ele>1947.77</ele>
        <time>2016-01-10T11:19:09Z</time>
      </trkpt>
      <trkpt lat="45.940878689289093" lon="9.545380230993033">
        <ele>1950.1700000000001</ele>
        <time>2016-01-10T11:19:19Z</time>
      </trkpt>
      <trkpt lat="45.940864188596606" lon="9.545432701706886">
        <ele>1951.6099999999999</ele>
        <time>2016-01-10T11:19:31Z</time>
      </trkpt>
      <trkpt lat="45.940852370113134" lon="9.545486597344279">
        <ele>1953.54</ele>
        <time>2016-01-10T11:19:41Z</time>
      </trkpt>
      <trkpt lat="45.940819093957543" lon="9.545530769973993">
        <ele>1955.46</ele>
        <time>2016-01-10T11:19:51Z</time>
      </trkpt>
      <trkpt lat="45.940806688740849" lon="9.545621881261468">
        <ele>1955.46</ele>
        <time>2016-01-10T11:20:02Z</time>
      </trkpt>
      <trkpt lat="45.940794954076409" lon="9.54570502974093">
        <ele>1957.8599999999999</ele>
        <time>2016-01-10T11:20:14Z</time>
      </trkpt>
      <trkpt lat="45.940780704841018" lon="9.545756243169308">
        <ele>1961.23</ele>
        <time>2016-01-10T11:20:23Z</time>
      </trkpt>
      <trkpt lat="45.940781123936176" lon="9.545849533751607">
        <ele>1961.23</ele>
        <time>2016-01-10T11:20:33Z</time>
      </trkpt>
      <trkpt lat="45.940767545253038" lon="9.545923545956612">
        <ele>1961.71</ele>
        <time>2016-01-10T11:20:45Z</time>
      </trkpt>
      <trkpt lat="45.940733347088099" lon="9.546010131016374">
        <ele>1964.1099999999999</ele>
        <time>2016-01-10T11:20:57Z</time>
      </trkpt>
      <trkpt lat="45.94072999432683" lon="9.546055728569627">
        <ele>1964.5899999999999</ele>
        <time>2016-01-10T11:21:07Z</time>
      </trkpt>
      <trkpt lat="45.940716415643692" lon="9.546077856794">
        <ele>1965.55</ele>
        <time>2016-01-10T11:21:20Z</time>
      </trkpt>
      <trkpt lat="45.940699651837349" lon="9.54608716070652">
        <ele>1965.55</ele>
        <time>2016-01-10T11:21:25Z</time>
      </trkpt>
      <trkpt lat="45.940696969628334" lon="9.546123454347253">
        <ele>1967.48</ele>
        <time>2016-01-10T11:21:33Z</time>
      </trkpt>
      <trkpt lat="45.940698310732841" lon="9.546123957261443">
        <ele>1967.96</ele>
        <time>2016-01-10T11:21:46Z</time>
      </trkpt>
      <trkpt lat="45.940685821697116" lon="9.546130495145917">
        <ele>1968.4400000000001</ele>
        <time>2016-01-10T11:22:00Z</time>
      </trkpt>
      <trkpt lat="45.940675092861056" lon="9.546146085485816">
        <ele>1968.9200000000001</ele>
        <time>2016-01-10T11:22:17Z</time>
      </trkpt>
      <trkpt lat="45.94064399600029" lon="9.54615798778832">
        <ele>1969.8800000000001</ele>
        <time>2016-01-10T11:22:30Z</time>
      </trkpt>
      <trkpt lat="45.9406503662467" lon="9.546206519007683">
        <ele>1971.3199999999999</ele>
        <time>2016-01-10T11:22:38Z</time>
      </trkpt>
      <trkpt lat="45.94062689691782" lon="9.546221354976296">
        <ele>1973.24</ele>
        <time>2016-01-10T11:22:49Z</time>
      </trkpt>
      <trkpt lat="45.940582556650043" lon="9.546249099075794">
        <ele>1973.72</ele>
        <time>2016-01-10T11:23:00Z</time>
      </trkpt>
      <trkpt lat="45.940544670447707" lon="9.546257648617029">
        <ele>1973.72</ele>
        <time>2016-01-10T11:23:05Z</time>
      </trkpt>
      <trkpt lat="45.940508795902133" lon="9.546309364959598">
        <ele>1974.2</ele>
        <time>2016-01-10T11:23:16Z</time>
      </trkpt>
      <trkpt lat="45.940502174198627" lon="9.546337528154254">
        <ele>1975.1700000000001</ele>
        <time>2016-01-10T11:23:25Z</time>
      </trkpt>
      <trkpt lat="45.940525559708476" lon="9.546358985826373">
        <ele>1977.0899999999999</ele>
        <time>2016-01-10T11:23:36Z</time>
      </trkpt>
      <trkpt lat="45.940537881106138" lon="9.546377426013351">
        <ele>1977.0899999999999</ele>
        <time>2016-01-10T11:23:49Z</time>
      </trkpt>
      <trkpt lat="45.940583311021328" lon="9.546357225626707">
        <ele>1979.49</ele>
        <time>2016-01-10T11:24:00Z</time>
      </trkpt>
      <trkpt lat="45.940631590783596" lon="9.546358399093151">
        <ele>1981.9000000000001</ele>
        <time>2016-01-10T11:24:10Z</time>
      </trkpt>
      <trkpt lat="45.940593788400292" lon="9.546385891735554">
        <ele>1981.9000000000001</ele>
        <time>2016-01-10T11:24:21Z</time>
      </trkpt>
      <trkpt lat="45.940573671832681" lon="9.54639988951385">
        <ele>1982.8599999999999</ele>
        <time>2016-01-10T11:24:31Z</time>
      </trkpt>
      <trkpt lat="45.940567636862397" lon="9.54638279043138">
        <ele>1982.8599999999999</ele>
        <time>2016-01-10T11:24:48Z</time>
      </trkpt>
      <trkpt lat="45.940572330728173" lon="9.546483121812344">
        <ele>1983.8199999999999</ele>
        <time>2016-01-10T11:24:59Z</time>
      </trkpt>
      <trkpt lat="45.940531846135855" lon="9.546566354110837">
        <ele>1986.22</ele>
        <time>2016-01-10T11:25:10Z</time>
      </trkpt>
      <trkpt lat="45.940490690991282" lon="9.546606671065092">
        <ele>1988.1400000000001</ele>
        <time>2016-01-10T11:25:20Z</time>
      </trkpt>
      <trkpt lat="45.94048960134387" lon="9.546609437093139">
        <ele>1988.6199999999999</ele>
        <time>2016-01-10T11:25:21Z</time>
      </trkpt>
      <trkpt lat="45.940464623272419" lon="9.546642377972603">
        <ele>1990.0699999999999</ele>
        <time>2016-01-10T11:25:32Z</time>
      </trkpt>
      <trkpt lat="45.94047736376524" lon="9.546678001061082">
        <ele>1991.51</ele>
        <time>2016-01-10T11:25:43Z</time>
      </trkpt>
      <trkpt lat="45.940443333238363" lon="9.546686969697475">
        <ele>1991.51</ele>
        <time>2016-01-10T11:25:57Z</time>
      </trkpt>
      <trkpt lat="45.940398322418332" lon="9.546699626371265">
        <ele>1994.3900000000001</ele>
        <time>2016-01-10T11:26:05Z</time>
      </trkpt>
      <trkpt lat="45.940394382923841" lon="9.546706499531865">
        <ele>1994.3900000000001</ele>
        <time>2016-01-10T11:26:06Z</time>
      </trkpt>
      <trkpt lat="45.940393460914493" lon="9.546772046014667">
        <ele>1995.8299999999999</ele>
        <time>2016-01-10T11:26:15Z</time>
      </trkpt>
      <trkpt lat="45.940357586368918" lon="9.546778500080109">
        <ele>1997.76</ele>
        <time>2016-01-10T11:26:24Z</time>
      </trkpt>
      <trkpt lat="45.940331015735865" lon="9.54681814648211">
        <ele>1998.72</ele>
        <time>2016-01-10T11:26:31Z</time>
      </trkpt>
      <trkpt lat="45.94029757194221" lon="9.546862570568919">
        <ele>2001.1199999999999</ele>
        <time>2016-01-10T11:26:39Z</time>
      </trkpt>
      <trkpt lat="45.940293213352561" lon="9.546902468428016">
        <ele>2002.0799999999999</ele>
        <time>2016-01-10T11:26:47Z</time>
      </trkpt>
      <trkpt lat="45.94027946703136" lon="9.54689190723002">
        <ele>2003.04</ele>
        <time>2016-01-10T11:26:55Z</time>
      </trkpt>
      <trkpt lat="45.940252980217338" lon="9.546906324103475">
        <ele>2004.97</ele>
        <time>2016-01-10T11:27:04Z</time>
      </trkpt>
      <trkpt lat="45.940217357128859" lon="9.546955190598965">
        <ele>2007.3699999999999</ele>
        <time>2016-01-10T11:27:15Z</time>
      </trkpt>
      <trkpt lat="45.940188858658075" lon="9.547007326036692">
        <ele>2009.29</ele>
        <time>2016-01-10T11:27:25Z</time>
      </trkpt>
      <trkpt lat="45.940146362408996" lon="9.547074548900127">
        <ele>2010.73</ele>
        <time>2016-01-10T11:27:38Z</time>
      </trkpt>
      <trkpt lat="45.94011140987277" lon="9.547079494222999">
        <ele>2012.6600000000001</ele>
        <time>2016-01-10T11:27:46Z</time>
      </trkpt>
      <trkpt lat="45.940081151202321" lon="9.547126013785601">
        <ele>2014.0999999999999</ele>
        <time>2016-01-10T11:27:56Z</time>
      </trkpt>
      <trkpt lat="45.940056759864092" lon="9.547164821997285">
        <ele>2013.1400000000001</ele>
        <time>2016-01-10T11:28:07Z</time>
      </trkpt>
      <trkpt lat="45.940061872825027" lon="9.54712207429111">
        <ele>2013.6199999999999</ele>
        <time>2016-01-10T11:28:18Z</time>
      </trkpt>
      <trkpt lat="45.940072350203991" lon="9.547123666852713">
        <ele>2014.5799999999999</ele>
        <time>2016-01-10T11:28:29Z</time>
      </trkpt>
      <trkpt lat="45.940071931108832" lon="9.54711377620697">
        <ele>2015.0599999999999</ele>
        <time>2016-01-10T11:28:39Z</time>
      </trkpt>
      <trkpt lat="45.940087186172605" lon="9.547100616618991">
        <ele>2014.5799999999999</ele>
        <time>2016-01-10T11:28:48Z</time>
      </trkpt>
      <trkpt lat="45.940060028806329" lon="9.547161972150207">
        <ele>2015.0599999999999</ele>
        <time>2016-01-10T11:29:00Z</time>
      </trkpt>
      <trkpt lat="45.940060866996646" lon="9.547152584418654">
        <ele>2014.0999999999999</ele>
        <time>2016-01-10T11:29:10Z</time>
      </trkpt>
      <trkpt lat="45.940065728500485" lon="9.547156859189272">
        <ele>2013.6199999999999</ele>
        <time>2016-01-10T11:29:16Z</time>
      </trkpt>
      <trkpt lat="45.940061118453741" lon="9.547165492549539">
        <ele>2013.6199999999999</ele>
        <time>2016-01-10T11:29:43Z</time>
      </trkpt>
      <trkpt lat="45.940059693530202" lon="9.547171276062727">
        <ele>2013.1400000000001</ele>
        <time>2016-01-10T11:30:05Z</time>
      </trkpt>
      <trkpt lat="45.940063381567597" lon="9.547148225829005">
        <ele>2013.1400000000001</ele>
        <time>2016-01-10T11:30:30Z</time>
      </trkpt>
      <trkpt lat="45.940061118453741" lon="9.547158200293779">
        <ele>2013.1400000000001</ele>
        <time>2016-01-10T11:30:51Z</time>
      </trkpt>
      <trkpt lat="45.940055586397648" lon="9.547160631045699">
        <ele>2013.1400000000001</ele>
        <time>2016-01-10T11:31:18Z</time>
      </trkpt>
      <trkpt lat="45.940062291920185" lon="9.547161804512143">
        <ele>2013.1400000000001</ele>
        <time>2016-01-10T11:31:41Z</time>
      </trkpt>
      <trkpt lat="45.940061286091805" lon="9.54716264270246">
        <ele>2013.1400000000001</ele>
        <time>2016-01-10T11:32:01Z</time>
      </trkpt>
      <trkpt lat="45.940065812319517" lon="9.547163899987936">
        <ele>2013.1400000000001</ele>
        <time>2016-01-10T11:32:25Z</time>
      </trkpt>
      <trkpt lat="45.940066901966929" lon="9.547166917473078">
        <ele>2013.6199999999999</ele>
        <time>2016-01-10T11:32:50Z</time>
      </trkpt>
      <trkpt lat="45.940058520063758" lon="9.547181753441691">
        <ele>2013.1400000000001</ele>
        <time>2016-01-10T11:33:16Z</time>
      </trkpt>
      <trkpt lat="45.940059358254075" lon="9.54717043787241">
        <ele>2014.0999999999999</ele>
        <time>2016-01-10T11:33:37Z</time>
      </trkpt>
      <trkpt lat="45.940056005492806" lon="9.547150656580925">
        <ele>2015.54</ele>
        <time>2016-01-10T11:33:52Z</time>
      </trkpt>
      <trkpt lat="45.940058184787631" lon="9.547143280506134">
        <ele>2015.54</ele>
        <time>2016-01-10T11:34:06Z</time>
      </trkpt>
      <trkpt lat="45.94005374237895" lon="9.547150069847703">
        <ele>2013.6199999999999</ele>
        <time>2016-01-10T11:34:09Z</time>
      </trkpt>
      <trkpt lat="45.940038152039051" lon="9.547143448144198">
        <ele>2014.5799999999999</ele>
        <time>2016-01-10T11:34:11Z</time>
      </trkpt>
      <trkpt lat="45.940054412931204" lon="9.54711084254086">
        <ele>2015.54</ele>
        <time>2016-01-10T11:34:20Z</time>
      </trkpt>
      <trkpt lat="45.940077966079116" lon="9.547107489779592">
        <ele>2015.0599999999999</ele>
        <time>2016-01-10T11:34:33Z</time>
      </trkpt>
      <trkpt lat="45.940090203657746" lon="9.547091815620661">
        <ele>2015.0599999999999</ele>
        <time>2016-01-10T11:34:44Z</time>
      </trkpt>
      <trkpt lat="45.940094981342554" lon="9.547102376818657">
        <ele>2015.54</ele>
        <time>2016-01-10T11:34:55Z</time>
      </trkpt>
      <trkpt lat="45.940065141767263" lon="9.547142358496785">
        <ele>2015.0599999999999</ele>
        <time>2016-01-10T11:35:04Z</time>
      </trkpt>
      <trkpt lat="45.940069751814008" lon="9.547134898602963">
        <ele>2015.0599999999999</ele>
        <time>2016-01-10T11:35:18Z</time>
      </trkpt>
      <trkpt lat="45.940069751814008" lon="9.547134228050709">
        <ele>2015.0599999999999</ele>
        <time>2016-01-10T11:35:32Z</time>
      </trkpt>
      <trkpt lat="45.940077882260084" lon="9.547119811177254">
        <ele>2015.0599999999999</ele>
        <time>2016-01-10T11:35:45Z</time>
      </trkpt>
      <trkpt lat="45.940078720450401" lon="9.547123583033681">
        <ele>2014.5799999999999</ele>
        <time>2016-01-10T11:35:55Z</time>
      </trkpt>
      <trkpt lat="45.940079055726528" lon="9.547131294384599">
        <ele>2014.5799999999999</ele>
        <time>2016-01-10T11:36:07Z</time>
      </trkpt>
      <trkpt lat="45.940073942765594" lon="9.547145459800959">
        <ele>2015.0599999999999</ele>
        <time>2016-01-10T11:36:20Z</time>
      </trkpt>
      <trkpt lat="45.940066399052739" lon="9.547140095382929">
        <ele>2015.0599999999999</ele>
        <time>2016-01-10T11:36:41Z</time>
      </trkpt>
      <trkpt lat="45.940086180344224" lon="9.547137161716819">
        <ele>2015.0599999999999</ele>
        <time>2016-01-10T11:36:55Z</time>
      </trkpt>
      <trkpt lat="45.940066231414676" lon="9.54712157137692">
        <ele>2015.0599999999999</ele>
        <time>2016-01-10T11:37:06Z</time>
      </trkpt>
      <trkpt lat="45.940049886703491" lon="9.54710204154253">
        <ele>2014.0999999999999</ele>
        <time>2016-01-10T11:37:18Z</time>
      </trkpt>
      <trkpt lat="45.940047791227698" lon="9.547095252200961">
        <ele>2015.0599999999999</ele>
        <time>2016-01-10T11:37:22Z</time>
      </trkpt>
      <trkpt lat="45.940081067383289" lon="9.547078488394618">
        <ele>2014.5799999999999</ele>
        <time>2016-01-10T11:37:32Z</time>
      </trkpt>
      <trkpt lat="45.940094059333205" lon="9.547113021835685">
        <ele>2014.0999999999999</ele>
        <time>2016-01-10T11:37:40Z</time>
      </trkpt>
      <trkpt lat="45.94007620587945" lon="9.547136994078755">
        <ele>2014.5799999999999</ele>
        <time>2016-01-10T11:37:52Z</time>
      </trkpt>
      <trkpt lat="45.940062962472439" lon="9.547133557498455">
        <ele>2014.5799999999999</ele>
        <time>2016-01-10T11:38:12Z</time>
      </trkpt>
      <trkpt lat="45.940065225586295" lon="9.547154260799289">
        <ele>2014.0999999999999</ele>
        <time>2016-01-10T11:38:18Z</time>
      </trkpt>
      <trkpt lat="45.940047036856413" lon="9.547222489491105">
        <ele>2013.6199999999999</ele>
        <time>2016-01-10T11:38:27Z</time>
      </trkpt>
      <trkpt lat="45.940056927502155" lon="9.547186531126499">
        <ele>2014.0999999999999</ele>
        <time>2016-01-10T11:38:36Z</time>
      </trkpt>
      <trkpt lat="45.940058184787631" lon="9.54719290137291">
        <ele>2013.1400000000001</ele>
        <time>2016-01-10T11:38:50Z</time>
      </trkpt>
      <trkpt lat="45.940052149817348" lon="9.547196757048369">
        <ele>2013.6199999999999</ele>
        <time>2016-01-10T11:39:04Z</time>
      </trkpt>
      <trkpt lat="45.94005080871284" lon="9.547175383195281">
        <ele>2012.6600000000001</ele>
        <time>2016-01-10T11:39:22Z</time>
      </trkpt>
      <trkpt lat="45.940051814541221" lon="9.547169599682093">
        <ele>2013.1400000000001</ele>
        <time>2016-01-10T11:39:39Z</time>
      </trkpt>
      <trkpt lat="45.940059693530202" lon="9.547147639095783">
        <ele>2013.1400000000001</ele>
        <time>2016-01-10T11:39:48Z</time>
      </trkpt>
      <trkpt lat="45.94005717895925" lon="9.547191644087434">
        <ele>2013.6199999999999</ele>
        <time>2016-01-10T11:40:05Z</time>
      </trkpt>
      <trkpt lat="45.940063297748566" lon="9.547172198072076">
        <ele>2014.0999999999999</ele>
        <time>2016-01-10T11:40:13Z</time>
      </trkpt>
      <trkpt lat="45.940073523670435" lon="9.547133138403297">
        <ele>2014.0999999999999</ele>
        <time>2016-01-10T11:40:29Z</time>
      </trkpt>
      <trkpt lat="45.940062291920185" lon="9.547180244699121">
        <ele>2013.6199999999999</ele>
        <time>2016-01-10T11:40:44Z</time>
      </trkpt>
      <trkpt lat="45.940094394609332" lon="9.547117883339524">
        <ele>2013.6199999999999</ele>
        <time>2016-01-10T11:40:53Z</time>
      </trkpt>
      <trkpt lat="45.940092131495476" lon="9.547092486172915">
        <ele>2013.1400000000001</ele>
        <time>2016-01-10T11:41:04Z</time>
      </trkpt>
      <trkpt lat="45.94009674154222" lon="9.547059964388609">
        <ele>2013.1400000000001</ele>
        <time>2016-01-10T11:41:08Z</time>
      </trkpt>
      <trkpt lat="45.940159605816007" lon="9.547023335471749">
        <ele>2012.1800000000001</ele>
        <time>2016-01-10T11:41:18Z</time>
      </trkpt>
      <trkpt lat="45.940183075144887" lon="9.546990394592285">
        <ele>2010.25</ele>
        <time>2016-01-10T11:41:23Z</time>
      </trkpt>
      <trkpt lat="45.940218865871429" lon="9.546925686299801">
        <ele>2008.8099999999999</ele>
        <time>2016-01-10T11:41:31Z</time>
      </trkpt>
      <trkpt lat="45.940250884741545" lon="9.546876065433025">
        <ele>2006.8900000000001</ele>
        <time>2016-01-10T11:41:41Z</time>
      </trkpt>
      <trkpt lat="45.940274354070425" lon="9.546855110675097">
        <ele>2005.9300000000001</ele>
        <time>2016-01-10T11:41:51Z</time>
      </trkpt>
      <trkpt lat="45.940305283293128" lon="9.54685527831316">
        <ele>2004.97</ele>
        <time>2016-01-10T11:42:00Z</time>
      </trkpt>
      <trkpt lat="45.940318945795298" lon="9.546841531991959">
        <ele>2003.04</ele>
        <time>2016-01-10T11:42:08Z</time>
      </trkpt>
      <trkpt lat="45.940349204465747" lon="9.54681227914989">
        <ele>2002.0799999999999</ele>
        <time>2016-01-10T11:42:18Z</time>
      </trkpt>
      <trkpt lat="45.940365046262741" lon="9.546785373240709">
        <ele>2000.1600000000001</ele>
        <time>2016-01-10T11:42:26Z</time>
      </trkpt>
      <trkpt lat="45.940373428165913" lon="9.546743463724852">
        <ele>1999.6800000000001</ele>
        <time>2016-01-10T11:42:37Z</time>
      </trkpt>
      <trkpt lat="45.940398322418332" lon="9.546724101528525">
        <ele>1998.24</ele>
        <time>2016-01-10T11:42:45Z</time>
      </trkpt>
      <trkpt lat="45.940408045426011" lon="9.546689903363586">
        <ele>1996.8</ele>
        <time>2016-01-10T11:42:53Z</time>
      </trkpt>
      <trkpt lat="45.940410895273089" lon="9.54667741432786">
        <ele>1996.3199999999999</ele>
        <time>2016-01-10T11:43:03Z</time>
      </trkpt>
      <trkpt lat="45.940452050417662" lon="9.546680096536875">
        <ele>1993.9100000000001</ele>
        <time>2016-01-10T11:43:12Z</time>
      </trkpt>
      <trkpt lat="45.940456911921501" lon="9.546630391851068">
        <ele>1992.95</ele>
        <time>2016-01-10T11:43:21Z</time>
      </trkpt>
      <trkpt lat="45.940471580252051" lon="9.546595774590969">
        <ele>1991.99</ele>
        <time>2016-01-10T11:43:31Z</time>
      </trkpt>
      <trkpt lat="45.940509550273418" lon="9.546606671065092">
        <ele>1990.55</ele>
        <time>2016-01-10T11:43:40Z</time>
      </trkpt>
      <trkpt lat="45.940509214997292" lon="9.546554535627365">
        <ele>1989.5899999999999</ele>
        <time>2016-01-10T11:43:50Z</time>
      </trkpt>
      <trkpt lat="45.940535617992282" lon="9.546493934467435">
        <ele>1987.6600000000001</ele>
        <time>2016-01-10T11:43:58Z</time>
      </trkpt>
      <trkpt lat="45.940566128119826" lon="9.546425202861428">
        <ele>1986.22</ele>
        <time>2016-01-10T11:44:08Z</time>
      </trkpt>
      <trkpt lat="45.940597895532846" lon="9.54638279043138">
        <ele>1984.78</ele>
        <time>2016-01-10T11:44:17Z</time>
      </trkpt>
      <trkpt lat="45.940579455345869" lon="9.546342305839062">
        <ele>1983.8199999999999</ele>
        <time>2016-01-10T11:44:26Z</time>
      </trkpt>
      <trkpt lat="45.940550370141864" lon="9.546354208141565">
        <ele>1982.3800000000001</ele>
        <time>2016-01-10T11:44:35Z</time>
      </trkpt>
      <trkpt lat="45.940534025430679" lon="9.546365607529879">
        <ele>1981.9000000000001</ele>
        <time>2016-01-10T11:44:45Z</time>
      </trkpt>
      <trkpt lat="45.940542407333851" lon="9.546361165121198">
        <ele>1980.9300000000001</ele>
        <time>2016-01-10T11:44:56Z</time>
      </trkpt>
      <trkpt lat="45.94052136875689" lon="9.546382706612349">
        <ele>1980.45</ele>
        <time>2016-01-10T11:45:09Z</time>
      </trkpt>
      <trkpt lat="45.9404984023422" lon="9.546370385214686">
        <ele>1979.97</ele>
        <time>2016-01-10T11:45:17Z</time>
      </trkpt>
      <trkpt lat="45.940497647970915" lon="9.546372648328543">
        <ele>1979.01</ele>
        <time>2016-01-10T11:45:27Z</time>
      </trkpt>
      <trkpt lat="45.940487841144204" lon="9.546373318880796">
        <ele>1979.01</ele>
        <time>2016-01-10T11:45:38Z</time>
      </trkpt>
      <trkpt lat="45.940482309088111" lon="9.546334929764271">
        <ele>1978.05</ele>
        <time>2016-01-10T11:45:45Z</time>
      </trkpt>
      <trkpt lat="45.94048423692584" lon="9.546320848166943">
        <ele>1977.0899999999999</ele>
        <time>2016-01-10T11:45:52Z</time>
      </trkpt>
      <trkpt lat="45.940478956326842" lon="9.546299558132887">
        <ele>1977.0899999999999</ele>
        <time>2016-01-10T11:46:03Z</time>
      </trkpt>
      <trkpt lat="45.940494211390615" lon="9.546286482363939">
        <ele>1977.0899999999999</ele>
        <time>2016-01-10T11:46:10Z</time>
      </trkpt>
      <trkpt lat="45.94049303792417" lon="9.546244237571955">
        <ele>1976.1300000000001</ele>
        <time>2016-01-10T11:46:18Z</time>
      </trkpt>
      <trkpt lat="45.94050376676023" lon="9.546231413260102">
        <ele>1976.1300000000001</ele>
        <time>2016-01-10T11:46:22Z</time>
      </trkpt>
      <trkpt lat="45.940585322678089" lon="9.546192269772291">
        <ele>1975.6500000000001</ele>
        <time>2016-01-10T11:46:33Z</time>
      </trkpt>
      <trkpt lat="45.940607450902462" lon="9.546166453510523">
        <ele>1974.2</ele>
        <time>2016-01-10T11:46:43Z</time>
      </trkpt>
      <trkpt lat="45.940645588561893" lon="9.546166369691491">
        <ele>1974.2</ele>
        <time>2016-01-10T11:46:51Z</time>
      </trkpt>
      <trkpt lat="45.940648354589939" lon="9.546180786564946">
        <ele>1974.2</ele>
        <time>2016-01-10T11:47:00Z</time>
      </trkpt>
      <trkpt lat="45.940657155588269" lon="9.546118006110191">
        <ele>1971.8</ele>
        <time>2016-01-10T11:47:05Z</time>
      </trkpt>
      <trkpt lat="45.940711973235011" lon="9.546141643077135">
        <ele>1971.8</ele>
        <time>2016-01-10T11:47:15Z</time>
      </trkpt>
      <trkpt lat="45.940698310732841" lon="9.54611306078732">
        <ele>1970.3599999999999</ele>
        <time>2016-01-10T11:47:22Z</time>
      </trkpt>
      <trkpt lat="45.940702836960554" lon="9.546066373586655">
        <ele>1968.9200000000001</ele>
        <time>2016-01-10T11:47:30Z</time>
      </trkpt>
      <trkpt lat="45.940725551918149" lon="9.546033181250095">
        <ele>1967.96</ele>
        <time>2016-01-10T11:47:39Z</time>
      </trkpt>
      <trkpt lat="45.940728653222322" lon="9.546015579253435">
        <ele>1966.99</ele>
        <time>2016-01-10T11:47:46Z</time>
      </trkpt>
      <trkpt lat="45.940733598545194" lon="9.545969730243087">
        <ele>1965.0699999999999</ele>
        <time>2016-01-10T11:47:50Z</time>
      </trkpt>
      <trkpt lat="45.940763438120484" lon="9.545917343348265">
        <ele>1963.6300000000001</ele>
        <time>2016-01-10T11:47:58Z</time>
      </trkpt>
      <trkpt lat="45.940776765346527" lon="9.545795470476151">
        <ele>1962.1900000000001</ele>
        <time>2016-01-10T11:48:09Z</time>
      </trkpt>
      <trkpt lat="45.94078816473484" lon="9.545660689473152">
        <ele>1960.75</ele>
        <time>2016-01-10T11:48:22Z</time>
      </trkpt>
      <trkpt lat="45.940797384828329" lon="9.545540995895863">
        <ele>1957.8599999999999</ele>
        <time>2016-01-10T11:48:33Z</time>
      </trkpt>
      <trkpt lat="45.940832337364554" lon="9.545469582080841">
        <ele>1956.9000000000001</ele>
        <time>2016-01-10T11:48:43Z</time>
      </trkpt>
      <trkpt lat="45.940850777551532" lon="9.545417530462146">
        <ele>1954.98</ele>
        <time>2016-01-10T11:48:52Z</time>
      </trkpt>
      <trkpt lat="45.940865194424987" lon="9.545357683673501">
        <ele>1953.54</ele>
        <time>2016-01-10T11:49:00Z</time>
      </trkpt>
      <trkpt lat="45.940885143354535" lon="9.545287108048797">
        <ele>1951.6099999999999</ele>
        <time>2016-01-10T11:49:09Z</time>
      </trkpt>
      <trkpt lat="45.940907774493098" lon="9.545261124148965">
        <ele>1950.6500000000001</ele>
        <time>2016-01-10T11:49:22Z</time>
      </trkpt>
      <trkpt lat="45.940909450873733" lon="9.545237822458148">
        <ele>1950.1700000000001</ele>
        <time>2016-01-10T11:49:25Z</time>
      </trkpt>
      <trkpt lat="45.940941721200943" lon="9.545144364237785">
        <ele>1947.77</ele>
        <time>2016-01-10T11:49:36Z</time>
      </trkpt>
      <trkpt lat="45.940948007628322" lon="9.545124415308237">
        <ele>1947.29</ele>
        <time>2016-01-10T11:49:39Z</time>
      </trkpt>
      <trkpt lat="45.940990839153528" lon="9.545083846896887">
        <ele>1945.8499999999999</ele>
        <time>2016-01-10T11:49:49Z</time>
      </trkpt>
      <trkpt lat="45.941019840538502" lon="9.545036656782031">
        <ele>1942.96</ele>
        <time>2016-01-10T11:49:54Z</time>
      </trkpt>
      <trkpt lat="45.941023612394929" lon="9.54502877779305">
        <ele>1942.96</ele>
        <time>2016-01-10T11:49:55Z</time>
      </trkpt>
      <trkpt lat="45.941070299595594" lon="9.545009499415755">
        <ele>1941.52</ele>
        <time>2016-01-10T11:50:01Z</time>
      </trkpt>
      <trkpt lat="45.94108329154551" lon="9.545013187453151">
        <ele>1941.04</ele>
        <time>2016-01-10T11:50:02Z</time>
      </trkpt>
      <trkpt lat="45.941092846915126" lon="9.544983766973019">
        <ele>1939.1199999999999</ele>
        <time>2016-01-10T11:50:05Z</time>
      </trkpt>
      <trkpt lat="45.941146826371551" lon="9.544905815273523">
        <ele>1936.71</ele>
        <time>2016-01-10T11:50:14Z</time>
      </trkpt>
      <trkpt lat="45.941206505522132" lon="9.544779919087887">
        <ele>1933.3499999999999</ele>
        <time>2016-01-10T11:50:25Z</time>
      </trkpt>
      <trkpt lat="45.941236093640327" lon="9.54471604898572">
        <ele>1929.98</ele>
        <time>2016-01-10T11:50:30Z</time>
      </trkpt>
      <trkpt lat="45.941288145259023" lon="9.544660896062851">
        <ele>1927.5799999999999</ele>
        <time>2016-01-10T11:50:37Z</time>
      </trkpt>
      <trkpt lat="45.941296359524131" lon="9.544627787545323">
        <ele>1925.1800000000001</ele>
        <time>2016-01-10T11:50:40Z</time>
      </trkpt>
      <trkpt lat="45.941290324553847" lon="9.544600462540984">
        <ele>1924.22</ele>
        <time>2016-01-10T11:50:42Z</time>
      </trkpt>
      <trkpt lat="45.941293677315116" lon="9.544576155021787">
        <ele>1921.8099999999999</ele>
        <time>2016-01-10T11:50:44Z</time>
      </trkpt>
      <trkpt lat="45.941286301240325" lon="9.544549835845828">
        <ele>1920.8499999999999</ele>
        <time>2016-01-10T11:50:46Z</time>
      </trkpt>
      <trkpt lat="45.941283870488405" lon="9.544537849724293">
        <ele>1920.3699999999999</ele>
        <time>2016-01-10T11:50:47Z</time>
      </trkpt>
      <trkpt lat="45.941257551312447" lon="9.544454282149673">
        <ele>1918.9300000000001</ele>
        <time>2016-01-10T11:50:57Z</time>
      </trkpt>
      <trkpt lat="45.941240955144167" lon="9.544431986287236">
        <ele>1917.49</ele>
        <time>2016-01-10T11:51:00Z</time>
      </trkpt>
      <trkpt lat="45.941242966800928" lon="9.544387729838491">
        <ele>1916.04</ele>
        <time>2016-01-10T11:51:04Z</time>
      </trkpt>
      <trkpt lat="45.941298790276051" lon="9.544327380135655">
        <ele>1913.1600000000001</ele>
        <time>2016-01-10T11:51:11Z</time>
      </trkpt>
      <trkpt lat="45.941314464434981" lon="9.544285638257861">
        <ele>1913.6400000000001</ele>
        <time>2016-01-10T11:51:15Z</time>
      </trkpt>
      <trkpt lat="45.941324690356851" lon="9.544233502820134">
        <ele>1912.2</ele>
        <time>2016-01-10T11:51:18Z</time>
      </trkpt>
      <trkpt lat="45.94137255102396" lon="9.544179774820805">
        <ele>1910.76</ele>
        <time>2016-01-10T11:51:23Z</time>
      </trkpt>
      <trkpt lat="45.941412951797247" lon="9.544151024892926">
        <ele>1908.8299999999999</ele>
        <time>2016-01-10T11:51:26Z</time>
      </trkpt>
      <trkpt lat="45.941491574048996" lon="9.544107690453529">
        <ele>1907.3900000000001</ele>
        <time>2016-01-10T11:51:33Z</time>
      </trkpt>
      <trkpt lat="45.941503727808595" lon="9.5441057626158">
        <ele>1907.8699999999999</ele>
        <time>2016-01-10T11:51:34Z</time>
      </trkpt>
      <trkpt lat="45.941540859639645" lon="9.544121352955699">
        <ele>1907.8699999999999</ele>
        <time>2016-01-10T11:51:37Z</time>
      </trkpt>
      <trkpt lat="45.941580086946487" lon="9.544095536693931">
        <ele>1906.4300000000001</ele>
        <time>2016-01-10T11:51:40Z</time>
      </trkpt>
      <trkpt lat="45.941592240706086" lon="9.544084891676903">
        <ele>1905.47</ele>
        <time>2016-01-10T11:51:41Z</time>
      </trkpt>
      <trkpt lat="45.941678322851658" lon="9.543912475928664">
        <ele>1904.51</ele>
        <time>2016-01-10T11:51:53Z</time>
      </trkpt>
      <trkpt lat="45.941705731675029" lon="9.54384139738977">
        <ele>1904.99</ele>
        <time>2016-01-10T11:52:02Z</time>
      </trkpt>
      <trkpt lat="45.941720819100738" lon="9.5437793713063">
        <ele>1905.95</ele>
        <time>2016-01-10T11:52:08Z</time>
      </trkpt>
      <trkpt lat="45.941730458289385" lon="9.543796386569738">
        <ele>1906.9100000000001</ele>
        <time>2016-01-10T11:52:18Z</time>
      </trkpt>
      <trkpt lat="45.941746551543474" lon="9.543797140941024">
        <ele>1906.4300000000001</ele>
        <time>2016-01-10T11:52:30Z</time>
      </trkpt>
      <trkpt lat="45.941750910133123" lon="9.543782891705632">
        <ele>1907.3900000000001</ele>
        <time>2016-01-10T11:52:43Z</time>
      </trkpt>
      <trkpt lat="45.941743114963174" lon="9.543802505359054">
        <ele>1906.9100000000001</ele>
        <time>2016-01-10T11:52:53Z</time>
      </trkpt>
      <trkpt lat="45.941742528229952" lon="9.543793201446533">
        <ele>1907.8699999999999</ele>
        <time>2016-01-10T11:53:06Z</time>
      </trkpt>
      <trkpt lat="45.941749149933457" lon="9.543792447075248">
        <ele>1907.8699999999999</ele>
        <time>2016-01-10T11:53:22Z</time>
      </trkpt>
      <trkpt lat="45.941774379462004" lon="9.543748693540692">
        <ele>1909.3199999999999</ele>
        <time>2016-01-10T11:53:32Z</time>
      </trkpt>
      <trkpt lat="45.941831795498729" lon="9.543692953884602">
        <ele>1909.3199999999999</ele>
        <time>2016-01-10T11:53:37Z</time>
      </trkpt>
      <trkpt lat="45.941881332546473" lon="9.543662862852216">
        <ele>1906.9100000000001</ele>
        <time>2016-01-10T11:53:41Z</time>
      </trkpt>
      <trkpt lat="45.941935312002897" lon="9.54363813623786">
        <ele>1906.4300000000001</ele>
        <time>2016-01-10T11:53:45Z</time>
      </trkpt>
      <trkpt lat="45.94199800863862" lon="9.543545432388783">
        <ele>1906.9100000000001</ele>
        <time>2016-01-10T11:53:52Z</time>
      </trkpt>
      <trkpt lat="45.942085515707731" lon="9.543386260047555">
        <ele>1905.95</ele>
        <time>2016-01-10T11:54:03Z</time>
      </trkpt>
      <trkpt lat="45.942153157666326" lon="9.543172186240554">
        <ele>1904.03</ele>
        <time>2016-01-10T11:54:15Z</time>
      </trkpt>
      <trkpt lat="45.942158522084355" lon="9.543155422434211">
        <ele>1905.47</ele>
        <time>2016-01-10T11:54:16Z</time>
      </trkpt>
      <trkpt lat="45.942176207900047" lon="9.543131785467267">
        <ele>1906.4300000000001</ele>
        <time>2016-01-10T11:54:18Z</time>
      </trkpt>
      <trkpt lat="45.942254159599543" lon="9.542979318648577">
        <ele>1905.95</ele>
        <time>2016-01-10T11:54:28Z</time>
      </trkpt>
      <trkpt lat="45.942287435755134" lon="9.542930787429214">
        <ele>1906.4300000000001</ele>
        <time>2016-01-10T11:54:33Z</time>
      </trkpt>
      <trkpt lat="45.942321801558137" lon="9.542867839336395">
        <ele>1905.47</ele>
        <time>2016-01-10T11:54:38Z</time>
      </trkpt>
      <trkpt lat="45.942354071885347" lon="9.542813524603844">
        <ele>1906.4300000000001</ele>
        <time>2016-01-10T11:54:42Z</time>
      </trkpt>
      <trkpt lat="45.942463623359799" lon="9.542700620368123">
        <ele>1904.03</ele>
        <time>2016-01-10T11:54:53Z</time>
      </trkpt>
      <trkpt lat="45.942498156800866" lon="9.542655358090997">
        <ele>1904.03</ele>
        <time>2016-01-10T11:54:57Z</time>
      </trkpt>
      <trkpt lat="45.942569235339761" lon="9.54250892624259">
        <ele>1902.5899999999999</ele>
        <time>2016-01-10T11:55:07Z</time>
      </trkpt>
      <trkpt lat="45.942651629447937" lon="9.542376575991511">
        <ele>1901.6300000000001</ele>
        <time>2016-01-10T11:55:18Z</time>
      </trkpt>
      <trkpt lat="45.942678032442927" lon="9.542332068085671">
        <ele>1900.6600000000001</ele>
        <time>2016-01-10T11:55:22Z</time>
      </trkpt>
      <trkpt lat="45.942799570038915" lon="9.542180858552456">
        <ele>1897.3</ele>
        <time>2016-01-10T11:55:34Z</time>
      </trkpt>
      <trkpt lat="45.942821782082319" lon="9.542152946814895">
        <ele>1896.3399999999999</ele>
        <time>2016-01-10T11:55:36Z</time>
      </trkpt>
      <trkpt lat="45.942877857014537" lon="9.542015232145786">
        <ele>1898.26</ele>
        <time>2016-01-10T11:55:45Z</time>
      </trkpt>
      <trkpt lat="45.942972488701344" lon="9.541832339018583">
        <ele>1896.8199999999999</ele>
        <time>2016-01-10T11:55:57Z</time>
      </trkpt>
      <trkpt lat="45.943006603047252" lon="9.541732678189874">
        <ele>1894.9000000000001</ele>
        <time>2016-01-10T11:56:03Z</time>
      </trkpt>
      <trkpt lat="45.943009201437235" lon="9.541634442284703">
        <ele>1892.49</ele>
        <time>2016-01-10T11:56:08Z</time>
      </trkpt>
      <trkpt lat="45.943002663552761" lon="9.541565962135792">
        <ele>1892.01</ele>
        <time>2016-01-10T11:56:12Z</time>
      </trkpt>
      <trkpt lat="45.943011213093996" lon="9.541444089263678">
        <ele>1891.05</ele>
        <time>2016-01-10T11:56:19Z</time>
      </trkpt>
      <trkpt lat="45.943035520613194" lon="9.541278965771198">
        <ele>1891.05</ele>
        <time>2016-01-10T11:56:28Z</time>
      </trkpt>
      <trkpt lat="45.943052116781473" lon="9.541205707937479">
        <ele>1888.6500000000001</ele>
        <time>2016-01-10T11:56:32Z</time>
      </trkpt>
      <trkpt lat="45.94306661747396" lon="9.541154410690069">
        <ele>1888.6500000000001</ele>
        <time>2016-01-10T11:56:35Z</time>
      </trkpt>
      <trkpt lat="45.94308371655643" lon="9.541027341037989">
        <ele>1888.6500000000001</ele>
        <time>2016-01-10T11:56:44Z</time>
      </trkpt>
      <trkpt lat="45.943091427907348" lon="9.540993310511112">
        <ele>1888.1700000000001</ele>
        <time>2016-01-10T11:56:49Z</time>
      </trkpt>
      <trkpt lat="45.943082375451922" lon="9.540910916402936">
        <ele>1886.72</ele>
        <time>2016-01-10T11:56:54Z</time>
      </trkpt>
      <trkpt lat="45.943083465099335" lon="9.54071712680161">
        <ele>1888.1700000000001</ele>
        <time>2016-01-10T11:57:05Z</time>
      </trkpt>
      <trkpt lat="45.943085728213191" lon="9.540687957778573">
        <ele>1887.6900000000001</ele>
        <time>2016-01-10T11:57:08Z</time>
      </trkpt>
      <trkpt lat="45.943089332431555" lon="9.540634816512466">
        <ele>1887.6900000000001</ele>
        <time>2016-01-10T11:57:12Z</time>
      </trkpt>
      <trkpt lat="45.943144485354424" lon="9.540439769625664">
        <ele>1886.72</ele>
        <time>2016-01-10T11:57:23Z</time>
      </trkpt>
      <trkpt lat="45.94319217838347" lon="9.540400207042694">
        <ele>1886.72</ele>
        <time>2016-01-10T11:57:27Z</time>
      </trkpt>
      <trkpt lat="45.943239452317357" lon="9.540374809876084">
        <ele>1886.72</ele>
        <time>2016-01-10T11:57:35Z</time>
      </trkpt>
      <trkpt lat="45.94326107762754" lon="9.540337426587939">
        <ele>1886.72</ele>
        <time>2016-01-10T11:57:46Z</time>
      </trkpt>
      <trkpt lat="45.943265939131379" lon="9.540340695530176">
        <ele>1886.72</ele>
        <time>2016-01-10T11:58:00Z</time>
      </trkpt>
      <trkpt lat="45.943287396803498" lon="9.540306581184268">
        <ele>1886.72</ele>
        <time>2016-01-10T11:58:10Z</time>
      </trkpt>
      <trkpt lat="45.943291252478957" lon="9.540296774357557">
        <ele>1886.24</ele>
        <time>2016-01-10T11:58:21Z</time>
      </trkpt>
      <trkpt lat="45.943285301327705" lon="9.540312448516488">
        <ele>1886.24</ele>
        <time>2016-01-10T11:58:38Z</time>
      </trkpt>
      <trkpt lat="45.943291336297989" lon="9.540301635861397">
        <ele>1886.24</ele>
        <time>2016-01-10T11:58:49Z</time>
      </trkpt>
      <trkpt lat="45.943285301327705" lon="9.540281854569912">
        <ele>1886.24</ele>
        <time>2016-01-10T11:59:01Z</time>
      </trkpt>
      <trkpt lat="45.943280188366771" lon="9.54029350541532">
        <ele>1885.76</ele>
        <time>2016-01-10T11:59:08Z</time>
      </trkpt>
      <trkpt lat="45.943328216671944" lon="9.540245141834021">
        <ele>1885.28</ele>
        <time>2016-01-10T11:59:12Z</time>
      </trkpt>
      <trkpt lat="45.943480180576444" lon="9.540077168494463">
        <ele>1881.9200000000001</ele>
        <time>2016-01-10T11:59:25Z</time>
      </trkpt>
      <trkpt lat="45.943603059276938" lon="9.539959235116839">
        <ele>1880.96</ele>
        <time>2016-01-10T11:59:36Z</time>
      </trkpt>
      <trkpt lat="45.943688051775098" lon="9.539860412478447">
        <ele>1880.48</ele>
        <time>2016-01-10T11:59:44Z</time>
      </trkpt>
      <trkpt lat="45.943859042599797" lon="9.539891006425023">
        <ele>1880.48</ele>
        <time>2016-01-10T11:59:58Z</time>
      </trkpt>
      <trkpt lat="45.94393783248961" lon="9.539860328659415">
        <ele>1880</ele>
        <time>2016-01-10T12:00:07Z</time>
      </trkpt>
      <trkpt lat="45.94396473839879" lon="9.539751699194312">
        <ele>1878.55</ele>
        <time>2016-01-10T12:00:14Z</time>
      </trkpt>
      <trkpt lat="45.943965576589108" lon="9.539683805778623">
        <ele>1877.5899999999999</ele>
        <time>2016-01-10T12:00:18Z</time>
      </trkpt>
      <trkpt lat="45.944004384800792" lon="9.539542905986309">
        <ele>1876.1500000000001</ele>
        <time>2016-01-10T12:00:27Z</time>
      </trkpt>
      <trkpt lat="45.944141177460551" lon="9.539603339508176">
        <ele>1875.1900000000001</ele>
        <time>2016-01-10T12:00:38Z</time>
      </trkpt>
      <trkpt lat="45.944189624860883" lon="9.539620606228709">
        <ele>1875.1900000000001</ele>
        <time>2016-01-10T12:00:43Z</time>
      </trkpt>
      <trkpt lat="45.944293811917305" lon="9.539713561534882">
        <ele>1875.6700000000001</ele>
        <time>2016-01-10T12:00:55Z</time>
      </trkpt>
      <trkpt lat="45.944373607635498" lon="9.539730995893478">
        <ele>1876.6300000000001</ele>
        <time>2016-01-10T12:01:05Z</time>
      </trkpt>
      <trkpt lat="45.944430269300938" lon="9.539755219593644">
        <ele>1877.5899999999999</ele>
        <time>2016-01-10T12:01:10Z</time>
      </trkpt>
      <trkpt lat="45.944568486884236" lon="9.53983903862536">
        <ele>1877.1099999999999</ele>
        <time>2016-01-10T12:01:22Z</time>
      </trkpt>
      <trkpt lat="45.944675020873547" lon="9.539889497682452">
        <ele>1879.03</ele>
        <time>2016-01-10T12:01:34Z</time>
      </trkpt>
      <trkpt lat="45.944742243736982" lon="9.539880696684122">
        <ele>1879.51</ele>
        <time>2016-01-10T12:01:42Z</time>
      </trkpt>
      <trkpt lat="45.9448207821697" lon="9.539868291467428">
        <ele>1881.4400000000001</ele>
        <time>2016-01-10T12:01:51Z</time>
      </trkpt>
      <trkpt lat="45.944874007254839" lon="9.539849851280451">
        <ele>1882.4000000000001</ele>
        <time>2016-01-10T12:01:58Z</time>
      </trkpt>
      <trkpt lat="45.944892950356007" lon="9.539833758026362">
        <ele>1882.4000000000001</ele>
        <time>2016-01-10T12:02:07Z</time>
      </trkpt>
      <trkpt lat="45.944892195984721" lon="9.53979411162436">
        <ele>1882.4000000000001</ele>
        <time>2016-01-10T12:02:13Z</time>
      </trkpt>
      <trkpt lat="45.944872079417109" lon="9.53960401006043">
        <ele>1880.48</ele>
        <time>2016-01-10T12:02:24Z</time>
      </trkpt>
      <trkpt lat="45.944858668372035" lon="9.539424134418368">
        <ele>1877.5899999999999</ele>
        <time>2016-01-10T12:02:35Z</time>
      </trkpt>
      <trkpt lat="45.944874426349998" lon="9.539301674813032">
        <ele>1877.5899999999999</ele>
        <time>2016-01-10T12:02:42Z</time>
      </trkpt>
      <trkpt lat="45.944891860708594" lon="9.539218442514539">
        <ele>1877.5899999999999</ele>
        <time>2016-01-10T12:02:48Z</time>
      </trkpt>
      <trkpt lat="45.944864116609097" lon="9.539159517735243">
        <ele>1877.5899999999999</ele>
        <time>2016-01-10T12:02:53Z</time>
      </trkpt>
      <trkpt lat="45.944846849888563" lon="9.539150549098849">
        <ele>1877.5899999999999</ele>
        <time>2016-01-10T12:02:55Z</time>
      </trkpt>
      <trkpt lat="45.94480661675334" lon="9.53897612169385">
        <ele>1877.5899999999999</ele>
        <time>2016-01-10T12:03:06Z</time>
      </trkpt>
      <trkpt lat="45.944792618975043" lon="9.538898253813386">
        <ele>1877.5899999999999</ele>
        <time>2016-01-10T12:03:14Z</time>
      </trkpt>
      <trkpt lat="45.944746099412441" lon="9.538812087848783">
        <ele>1878.0699999999999</ele>
        <time>2016-01-10T12:03:21Z</time>
      </trkpt>
      <trkpt lat="45.944723132997751" lon="9.538705721497536">
        <ele>1876.6300000000001</ele>
        <time>2016-01-10T12:03:27Z</time>
      </trkpt>
      <trkpt lat="45.944703100249171" lon="9.538685437291861">
        <ele>1876.6300000000001</ele>
        <time>2016-01-10T12:03:29Z</time>
      </trkpt>
      <trkpt lat="45.944684827700257" lon="9.538623662665486">
        <ele>1876.6300000000001</ele>
        <time>2016-01-10T12:03:33Z</time>
      </trkpt>
      <trkpt lat="45.944694466888905" lon="9.538453174754977">
        <ele>1879.03</ele>
        <time>2016-01-10T12:03:47Z</time>
      </trkpt>
      <trkpt lat="45.944688431918621" lon="9.538436410948634">
        <ele>1879.03</ele>
        <time>2016-01-10T12:03:49Z</time>
      </trkpt>
      <trkpt lat="45.944672422483563" lon="9.53838586807251">
        <ele>1879.51</ele>
        <time>2016-01-10T12:03:54Z</time>
      </trkpt>
      <trkpt lat="45.944668650627136" lon="9.538362482562661">
        <ele>1879.51</ele>
        <time>2016-01-10T12:03:56Z</time>
      </trkpt>
      <trkpt lat="45.944652389734983" lon="9.538244465366006">
        <ele>1881.4400000000001</ele>
        <time>2016-01-10T12:04:05Z</time>
      </trkpt>
      <trkpt lat="45.944614252075553" lon="9.538167351856828">
        <ele>1882.4000000000001</ele>
        <time>2016-01-10T12:04:12Z</time>
      </trkpt>
      <trkpt lat="45.944550298154354" lon="9.538069115951657">
        <ele>1881.4400000000001</ele>
        <time>2016-01-10T12:04:23Z</time>
      </trkpt>
      <trkpt lat="45.944527499377728" lon="9.538012035191059">
        <ele>1883.8399999999999</ele>
        <time>2016-01-10T12:04:28Z</time>
      </trkpt>
      <trkpt lat="45.944520290941" lon="9.537957133725286">
        <ele>1883.8399999999999</ele>
        <time>2016-01-10T12:04:33Z</time>
      </trkpt>
      <trkpt lat="45.944518698379397" lon="9.53792947344482">
        <ele>1885.28</ele>
        <time>2016-01-10T12:04:35Z</time>
      </trkpt>
      <trkpt lat="45.944522470235825" lon="9.537839535623789">
        <ele>1885.76</ele>
        <time>2016-01-10T12:04:42Z</time>
      </trkpt>
      <trkpt lat="45.944530852138996" lon="9.53781615011394">
        <ele>1886.72</ele>
        <time>2016-01-10T12:04:44Z</time>
      </trkpt>
      <trkpt lat="45.944546107202768" lon="9.537753285840154">
        <ele>1887.21</ele>
        <time>2016-01-10T12:04:49Z</time>
      </trkpt>
      <trkpt lat="45.944549292325974" lon="9.537720177322626">
        <ele>1887.6900000000001</ele>
        <time>2016-01-10T12:04:51Z</time>
      </trkpt>
      <trkpt lat="45.944573432207108" lon="9.537598472088575">
        <ele>1890.5699999999999</ele>
        <time>2016-01-10T12:05:01Z</time>
      </trkpt>
      <trkpt lat="45.944585669785738" lon="9.537553293630481">
        <ele>1890.5699999999999</ele>
        <time>2016-01-10T12:05:06Z</time>
      </trkpt>
      <trkpt lat="45.944585083052516" lon="9.53750828281045">
        <ele>1891.53</ele>
        <time>2016-01-10T12:05:10Z</time>
      </trkpt>
      <trkpt lat="45.944588100537658" lon="9.537482801824808">
        <ele>1891.53</ele>
        <time>2016-01-10T12:05:12Z</time>
      </trkpt>
      <trkpt lat="45.944590866565704" lon="9.537487244233489">
        <ele>1891.53</ele>
        <time>2016-01-10T12:05:22Z</time>
      </trkpt>
      <trkpt lat="45.94457401894033" lon="9.537395713850856">
        <ele>1891.53</ele>
        <time>2016-01-10T12:05:31Z</time>
      </trkpt>
      <trkpt lat="45.944563625380397" lon="9.537345338612795">
        <ele>1891.53</ele>
        <time>2016-01-10T12:05:41Z</time>
      </trkpt>
      <trkpt lat="45.94454669393599" lon="9.537335699424148">
        <ele>1891.53</ele>
        <time>2016-01-10T12:05:52Z</time>
      </trkpt>
      <trkpt lat="45.944564547389746" lon="9.537354810163379">
        <ele>1891.53</ele>
        <time>2016-01-10T12:06:05Z</time>
      </trkpt>
      <trkpt lat="45.944551220163703" lon="9.537365874275565">
        <ele>1891.53</ele>
        <time>2016-01-10T12:06:20Z</time>
      </trkpt>
      <trkpt lat="45.944539317861199" lon="9.537356235086918">
        <ele>1891.53</ele>
        <time>2016-01-10T12:06:28Z</time>
      </trkpt>
      <trkpt lat="45.944535629823804" lon="9.53735631890595">
        <ele>1891.53</ele>
        <time>2016-01-10T12:06:48Z</time>
      </trkpt>
      <trkpt lat="45.944540239870548" lon="9.537339806556702">
        <ele>1892.01</ele>
        <time>2016-01-10T12:07:05Z</time>
      </trkpt>
      <trkpt lat="45.944547364488244" lon="9.53733041882515">
        <ele>1892.01</ele>
        <time>2016-01-10T12:07:22Z</time>
      </trkpt>
      <trkpt lat="45.944533618167043" lon="9.537346176803112">
        <ele>1892.49</ele>
        <time>2016-01-10T12:07:45Z</time>
      </trkpt>
      <trkpt lat="45.944540407508612" lon="9.537339974194765">
        <ele>1892.49</ele>
        <time>2016-01-10T12:08:08Z</time>
      </trkpt>
      <trkpt lat="45.944551890715957" lon="9.537342824041843">
        <ele>1892.49</ele>
        <time>2016-01-10T12:08:30Z</time>
      </trkpt>
      <trkpt lat="45.944539988413453" lon="9.53733972273767">
        <ele>1892.49</ele>
        <time>2016-01-10T12:08:55Z</time>
      </trkpt>
      <trkpt lat="45.944548789411783" lon="9.537323545664549">
        <ele>1892.49</ele>
        <time>2016-01-10T12:09:24Z</time>
      </trkpt>
      <trkpt lat="45.94454862177372" lon="9.537330502644181">
        <ele>1892.49</ele>
        <time>2016-01-10T12:09:50Z</time>
      </trkpt>
      <trkpt lat="45.944550298154354" lon="9.537323042750359">
        <ele>1892.49</ele>
        <time>2016-01-10T12:10:24Z</time>
      </trkpt>
      <trkpt lat="45.944538312032819" lon="9.537343578413129">
        <ele>1892.01</ele>
        <time>2016-01-10T12:10:51Z</time>
      </trkpt>
      <trkpt lat="45.944543927907944" lon="9.537322456017137">
        <ele>1891.53</ele>
        <time>2016-01-10T12:11:21Z</time>
      </trkpt>
      <trkpt lat="45.944552728906274" lon="9.53732555732131">
        <ele>1891.05</ele>
        <time>2016-01-10T12:11:35Z</time>
      </trkpt>
      <trkpt lat="45.944540072232485" lon="9.537311978638172">
        <ele>1891.05</ele>
        <time>2016-01-10T12:11:58Z</time>
      </trkpt>
      <trkpt lat="45.944543005898595" lon="9.537305608391762">
        <ele>1892.01</ele>
        <time>2016-01-10T12:12:14Z</time>
      </trkpt>
      <trkpt lat="45.944550884887576" lon="9.537309547886252">
        <ele>1892.01</ele>
        <time>2016-01-10T12:12:21Z</time>
      </trkpt>
      <trkpt lat="45.944548705592752" lon="9.53730795532465">
        <ele>1891.53</ele>
        <time>2016-01-10T12:12:37Z</time>
      </trkpt>
      <trkpt lat="45.944538731127977" lon="9.537309547886252">
        <ele>1891.53</ele>
        <time>2016-01-10T12:12:51Z</time>
      </trkpt>
      <trkpt lat="45.94455398619175" lon="9.537340980023146">
        <ele>1891.53</ele>
        <time>2016-01-10T12:13:04Z</time>
      </trkpt>
      <trkpt lat="45.94456329010427" lon="9.537327401340008">
        <ele>1891.05</ele>
        <time>2016-01-10T12:13:15Z</time>
      </trkpt>
      <trkpt lat="45.944568403065205" lon="9.537332849577069">
        <ele>1891.53</ele>
        <time>2016-01-10T12:13:29Z</time>
      </trkpt>
      <trkpt lat="45.944585585966706" lon="9.537395462393761">
        <ele>1891.53</ele>
        <time>2016-01-10T12:13:43Z</time>
      </trkpt>
      <trkpt lat="45.944576114416122" lon="9.537422368302941">
        <ele>1891.05</ele>
        <time>2016-01-10T12:13:57Z</time>
      </trkpt>
      <trkpt lat="45.944586088880897" lon="9.537448436021805">
        <ele>1891.05</ele>
        <time>2016-01-10T12:14:07Z</time>
      </trkpt>
      <trkpt lat="45.944584161043167" lon="9.537453381344676">
        <ele>1891.53</ele>
        <time>2016-01-10T12:14:26Z</time>
      </trkpt>
      <trkpt lat="45.944564212113619" lon="9.537452626973391">
        <ele>1891.05</ele>
        <time>2016-01-10T12:14:42Z</time>
      </trkpt>
      <trkpt lat="45.944555075839162" lon="9.537439718842506">
        <ele>1892.49</ele>
        <time>2016-01-10T12:15:03Z</time>
      </trkpt>
      <trkpt lat="45.944562871009111" lon="9.537444496527314">
        <ele>1891.05</ele>
        <time>2016-01-10T12:15:17Z</time>
      </trkpt>
      <trkpt lat="45.944569911807775" lon="9.537466038018465">
        <ele>1891.05</ele>
        <time>2016-01-10T12:15:40Z</time>
      </trkpt>
      <trkpt lat="45.944586088880897" lon="9.537496464326978">
        <ele>1891.05</ele>
        <time>2016-01-10T12:15:55Z</time>
      </trkpt>
      <trkpt lat="45.944588016718626" lon="9.537691511213779">
        <ele>1889.6099999999999</ele>
        <time>2016-01-10T12:16:07Z</time>
      </trkpt>
      <trkpt lat="45.944554237648845" lon="9.53789284452796">
        <ele>1886.24</ele>
        <time>2016-01-10T12:16:20Z</time>
      </trkpt>
      <trkpt lat="45.944558931514621" lon="9.538042293861508">
        <ele>1883.3599999999999</ele>
        <time>2016-01-10T12:16:29Z</time>
      </trkpt>
      <trkpt lat="45.944565888494253" lon="9.5380565430969">
        <ele>1882.8800000000001</ele>
        <time>2016-01-10T12:16:30Z</time>
      </trkpt>
      <trkpt lat="45.944667896255851" lon="9.538260977715254">
        <ele>1882.8800000000001</ele>
        <time>2016-01-10T12:16:44Z</time>
      </trkpt>
      <trkpt lat="45.944678038358688" lon="9.538297522813082">
        <ele>1880.96</ele>
        <time>2016-01-10T12:16:46Z</time>
      </trkpt>
      <trkpt lat="45.944688683375716" lon="9.538431381806731">
        <ele>1879.51</ele>
        <time>2016-01-10T12:16:54Z</time>
      </trkpt>
      <trkpt lat="45.944707626476884" lon="9.53848946839571">
        <ele>1879.03</ele>
        <time>2016-01-10T12:16:58Z</time>
      </trkpt>
      <trkpt lat="45.944722462445498" lon="9.538579406216741">
        <ele>1879.51</ele>
        <time>2016-01-10T12:17:04Z</time>
      </trkpt>
      <trkpt lat="45.944627076387405" lon="9.538702201098204">
        <ele>1875.6700000000001</ele>
        <time>2016-01-10T12:17:14Z</time>
      </trkpt>
      <trkpt lat="45.94447243027389" lon="9.538650652393699">
        <ele>1874.71</ele>
        <time>2016-01-10T12:17:27Z</time>
      </trkpt>
      <trkpt lat="45.944454576820135" lon="9.538639504462481">
        <ele>1874.71</ele>
        <time>2016-01-10T12:17:29Z</time>
      </trkpt>
      <trkpt lat="45.944276880472898" lon="9.538642019033432">
        <ele>1872.79</ele>
        <time>2016-01-10T12:17:43Z</time>
      </trkpt>
      <trkpt lat="45.944181578233838" lon="9.538728604093194">
        <ele>1871.8199999999999</ele>
        <time>2016-01-10T12:17:53Z</time>
      </trkpt>
      <trkpt lat="45.944043612107635" lon="9.538859697058797">
        <ele>1870.8599999999999</ele>
        <time>2016-01-10T12:18:06Z</time>
      </trkpt>
      <trkpt lat="45.943892570212483" lon="9.538801442831755">
        <ele>1870.3800000000001</ele>
        <time>2016-01-10T12:18:17Z</time>
      </trkpt>
      <trkpt lat="45.94374923966825" lon="9.53870982863009">
        <ele>1870.3800000000001</ele>
        <time>2016-01-10T12:18:30Z</time>
      </trkpt>
      <trkpt lat="45.943622253835201" lon="9.538586027920246">
        <ele>1869.9000000000001</ele>
        <time>2016-01-10T12:18:42Z</time>
      </trkpt>
      <trkpt lat="45.943507673218846" lon="9.538499107584357">
        <ele>1870.3800000000001</ele>
        <time>2016-01-10T12:18:53Z</time>
      </trkpt>
      <trkpt lat="45.943396361544728" lon="9.538444541394711">
        <ele>1871.3399999999999</ele>
        <time>2016-01-10T12:19:04Z</time>
      </trkpt>
      <trkpt lat="45.943285636603832" lon="9.538348317146301">
        <ele>1872.3</ele>
        <time>2016-01-10T12:19:15Z</time>
      </trkpt>
      <trkpt lat="45.94316971488297" lon="9.538239520043135">
        <ele>1871.8199999999999</ele>
        <time>2016-01-10T12:19:26Z</time>
      </trkpt>
      <trkpt lat="45.943035604432225" lon="9.538105744868517">
        <ele>1871.8199999999999</ele>
        <time>2016-01-10T12:19:39Z</time>
      </trkpt>
      <trkpt lat="45.942906690761447" lon="9.538002060726285">
        <ele>1871.8199999999999</ele>
        <time>2016-01-10T12:19:52Z</time>
      </trkpt>
      <trkpt lat="45.94278029166162" lon="9.537933748215437">
        <ele>1871.3399999999999</ele>
        <time>2016-01-10T12:20:03Z</time>
      </trkpt>
      <trkpt lat="45.942656323313713" lon="9.538056459277868">
        <ele>1871.3399999999999</ele>
        <time>2016-01-10T12:20:17Z</time>
      </trkpt>
      <trkpt lat="45.942651545628905" lon="9.538244381546974">
        <ele>1871.8199999999999</ele>
        <time>2016-01-10T12:20:28Z</time>
      </trkpt>
      <trkpt lat="45.942673087120056" lon="9.538324596360326">
        <ele>1872.79</ele>
        <time>2016-01-10T12:20:34Z</time>
      </trkpt>
      <trkpt lat="45.942766712978482" lon="9.53842056915164">
        <ele>1873.75</ele>
        <time>2016-01-10T12:20:46Z</time>
      </trkpt>
      <trkpt lat="45.94281105324626" lon="9.538353849202395">
        <ele>1875.1900000000001</ele>
        <time>2016-01-10T12:20:55Z</time>
      </trkpt>
      <trkpt lat="45.942834857851267" lon="9.538289811462164">
        <ele>1875.1900000000001</ele>
        <time>2016-01-10T12:21:04Z</time>
      </trkpt>
      <trkpt lat="45.942899901419878" lon="9.538216553628445">
        <ele>1875.1900000000001</ele>
        <time>2016-01-10T12:21:17Z</time>
      </trkpt>
      <trkpt lat="45.943002831190825" lon="9.538138853386045">
        <ele>1875.6700000000001</ele>
        <time>2016-01-10T12:21:32Z</time>
      </trkpt>
      <trkpt lat="45.943013140931726" lon="9.538143882527947">
        <ele>1875.6700000000001</ele>
        <time>2016-01-10T12:21:36Z</time>
      </trkpt>
      <trkpt lat="45.942882550880313" lon="9.53825737349689">
        <ele>1875.1900000000001</ele>
        <time>2016-01-10T12:21:58Z</time>
      </trkpt>
      <trkpt lat="45.942803509533405" lon="9.538351334631443">
        <ele>1875.1900000000001</ele>
        <time>2016-01-10T12:22:19Z</time>
      </trkpt>
      <trkpt lat="45.942800408229232" lon="9.53834387473762">
        <ele>1875.1900000000001</ele>
        <time>2016-01-10T12:22:32Z</time>
      </trkpt>
      <trkpt lat="45.942810466513038" lon="9.53833214007318">
        <ele>1875.1900000000001</ele>
        <time>2016-01-10T12:22:45Z</time>
      </trkpt>
      <trkpt lat="45.942778280004859" lon="9.53824806958437">
        <ele>1876.6300000000001</ele>
        <time>2016-01-10T12:23:06Z</time>
      </trkpt>
      <trkpt lat="45.942761097103357" lon="9.538493575528264">
        <ele>1872.3</ele>
        <time>2016-01-10T13:29:03Z</time>
      </trkpt>
      <trkpt lat="45.942791607230902" lon="9.538499610498548">
        <ele>1871.8199999999999</ele>
        <time>2016-01-10T13:29:04Z</time>
      </trkpt>
      <trkpt lat="45.942843910306692" lon="9.538390059024096">
        <ele>1872.3</ele>
        <time>2016-01-10T13:29:16Z</time>
      </trkpt>
      <trkpt lat="45.942833013832569" lon="9.538381090387702">
        <ele>1873.75</ele>
        <time>2016-01-10T13:29:28Z</time>
      </trkpt>
      <trkpt lat="45.942817088216543" lon="9.538376983255148">
        <ele>1872.79</ele>
        <time>2016-01-10T13:29:42Z</time>
      </trkpt>
      <trkpt lat="45.942804431542754" lon="9.538398440927267">
        <ele>1873.27</ele>
        <time>2016-01-10T13:29:54Z</time>
      </trkpt>
      <trkpt lat="45.942779704928398" lon="9.538422580808401">
        <ele>1872.79</ele>
        <time>2016-01-10T13:30:05Z</time>
      </trkpt>
      <trkpt lat="45.9427709877491" lon="9.538428951054812">
        <ele>1872.3</ele>
        <time>2016-01-10T13:30:07Z</time>
      </trkpt>
      <trkpt lat="45.942733101546764" lon="9.538425263017416">
        <ele>1871.8199999999999</ele>
        <time>2016-01-10T13:30:12Z</time>
      </trkpt>
      <trkpt lat="45.942667303606868" lon="9.538348987698555">
        <ele>1870.3800000000001</ele>
        <time>2016-01-10T13:30:21Z</time>
      </trkpt>
      <trkpt lat="45.942656826227903" lon="9.538330631330609">
        <ele>1869.9000000000001</ele>
        <time>2016-01-10T13:30:23Z</time>
      </trkpt>
      <trkpt lat="45.942634111270308" lon="9.538258211687207">
        <ele>1869.9000000000001</ele>
        <time>2016-01-10T13:30:29Z</time>
      </trkpt>
      <trkpt lat="45.94254719093442" lon="9.538157545030117">
        <ele>1867.02</ele>
        <time>2016-01-10T13:30:42Z</time>
      </trkpt>
      <trkpt lat="45.942491954192519" lon="9.538073474541307">
        <ele>1864.1300000000001</ele>
        <time>2016-01-10T13:30:50Z</time>
      </trkpt>
      <trkpt lat="45.942457253113389" lon="9.538046652451158">
        <ele>1865.0899999999999</ele>
        <time>2016-01-10T13:30:55Z</time>
      </trkpt>
      <trkpt lat="45.942415008321404" lon="9.538050005212426">
        <ele>1863.1700000000001</ele>
        <time>2016-01-10T13:31:00Z</time>
      </trkpt>
      <trkpt lat="45.942342421039939" lon="9.538049837574363">
        <ele>1859.3299999999999</ele>
        <time>2016-01-10T13:31:06Z</time>
      </trkpt>
      <trkpt lat="45.942255081608891" lon="9.538007006049156">
        <ele>1857.8900000000001</ele>
        <time>2016-01-10T13:31:16Z</time>
      </trkpt>
      <trkpt lat="45.942247118800879" lon="9.538010777905583">
        <ele>1857.8900000000001</ele>
        <time>2016-01-10T13:31:17Z</time>
      </trkpt>
      <trkpt lat="45.942181069403887" lon="9.538026787340641">
        <ele>1855.48</ele>
        <time>2016-01-10T13:31:24Z</time>
      </trkpt>
      <trkpt lat="45.942129185423255" lon="9.538092250004411">
        <ele>1853.5599999999999</ele>
        <time>2016-01-10T13:31:32Z</time>
      </trkpt>
      <trkpt lat="45.942076882347465" lon="9.538234826177359">
        <ele>1852.5999999999999</ele>
        <time>2016-01-10T13:31:42Z</time>
      </trkpt>
      <trkpt lat="45.942020807415247" lon="9.538354435935617">
        <ele>1851.6400000000001</ele>
        <time>2016-01-10T13:31:51Z</time>
      </trkpt>
      <trkpt lat="45.941958865150809" lon="9.538459461182356">
        <ele>1849.23</ele>
        <time>2016-01-10T13:32:00Z</time>
      </trkpt>
      <trkpt lat="45.941882757470012" lon="9.538609497249126">
        <ele>1846.3499999999999</ele>
        <time>2016-01-10T13:32:12Z</time>
      </trkpt>
      <trkpt lat="45.941778821870685" lon="9.538744194433093">
        <ele>1844.4300000000001</ele>
        <time>2016-01-10T13:32:24Z</time>
      </trkpt>
      <trkpt lat="45.941626606509089" lon="9.538794737309218">
        <ele>1844.9100000000001</ele>
        <time>2016-01-10T13:32:37Z</time>
      </trkpt>
      <trkpt lat="45.941496351733804" lon="9.538879729807377">
        <ele>1842.98</ele>
        <time>2016-01-10T13:32:49Z</time>
      </trkpt>
      <trkpt lat="45.941395936533809" lon="9.538982827216387">
        <ele>1840.5799999999999</ele>
        <time>2016-01-10T13:32:59Z</time>
      </trkpt>
      <trkpt lat="45.941383112221956" lon="9.539003865793347">
        <ele>1839.6199999999999</ele>
        <time>2016-01-10T13:33:01Z</time>
      </trkpt>
      <trkpt lat="45.941356290131807" lon="9.539068574085832">
        <ele>1837.7</ele>
        <time>2016-01-10T13:33:06Z</time>
      </trkpt>
      <trkpt lat="45.941322175785899" lon="9.539135126397014">
        <ele>1836.26</ele>
        <time>2016-01-10T13:33:11Z</time>
      </trkpt>
      <trkpt lat="45.941214887425303" lon="9.539124313741922">
        <ele>1835.29</ele>
        <time>2016-01-10T13:33:20Z</time>
      </trkpt>
      <trkpt lat="45.941144982352853" lon="9.539048206061125">
        <ele>1834.3299999999999</ele>
        <time>2016-01-10T13:33:27Z</time>
      </trkpt>
      <trkpt lat="45.94096552580595" lon="9.53893362544477">
        <ele>1830.97</ele>
        <time>2016-01-10T13:33:44Z</time>
      </trkpt>
      <trkpt lat="45.940851364284754" lon="9.53879289329052">
        <ele>1827.5999999999999</ele>
        <time>2016-01-10T13:33:57Z</time>
      </trkpt>
      <trkpt lat="45.940811717882752" lon="9.53861846588552">
        <ele>1825.6800000000001</ele>
        <time>2016-01-10T13:34:08Z</time>
      </trkpt>
      <trkpt lat="45.940828900784254" lon="9.538409253582358">
        <ele>1822.8</ele>
        <time>2016-01-10T13:34:21Z</time>
      </trkpt>
      <trkpt lat="45.940774334594607" lon="9.538241028785706">
        <ele>1820.8699999999999</ele>
        <time>2016-01-10T13:34:33Z</time>
      </trkpt>
      <trkpt lat="45.940719097852707" lon="9.538204818964005">
        <ele>1819.9100000000001</ele>
        <time>2016-01-10T13:34:39Z</time>
      </trkpt>
      <trkpt lat="45.940571408718824" lon="9.538216553628445">
        <ele>1818.95</ele>
        <time>2016-01-10T13:34:52Z</time>
      </trkpt>
      <trkpt lat="45.940494127571583" lon="9.538204986602068">
        <ele>1817.51</ele>
        <time>2016-01-10T13:34:59Z</time>
      </trkpt>
      <trkpt lat="45.94037963077426" lon="9.538033744320273">
        <ele>1814.1500000000001</ele>
        <time>2016-01-10T13:35:13Z</time>
      </trkpt>
      <trkpt lat="45.940364962443709" lon="9.537952691316605">
        <ele>1813.1800000000001</ele>
        <time>2016-01-10T13:35:18Z</time>
      </trkpt>
      <trkpt lat="45.940302098169923" lon="9.53777901828289">
        <ele>1810.78</ele>
        <time>2016-01-10T13:35:31Z</time>
      </trkpt>
      <trkpt lat="45.940168742090464" lon="9.537716237828136">
        <ele>1808.3800000000001</ele>
        <time>2016-01-10T13:35:42Z</time>
      </trkpt>
      <trkpt lat="45.940023986622691" lon="9.537732833996415">
        <ele>1808.3800000000001</ele>
        <time>2016-01-10T13:35:55Z</time>
      </trkpt>
      <trkpt lat="45.939930863678455" lon="9.537813719362021">
        <ele>1807.4200000000001</ele>
        <time>2016-01-10T13:36:05Z</time>
      </trkpt>
      <trkpt lat="45.939769260585308" lon="9.537852946668863">
        <ele>1805.49</ele>
        <time>2016-01-10T13:36:19Z</time>
      </trkpt>
      <trkpt lat="45.939593072980642" lon="9.537844397127628">
        <ele>1803.0899999999999</ele>
        <time>2016-01-10T13:36:33Z</time>
      </trkpt>
      <trkpt lat="45.939468601718545" lon="9.537862166762352">
        <ele>1800.21</ele>
        <time>2016-01-10T13:36:45Z</time>
      </trkpt>
      <trkpt lat="45.939366426318884" lon="9.537971802055836">
        <ele>1797.8</ele>
        <time>2016-01-10T13:36:57Z</time>
      </trkpt>
      <trkpt lat="45.939289312809706" lon="9.538140781223774">
        <ele>1795.8800000000001</ele>
        <time>2016-01-10T13:37:10Z</time>
      </trkpt>
      <trkpt lat="45.939258970320225" lon="9.53834974206984">
        <ele>1793.96</ele>
        <time>2016-01-10T13:37:24Z</time>
      </trkpt>
      <trkpt lat="45.939215468242764" lon="9.538411181420088">
        <ele>1793</ele>
        <time>2016-01-10T13:37:30Z</time>
      </trkpt>
      <trkpt lat="45.939114382490516" lon="9.538496760651469">
        <ele>1789.6300000000001</ele>
        <time>2016-01-10T13:37:42Z</time>
      </trkpt>
      <trkpt lat="45.939101809635758" lon="9.538663979619741">
        <ele>1787.23</ele>
        <time>2016-01-10T13:37:54Z</time>
      </trkpt>
      <trkpt lat="45.939197447150946" lon="9.538825750350952">
        <ele>1784.8199999999999</ele>
        <time>2016-01-10T13:38:07Z</time>
      </trkpt>
      <trkpt lat="45.939238183200359" lon="9.538974864408374">
        <ele>1782.4200000000001</ele>
        <time>2016-01-10T13:38:18Z</time>
      </trkpt>
      <trkpt lat="45.939256707206368" lon="9.539006296545267">
        <ele>1781.46</ele>
        <time>2016-01-10T13:38:21Z</time>
      </trkpt>
      <trkpt lat="45.939369862899184" lon="9.539153147488833">
        <ele>1779.0599999999999</ele>
        <time>2016-01-10T13:38:34Z</time>
      </trkpt>
      <trkpt lat="45.93949818983674" lon="9.539255909621716">
        <ele>1778.5799999999999</ele>
        <time>2016-01-10T13:38:46Z</time>
      </trkpt>
      <trkpt lat="45.939593072980642" lon="9.539416087791324">
        <ele>1779.54</ele>
        <time>2016-01-10T13:38:59Z</time>
      </trkpt>
      <trkpt lat="45.939595922827721" lon="9.539571991190314">
        <ele>1780.98</ele>
        <time>2016-01-10T13:39:10Z</time>
      </trkpt>
      <trkpt lat="45.939592234790325" lon="9.539705095812678">
        <ele>1780.98</ele>
        <time>2016-01-10T13:39:20Z</time>
      </trkpt>
      <trkpt lat="45.939569771289825" lon="9.539753124117851">
        <ele>1779.54</ele>
        <time>2016-01-10T13:39:23Z</time>
      </trkpt>
      <trkpt lat="45.939451837912202" lon="9.539789501577616">
        <ele>1776.1700000000001</ele>
        <time>2016-01-10T13:39:33Z</time>
      </trkpt>
      <trkpt lat="45.939333904534578" lon="9.539734683930874">
        <ele>1774.73</ele>
        <time>2016-01-10T13:39:45Z</time>
      </trkpt>
      <trkpt lat="45.939209517091513" lon="9.539680033922195">
        <ele>1772.3299999999999</ele>
        <time>2016-01-10T13:39:57Z</time>
      </trkpt>
      <trkpt lat="45.939060151576996" lon="9.539602920413017">
        <ele>1770.4100000000001</ele>
        <time>2016-01-10T13:40:10Z</time>
      </trkpt>
      <trkpt lat="45.938917072489858" lon="9.539581965655088">
        <ele>1769.9200000000001</ele>
        <time>2016-01-10T13:40:22Z</time>
      </trkpt>
      <trkpt lat="45.938782207667828" lon="9.539596633985639">
        <ele>1766.5599999999999</ele>
        <time>2016-01-10T13:40:34Z</time>
      </trkpt>
      <trkpt lat="45.938706435263157" lon="9.539579534903169">
        <ele>1765.5999999999999</ele>
        <time>2016-01-10T13:40:40Z</time>
      </trkpt>
      <trkpt lat="45.938573414459825" lon="9.539485489949584">
        <ele>1762.71</ele>
        <time>2016-01-10T13:40:54Z</time>
      </trkpt>
      <trkpt lat="45.938468808308244" lon="9.53936018049717">
        <ele>1759.3499999999999</ele>
        <time>2016-01-10T13:41:07Z</time>
      </trkpt>
      <trkpt lat="45.938451793044806" lon="9.539363365620375">
        <ele>1759.8299999999999</ele>
        <time>2016-01-10T13:41:10Z</time>
      </trkpt>
      <trkpt lat="45.938390521332622" lon="9.539444083347917">
        <ele>1758.8699999999999</ele>
        <time>2016-01-10T13:41:17Z</time>
      </trkpt>
      <trkpt lat="45.938264038413763" lon="9.539475599303842">
        <ele>1755.5</ele>
        <time>2016-01-10T13:41:27Z</time>
      </trkpt>
      <trkpt lat="45.938251046463847" lon="9.539473420009017">
        <ele>1755.02</ele>
        <time>2016-01-10T13:41:28Z</time>
      </trkpt>
      <trkpt lat="45.938189271837473" lon="9.539476018399">
        <ele>1753.5799999999999</ele>
        <time>2016-01-10T13:41:33Z</time>
      </trkpt>
      <trkpt lat="45.938092796131968" lon="9.539482221007347">
        <ele>1750.7</ele>
        <time>2016-01-10T13:41:41Z</time>
      </trkpt>
      <trkpt lat="45.937976120039821" lon="9.53959814272821">
        <ele>1748.29</ele>
        <time>2016-01-10T13:41:53Z</time>
      </trkpt>
      <trkpt lat="45.937831699848175" lon="9.539662431925535">
        <ele>1746.3699999999999</ele>
        <time>2016-01-10T13:42:05Z</time>
      </trkpt>
      <trkpt lat="45.937797501683235" lon="9.539679447188973">
        <ele>1746.3699999999999</ele>
        <time>2016-01-10T13:42:08Z</time>
      </trkpt>
      <trkpt lat="45.937687112018466" lon="9.53973937779665">
        <ele>1745.4100000000001</ele>
        <time>2016-01-10T13:42:20Z</time>
      </trkpt>
      <trkpt lat="45.937606897205114" lon="9.539720518514514">
        <ele>1742.53</ele>
        <time>2016-01-10T13:42:28Z</time>
      </trkpt>
      <trkpt lat="45.937582589685917" lon="9.539706939831376">
        <ele>1741.5699999999999</ele>
        <time>2016-01-10T13:42:31Z</time>
      </trkpt>
      <trkpt lat="45.937553001567721" lon="9.539641225710511">
        <ele>1740.1199999999999</ele>
        <time>2016-01-10T13:42:35Z</time>
      </trkpt>
      <trkpt lat="45.937529616057873" lon="9.539571152999997">
        <ele>1738.6800000000001</ele>
        <time>2016-01-10T13:42:40Z</time>
      </trkpt>
      <trkpt lat="45.937524922192097" lon="9.539502589032054">
        <ele>1738.2</ele>
        <time>2016-01-10T13:42:44Z</time>
      </trkpt>
      <trkpt lat="45.937505308538675" lon="9.53930988907814">
        <ele>1735.3199999999999</ele>
        <time>2016-01-10T13:42:57Z</time>
      </trkpt>
      <trkpt lat="45.937504302710295" lon="9.539237804710865">
        <ele>1734.8399999999999</ele>
        <time>2016-01-10T13:43:02Z</time>
      </trkpt>
      <trkpt lat="45.937479073181748" lon="9.53902306035161">
        <ele>1731.47</ele>
        <time>2016-01-10T13:43:15Z</time>
      </trkpt>
      <trkpt lat="45.937428278848529" lon="9.538827845826745">
        <ele>1729.0699999999999</ele>
        <time>2016-01-10T13:43:27Z</time>
      </trkpt>
      <trkpt lat="45.937366336584091" lon="9.538623662665486">
        <ele>1726.1800000000001</ele>
        <time>2016-01-10T13:43:41Z</time>
      </trkpt>
      <trkpt lat="45.937307327985764" lon="9.538409756496549">
        <ele>1725.7</ele>
        <time>2016-01-10T13:43:55Z</time>
      </trkpt>
      <trkpt lat="45.937274387106299" lon="9.53823490999639">
        <ele>1722.3399999999999</ele>
        <time>2016-01-10T13:44:06Z</time>
      </trkpt>
      <trkpt lat="45.93724362552166" lon="9.538081353530288">
        <ele>1719.46</ele>
        <time>2016-01-10T13:44:16Z</time>
      </trkpt>
      <trkpt lat="45.937231974676251" lon="9.538013711571693">
        <ele>1718.01</ele>
        <time>2016-01-10T13:44:20Z</time>
      </trkpt>
      <trkpt lat="45.93720993027091" lon="9.537955541163683">
        <ele>1716.5699999999999</ele>
        <time>2016-01-10T13:44:24Z</time>
      </trkpt>
      <trkpt lat="45.93710582703352" lon="9.537743898108602">
        <ele>1713.6900000000001</ele>
        <time>2016-01-10T13:44:39Z</time>
      </trkpt>
      <trkpt lat="45.937006920576096" lon="9.537580199539661">
        <ele>1712.25</ele>
        <time>2016-01-10T13:44:52Z</time>
      </trkpt>
      <trkpt lat="45.936955204233527" lon="9.537411304190755">
        <ele>1710.3199999999999</ele>
        <time>2016-01-10T13:45:04Z</time>
      </trkpt>
      <trkpt lat="45.936915054917336" lon="9.537257999181747">
        <ele>1708.4000000000001</ele>
        <time>2016-01-10T13:45:15Z</time>
      </trkpt>
      <trkpt lat="45.936913629993796" lon="9.537238050252199">
        <ele>1708.4000000000001</ele>
        <time>2016-01-10T13:45:16Z</time>
      </trkpt>
      <trkpt lat="45.936865098774433" lon="9.537127995863557">
        <ele>1706.96</ele>
        <time>2016-01-10T13:45:24Z</time>
      </trkpt>
      <trkpt lat="45.936832241714001" lon="9.537080554291606">
        <ele>1706.48</ele>
        <time>2016-01-10T13:45:28Z</time>
      </trkpt>
      <trkpt lat="45.936751523986459" lon="9.536925153806806">
        <ele>1706</ele>
        <time>2016-01-10T13:45:40Z</time>
      </trkpt>
      <trkpt lat="45.936673991382122" lon="9.536784840747714">
        <ele>1704.55</ele>
        <time>2016-01-10T13:45:51Z</time>
      </trkpt>
      <trkpt lat="45.93660207465291" lon="9.536635894328356">
        <ele>1702.6300000000001</ele>
        <time>2016-01-10T13:46:02Z</time>
      </trkpt>
      <trkpt lat="45.936508867889643" lon="9.536450151354075">
        <ele>1700.71</ele>
        <time>2016-01-10T13:46:15Z</time>
      </trkpt>
      <trkpt lat="45.936404848471284" lon="9.53630531206727">
        <ele>1700.23</ele>
        <time>2016-01-10T13:46:27Z</time>
      </trkpt>
      <trkpt lat="45.936290100216866" lon="9.536185199394822">
        <ele>1699.75</ele>
        <time>2016-01-10T13:46:39Z</time>
      </trkpt>
      <trkpt lat="45.936173675581813" lon="9.536002725362778">
        <ele>1697.8299999999999</ele>
        <time>2016-01-10T13:46:54Z</time>
      </trkpt>
      <trkpt lat="45.936064627021551" lon="9.535835925489664">
        <ele>1696.3800000000001</ele>
        <time>2016-01-10T13:47:08Z</time>
      </trkpt>
      <trkpt lat="45.935931857675314" lon="9.535690331831574">
        <ele>1694.46</ele>
        <time>2016-01-10T13:47:22Z</time>
      </trkpt>
      <trkpt lat="45.935798417776823" lon="9.535573404282332">
        <ele>1691.5799999999999</ele>
        <time>2016-01-10T13:47:36Z</time>
      </trkpt>
      <trkpt lat="45.935652824118733" lon="9.535460248589516">
        <ele>1689.1700000000001</ele>
        <time>2016-01-10T13:47:50Z</time>
      </trkpt>
      <trkpt lat="45.935539500787854" lon="9.535363186150789">
        <ele>1687.73</ele>
        <time>2016-01-10T13:48:01Z</time>
      </trkpt>
      <trkpt lat="45.935418633744121" lon="9.535275930538774">
        <ele>1686.29</ele>
        <time>2016-01-10T13:48:13Z</time>
      </trkpt>
      <trkpt lat="45.935341687873006" lon="9.535205019637942">
        <ele>1685.3299999999999</ele>
        <time>2016-01-10T13:48:21Z</time>
      </trkpt>
      <trkpt lat="45.935299694538116" lon="9.535101670771837">
        <ele>1684.3699999999999</ele>
        <time>2016-01-10T13:48:29Z</time>
      </trkpt>
      <trkpt lat="45.935270190238953" lon="9.534874856472015">
        <ele>1682.4400000000001</ele>
        <time>2016-01-10T13:48:43Z</time>
      </trkpt>
      <trkpt lat="45.935255773365498" lon="9.53462733887136">
        <ele>1680.04</ele>
        <time>2016-01-10T13:48:58Z</time>
      </trkpt>
      <trkpt lat="45.935211014002562" lon="9.534442601725459">
        <ele>1676.6800000000001</ele>
        <time>2016-01-10T13:49:10Z</time>
      </trkpt>
      <trkpt lat="45.935121243819594" lon="9.534282088279724">
        <ele>1676.2</ele>
        <time>2016-01-10T13:49:22Z</time>
      </trkpt>
      <trkpt lat="45.935091404244304" lon="9.534219307824969">
        <ele>1673.3099999999999</ele>
        <time>2016-01-10T13:49:27Z</time>
      </trkpt>
      <trkpt lat="45.935038765892386" lon="9.53411964699626">
        <ele>1672.8299999999999</ele>
        <time>2016-01-10T13:49:35Z</time>
      </trkpt>
      <trkpt lat="45.935032395645976" lon="9.534109923988581">
        <ele>1672.3499999999999</ele>
        <time>2016-01-10T13:49:36Z</time>
      </trkpt>
      <trkpt lat="45.934946062043309" lon="9.533960977569223">
        <ele>1670.9100000000001</ele>
        <time>2016-01-10T13:49:47Z</time>
      </trkpt>
      <trkpt lat="45.93480683863163" lon="9.533831309527159">
        <ele>1668.51</ele>
        <time>2016-01-10T13:50:01Z</time>
      </trkpt>
      <trkpt lat="45.934733580797911" lon="9.533731900155544">
        <ele>1664.6600000000001</ele>
        <time>2016-01-10T13:50:11Z</time>
      </trkpt>
      <trkpt lat="45.934700137004256" lon="9.533687895163894">
        <ele>1663.7</ele>
        <time>2016-01-10T13:50:15Z</time>
      </trkpt>
      <trkpt lat="45.934616569429636" lon="9.533614050596952">
        <ele>1659.8499999999999</ele>
        <time>2016-01-10T13:50:24Z</time>
      </trkpt>
      <trkpt lat="45.934591675177217" lon="9.53357825987041">
        <ele>1658.8900000000001</ele>
        <time>2016-01-10T13:50:27Z</time>
      </trkpt>
      <trkpt lat="45.934549933299422" lon="9.533538613468409">
        <ele>1656.97</ele>
        <time>2016-01-10T13:50:31Z</time>
      </trkpt>
      <trkpt lat="45.93447751365602" lon="9.533452028408647">
        <ele>1654.5699999999999</ele>
        <time>2016-01-10T13:50:38Z</time>
      </trkpt>
      <trkpt lat="45.934349354356527" lon="9.533321941271424">
        <ele>1651.2</ele>
        <time>2016-01-10T13:50:50Z</time>
      </trkpt>
      <trkpt lat="45.934253633022308" lon="9.533163020387292">
        <ele>1648.3199999999999</ele>
        <time>2016-01-10T13:51:01Z</time>
      </trkpt>
      <trkpt lat="45.934164365753531" lon="9.533031592145562">
        <ele>1644.95</ele>
        <time>2016-01-10T13:51:11Z</time>
      </trkpt>
      <trkpt lat="45.934127820655704" lon="9.532943917438388">
        <ele>1643.03</ele>
        <time>2016-01-10T13:51:16Z</time>
      </trkpt>
      <trkpt lat="45.934025729075074" lon="9.532791785895824">
        <ele>1641.1099999999999</ele>
        <time>2016-01-10T13:51:27Z</time>
      </trkpt>
      <trkpt lat="45.933976275846362" lon="9.532671086490154">
        <ele>1641.1099999999999</ele>
        <time>2016-01-10T13:51:35Z</time>
      </trkpt>
      <trkpt lat="45.933958254754543" lon="9.532512752339244">
        <ele>1639.1900000000001</ele>
        <time>2016-01-10T13:51:44Z</time>
      </trkpt>
      <trkpt lat="45.933944508433342" lon="9.532493725419045">
        <ele>1638.7</ele>
        <time>2016-01-10T13:51:46Z</time>
      </trkpt>
      <trkpt lat="45.933857085183263" lon="9.532322315499187">
        <ele>1636.3</ele>
        <time>2016-01-10T13:51:58Z</time>
      </trkpt>
      <trkpt lat="45.933767650276423" lon="9.532178230583668">
        <ele>1634.8599999999999</ele>
        <time>2016-01-10T13:52:08Z</time>
      </trkpt>
      <trkpt lat="45.933743342757225" lon="9.532136488705874">
        <ele>1634.8599999999999</ele>
        <time>2016-01-10T13:52:11Z</time>
      </trkpt>
      <trkpt lat="45.933622308075428" lon="9.532087789848447">
        <ele>1634.8599999999999</ele>
        <time>2016-01-10T13:52:22Z</time>
      </trkpt>
      <trkpt lat="45.933584254235029" lon="9.532065158709884">
        <ele>1634.8599999999999</ele>
        <time>2016-01-10T13:52:25Z</time>
      </trkpt>
      <trkpt lat="45.933530610054731" lon="9.532017633318901">
        <ele>1634.3800000000001</ele>
        <time>2016-01-10T13:52:30Z</time>
      </trkpt>
      <trkpt lat="45.933474283665419" lon="9.531941693276167">
        <ele>1634.3800000000001</ele>
        <time>2016-01-10T13:52:36Z</time>
      </trkpt>
      <trkpt lat="45.933342687785625" lon="9.531825603917241">
        <ele>1634.8599999999999</ele>
        <time>2016-01-10T13:52:49Z</time>
      </trkpt>
      <trkpt lat="45.933210086077452" lon="9.531738432124257">
        <ele>1633.9000000000001</ele>
        <time>2016-01-10T13:53:01Z</time>
      </trkpt>
      <trkpt lat="45.933070695027709" lon="9.531574733555317">
        <ele>1633.9000000000001</ele>
        <time>2016-01-10T13:53:15Z</time>
      </trkpt>
      <trkpt lat="45.932952091097832" lon="9.531401311978698">
        <ele>1632.46</ele>
        <time>2016-01-10T13:53:29Z</time>
      </trkpt>
      <trkpt lat="45.93285771086812" lon="9.531227052211762">
        <ele>1630.53</ele>
        <time>2016-01-10T13:53:42Z</time>
      </trkpt>
      <trkpt lat="45.93279174529016" lon="9.531044913455844">
        <ele>1629.5699999999999</ele>
        <time>2016-01-10T13:53:54Z</time>
      </trkpt>
      <trkpt lat="45.932757295668125" lon="9.530873587355018">
        <ele>1629.0899999999999</ele>
        <time>2016-01-10T13:54:04Z</time>
      </trkpt>
      <trkpt lat="45.932746734470129" lon="9.530677953734994">
        <ele>1628.6099999999999</ele>
        <time>2016-01-10T13:54:15Z</time>
      </trkpt>
      <trkpt lat="45.932722259312868" lon="9.530416941270232">
        <ele>1627.1700000000001</ele>
        <time>2016-01-10T13:54:29Z</time>
      </trkpt>
      <trkpt lat="45.932704154402018" lon="9.530333876609802">
        <ele>1627.1700000000001</ele>
        <time>2016-01-10T13:54:34Z</time>
      </trkpt>
      <trkpt lat="45.932729383930564" lon="9.530055345967412">
        <ele>1625.73</ele>
        <time>2016-01-10T13:54:48Z</time>
      </trkpt>
      <trkpt lat="45.932795517146587" lon="9.529823083430529">
        <ele>1625.73</ele>
        <time>2016-01-10T13:55:01Z</time>
      </trkpt>
      <trkpt lat="45.932819489389658" lon="9.529770109802485">
        <ele>1625.73</ele>
        <time>2016-01-10T13:55:04Z</time>
      </trkpt>
      <trkpt lat="45.932912779971957" lon="9.529573554173112">
        <ele>1627.1700000000001</ele>
        <time>2016-01-10T13:55:18Z</time>
      </trkpt>
      <trkpt lat="45.932996179908514" lon="9.529446065425873">
        <ele>1627.6500000000001</ele>
        <time>2016-01-10T13:55:29Z</time>
      </trkpt>
      <trkpt lat="45.933111263439059" lon="9.529288066551089">
        <ele>1628.6099999999999</ele>
        <time>2016-01-10T13:55:42Z</time>
      </trkpt>
      <trkpt lat="45.933209080249071" lon="9.52916351146996">
        <ele>1629.5699999999999</ele>
        <time>2016-01-10T13:55:54Z</time>
      </trkpt>
      <trkpt lat="45.933295665308833" lon="9.529014397412539">
        <ele>1630.05</ele>
        <time>2016-01-10T13:56:06Z</time>
      </trkpt>
      <trkpt lat="45.933400522917509" lon="9.528820104897022">
        <ele>1631.49</ele>
        <time>2016-01-10T13:56:21Z</time>
      </trkpt>
      <trkpt lat="45.933429524302483" lon="9.528766125440598">
        <ele>1631.98</ele>
        <time>2016-01-10T13:56:25Z</time>
      </trkpt>
      <trkpt lat="45.933440504595637" lon="9.52872522175312">
        <ele>1631.98</ele>
        <time>2016-01-10T13:56:28Z</time>
      </trkpt>
      <trkpt lat="45.9334855992347" lon="9.528588177636266">
        <ele>1632.9400000000001</ele>
        <time>2016-01-10T13:56:39Z</time>
      </trkpt>
      <trkpt lat="45.933514852076769" lon="9.52841148711741">
        <ele>1634.3800000000001</ele>
        <time>2016-01-10T13:56:49Z</time>
      </trkpt>
      <trkpt lat="45.933516779914498" lon="9.52835088595748">
        <ele>1634.3800000000001</ele>
        <time>2016-01-10T13:56:53Z</time>
      </trkpt>
      <trkpt lat="45.933538489043713" lon="9.528216775506735">
        <ele>1635.3399999999999</ele>
        <time>2016-01-10T13:57:02Z</time>
      </trkpt>
      <trkpt lat="45.933548966422677" lon="9.52812465839088">
        <ele>1636.3</ele>
        <time>2016-01-10T13:57:10Z</time>
      </trkpt>
      <trkpt lat="45.933555252850056" lon="9.528104541823268">
        <ele>1636.78</ele>
        <time>2016-01-10T13:57:12Z</time>
      </trkpt>
      <trkpt lat="45.933568328619003" lon="9.528004880994558">
        <ele>1638.22</ele>
        <time>2016-01-10T13:57:20Z</time>
      </trkpt>
      <trkpt lat="45.933571849018335" lon="9.527991637587547">
        <ele>1637.74</ele>
        <time>2016-01-10T13:57:21Z</time>
      </trkpt>
      <trkpt lat="45.933576710522175" lon="9.527921061962843">
        <ele>1638.7</ele>
        <time>2016-01-10T13:57:27Z</time>
      </trkpt>
      <trkpt lat="45.933578219264746" lon="9.527876973152161">
        <ele>1638.7</ele>
        <time>2016-01-10T13:57:30Z</time>
      </trkpt>
      <trkpt lat="45.933581152930856" lon="9.527822490781546">
        <ele>1639.6700000000001</ele>
        <time>2016-01-10T13:57:34Z</time>
      </trkpt>
      <trkpt lat="45.933590540662408" lon="9.52762140892446">
        <ele>1640.1500000000001</ele>
        <time>2016-01-10T13:57:47Z</time>
      </trkpt>
      <trkpt lat="45.933593725785613" lon="9.527418985962868">
        <ele>1640.6300000000001</ele>
        <time>2016-01-10T13:57:59Z</time>
      </trkpt>
      <trkpt lat="45.933605460450053" lon="9.527318319305778">
        <ele>1641.1099999999999</ele>
        <time>2016-01-10T13:58:05Z</time>
      </trkpt>
      <trkpt lat="45.933609316125512" lon="9.527288731187582">
        <ele>1641.1099999999999</ele>
        <time>2016-01-10T13:58:07Z</time>
      </trkpt>
      <trkpt lat="45.933667905628681" lon="9.527093097567558">
        <ele>1642.55</ele>
        <time>2016-01-10T13:58:21Z</time>
      </trkpt>
      <trkpt lat="45.933708054944873" lon="9.526908192783594">
        <ele>1643.03</ele>
        <time>2016-01-10T13:58:33Z</time>
      </trkpt>
      <trkpt lat="45.933697577565908" lon="9.526705183088779">
        <ele>1643.03</ele>
        <time>2016-01-10T13:58:46Z</time>
      </trkpt>
      <trkpt lat="45.933698080480099" lon="9.526646174490452">
        <ele>1643.99</ele>
        <time>2016-01-10T13:58:50Z</time>
      </trkpt>
      <trkpt lat="45.933689866214991" lon="9.526427322998643">
        <ele>1644.95</ele>
        <time>2016-01-10T13:59:03Z</time>
      </trkpt>
      <trkpt lat="45.933682154864073" lon="9.526222217828035">
        <ele>1646.4000000000001</ele>
        <time>2016-01-10T13:59:15Z</time>
      </trkpt>
      <trkpt lat="45.933649716898799" lon="9.526013508439064">
        <ele>1646.4000000000001</ele>
        <time>2016-01-10T13:59:28Z</time>
      </trkpt>
      <trkpt lat="45.933633539825678" lon="9.525916194543243">
        <ele>1647.3599999999999</ele>
        <time>2016-01-10T13:59:35Z</time>
      </trkpt>
      <trkpt lat="45.933602107688785" lon="9.525745958089829">
        <ele>1648.3199999999999</ele>
        <time>2016-01-10T13:59:47Z</time>
      </trkpt>
      <trkpt lat="45.933545529842377" lon="9.525615116581321">
        <ele>1647.8399999999999</ele>
        <time>2016-01-10T13:59:57Z</time>
      </trkpt>
      <trkpt lat="45.933483503758907" lon="9.525474132969976">
        <ele>1647.8399999999999</ele>
        <time>2016-01-10T14:00:09Z</time>
      </trkpt>
      <trkpt lat="45.933438995853066" lon="9.52530968002975">
        <ele>1647.3599999999999</ele>
        <time>2016-01-10T14:00:21Z</time>
      </trkpt>
      <trkpt lat="45.933346962556243" lon="9.525106837972999">
        <ele>1645.9100000000001</ele>
        <time>2016-01-10T14:00:36Z</time>
      </trkpt>
      <trkpt lat="45.933277811855078" lon="9.524923609569669">
        <ele>1644.95</ele>
        <time>2016-01-10T14:00:49Z</time>
      </trkpt>
      <trkpt lat="45.933242775499821" lon="9.52469889074564">
        <ele>1644.95</ele>
        <time>2016-01-10T14:01:03Z</time>
      </trkpt>
      <trkpt lat="45.93322953209281" lon="9.524479201063514">
        <ele>1644.47</ele>
        <time>2016-01-10T14:01:17Z</time>
      </trkpt>
      <trkpt lat="45.933208577334881" lon="9.524322375655174">
        <ele>1645.9100000000001</ele>
        <time>2016-01-10T14:01:27Z</time>
      </trkpt>
      <trkpt lat="45.933195166289806" lon="9.524183319881558">
        <ele>1644.47</ele>
        <time>2016-01-10T14:01:39Z</time>
      </trkpt>
      <trkpt lat="45.933214779943228" lon="9.524155743420124">
        <ele>1644.47</ele>
        <time>2016-01-10T14:01:54Z</time>
      </trkpt>
      <trkpt lat="45.933215701952577" lon="9.524157838895917">
        <ele>1643.99</ele>
        <time>2016-01-10T14:02:06Z</time>
      </trkpt>
      <trkpt lat="45.933225508779287" lon="9.524181559681892">
        <ele>1643.03</ele>
        <time>2016-01-10T14:02:19Z</time>
      </trkpt>
      <trkpt lat="45.933232298120856" lon="9.524188851937652">
        <ele>1643.51</ele>
        <time>2016-01-10T14:02:41Z</time>
      </trkpt>
      <trkpt lat="45.9332265984267" lon="9.524187510833144">
        <ele>1643.99</ele>
        <time>2016-01-10T14:02:55Z</time>
      </trkpt>
    </trkseg>
  </trk>

</gpx>